[[{"header":{"parameterUnit":"m.s-1","parameterCategory":1,"la1":31.0,"la2":29.5877,"lo1":-88.7671,"lo2":-86.6584,"dy":0.0162,"dx":0.0185,"nx":115,"ny":88,"refTime":"2024-02-14T18:00:00:Z","depth":0,"parameterNumber":2,"parameterNumberName":"U-component_of_WINDS"},"data":[0.0,0.0,0.0,0.0,0.0,0.0,0.0,0.0,0.0,0.0,0.0,0.0,0.0,0.0,0.0,0.0,0.0,0.0,0.0,0.0,0.0,0.0,0.0,0.0,0.0,0.0,0.0,0.0,0.0,0.0,0.0,0.0,0.0,0.0,0.0,0.0,0.0,0.0,0.0,0.0,0.0,0.0,0.0,0.0,0.0,0.0,0.0,0.0,0.0,0.0,0.0,0.0,0.0,0.0,0.0,0.0,0.0,0.0,0.0,0.0,0.0,0.0,0.0,0.0,0.0,0.0,0.0,0.0,0.0,0.0,0.0,0.0,0.0,0.0,0.0,0.0,0.0,0.0,0.0,0.0,0.0,0.0,0.0,0.0,0.0,0.0,0.0,0.0,0.0,0.0,0.0,0.0,0.0,0.0,0.0,0.0,0.0,0.0,0.0,0.0,0.0,0.0,0.0,0.0,0.0,0.0,0.0,0.0,0.0,0.0,0.0,0.0,0.0,0.0,0.0,0.0,0.0,0.0,0.0,0.0,0.0,0.0,0.0,0.0,0.0,0.0,0.0,0.0,0.0,0.0,0.0,0.0,0.0,0.0,0.0,0.0,0.0,0.0,0.0,0.0,0.0,0.0,0.0,0.0,0.0,0.0,0.0,0.0,0.0,0.0,0.0,0.0,0.0,0.0,0.0,0.0,0.0,0.0,0.0,0.0,0.0,0.0,0.0,0.0,0.0,0.0,0.0,0.0,0.0,0.0,0.0,0.0,0.0,0.0,0.0,0.0,0.0,0.0,0.0,0.0,0.0,0.0,0.0,0.0,0.0,0.0,0.0,0.0,0.0,0.0,0.0,0.0,0.0,0.0,0.0,0.0,0.0,0.0,0.0,0.0,0.0,0.0,0.0,0.0,0.0,0.0,0.0,0.0,0.0,0.0,0.0,0.0,0.0,0.0,0.0,0.0,0.0,0.0,0.0,0.0,0.0,0.0,0.0,0.0,0.0,0.0,0.0,0.0,0.0,0.0,0.0,0.0,0.0,0.0,0.0,0.0,0.0,0.0,0.0,0.0,0.0,0.0,0.0,0.0,0.0,0.0,0.0,0.0,0.0,0.0,0.0,0.0,0.0,0.0,0.0,0.0,0.0,0.0,0.0,0.0,0.0,0.0,0.0,0.0,0.0,0.0,0.0,0.0,0.0,0.0,0.0,0.0,0.0,0.0,0.0,0.0,0.0,0.0,0.0,0.0,0.0,0.0,0.0,0.0,0.0,0.0,0.0,0.0,0.0,0.0,0.0,0.0,0.0,0.0,0.0,0.0,0.0,0.0,0.0,0.0,0.0,0.0,0.0,0.0,0.0,0.0,0.0,0.0,0.0,0.0,0.0,0.0,0.0,0.0,0.0,0.0,0.0,0.0,0.0,0.0,0.0,0.0,0.0,0.0,0.0,0.0,0.0,0.0,0.0,0.0,0.0,0.0,0.0,0.0,0.0,0.0,0.0,0.0,0.0,0.0,0.0,0.0,0.0,0.0,0.0,0.0,0.0,0.0,0.0,0.0,0.0,0.0,0.0,0.0,0.0,0.0,0.0,0.0,0.0,0.0,0.0,0.0,0.0,0.0,0.0,0.0,0.0,0.0,0.0,0.0,0.0,0.0,0.0,0.0,0.0,0.0,0.0,0.0,0.0,0.0,0.0,0.0,0.0,0.0,0.0,0.0,0.0,0.0,0.0,0.0,0.0,0.0,0.0,0.0,0.0,0.0,0.0,0.0,0.0,0.0,0.0,0.0,0.0,0.0,0.0,0.0,0.0,0.0,0.0,0.0,0.0,0.0,0.0,0.0,0.0,0.0,0.0,0.0,0.0,0.0,0.0,0.0,0.0,0.0,0.0,0.0,0.0,0.0,0.0,0.0,0.0,0.0,0.0,0.0,0.0,0.0,0.0,0.0,0.0,0.0,0.0,0.0,0.0,0.0,0.0,0.0,0.0,0.0,0.0,0.0,0.0,0.0,0.0,0.0,0.0,0.0,0.0,0.0,0.0,0.0,0.0,0.0,0.0,0.0,0.0,0.0,0.0,0.0,0.0,0.0,0.0,0.0,0.0,0.0,0.0,0.0,0.0,0.0,0.0,0.0,0.0,0.0,0.0,0.0,0.0,0.0,0.0,0.0,0.0,0.0,0.0,0.0,0.0,0.0,0.0,0.0,0.0,0.0,0.0,0.0,0.0,0.0,0.0,0.0,0.0,0.0,0.0,0.0,0.0,0.0,0.0,0.0,0.0,0.0,0.0,0.0,0.0,0.0,0.0,0.0,0.0,0.0,0.0,0.0,0.0,0.0,0.0,0.0,0.0,0.0,0.0,0.0,0.0,0.0,0.0,0.0,0.0,0.0,0.0,0.0,0.0,0.0,0.0,0.0,0.0,0.0,0.0,0.0,0.0,0.0,0.0,0.0,0.0,0.0,0.0,0.0,0.0,0.0,0.0,0.0,0.0,0.0,0.0,0.0,0.0,0.0,0.0,0.0,0.0,0.0,0.0,0.0,0.0,0.0,0.0,0.0,0.0,0.0,0.0,0.0,0.0,0.0,0.0,0.0,0.0,0.0,0.0,0.0,0.0,0.0,0.0,0.0,0.0,0.0,0.0,0.0,0.0,0.0,0.0,0.0,0.0,0.0,0.0,0.0,0.0,0.0,0.0,0.0,0.0,0.0,0.0,0.0,0.0,0.0,0.0,0.0,0.0,0.0,0.0,0.0,0.0,0.0,0.0,0.0,0.0,0.0,0.0,0.0,0.0,0.0,0.0,0.0,0.0,0.0,0.0,0.0,0.0,0.0,0.0,0.0,0.0,0.0,0.0,0.0,0.0,0.0,0.0,0.0,0.0,0.0,0.0,0.0,0.0,0.0,0.0,0.0,0.0,0.0,0.0,0.0,0.0,0.0,0.0,0.0,0.0,0.0,0.0,0.0,0.0,0.0,0.0,0.0,0.0,0.0,0.0,0.0,0.0,0.0,0.0,0.0,0.0,0.0,0.0,0.0,0.0,0.0,0.0,0.0,0.0,0.0,0.0,0.0,0.0,0.0,0.0,0.0,0.0,0.0,0.0,0.0,0.0,0.0,0.0,0.0,0.0,0.0,0.0,0.0,0.0,0.0,0.0,0.0,0.0,0.0,0.0,0.0,0.0,0.0,0.0,0.0,0.0,0.0,0.0,0.0,0.0,0.0,0.0,0.0,0.0,0.0,0.0,0.0,0.0,0.0,0.0,0.0,0.0,0.0,0.0,0.0,0.0,0.0,0.0,0.0,0.0,0.0,0.0,0.0,0.0,0.0,0.0,0.0,0.0,0.0,0.0,0.0,0.0,0.0,0.0,0.0,0.0,0.0,0.0,0.0,0.0,0.0,0.0,0.0,0.0,0.0,0.0,0.0,0.0,0.0,0.0,0.0,0.0,0.0,0.0,0.0,0.0,0.0,0.0,0.0,0.0,0.0,0.0,0.0,0.0,0.0,0.0,0.0,0.0,0.0,0.0,0.0,0.0,0.0,0.0,0.0,0.0,0.0,0.0,0.0,0.0,0.0,0.0,0.0,0.0,0.0,0.0,0.0,0.0,0.0,0.0,0.0,0.0,0.0,0.0,0.0,0.0,0.0,0.0,0.0,0.0,0.0,0.0,0.0,0.0,0.0,0.0,0.0,0.0,0.0,0.0,0.0,0.0,0.0,0.0,0.0,0.0,0.0,0.0,0.0,0.0,0.0,0.0,0.0,0.0,0.0,0.0,0.0,0.0,0.0,0.0,0.0,0.0,0.0,0.0,0.0,0.0,0.0,0.0,0.0,0.0,0.0,0.0,0.0,0.0,0.0,0.0,0.0,0.0,0.0,0.0,0.0,0.0,0.0,0.0,0.0,0.0,0.0,0.0,0.0,0.0,0.0,0.0,0.0,0.0,0.0,0.0,0.0,0.0,0.0,0.0,0.0,0.0,0.0,0.0,0.0,0.0,0.0,0.0,0.0,0.0,0.0,0.0,0.0,0.0,0.0,0.0,0.0,0.0,0.0,0.0,0.0,0.0,0.0,0.0,0.0,0.0,0.0,0.0,0.0,0.0,0.0,0.0,0.0,0.0,0.0,0.0,0.0,0.0,0.0,0.0,0.0,0.0,0.0,0.0,0.0,0.0,0.0,0.0,0.0,0.0,0.0,0.0,0.0,0.0,0.0,0.0,0.0,0.0,0.0,0.0,0.0,0.0,0.0,0.0,0.0,0.0,0.0,0.0,0.0,0.0,0.0,4.63,0.0,0.0,0.0,0.0,0.0,0.0,0.0,0.0,0.0,0.0,0.0,0.0,0.0,0.0,0.0,0.0,0.0,0.0,0.0,0.0,0.0,0.0,0.0,0.0,0.0,0.0,0.0,0.0,0.0,0.0,0.0,0.0,0.0,0.0,0.0,0.0,0.0,0.0,0.0,0.0,0.0,0.0,0.0,0.0,0.0,0.0,0.0,0.0,0.0,0.0,0.0,0.0,0.0,0.0,0.0,0.0,0.0,0.0,0.0,0.0,0.0,0.0,0.0,0.0,0.0,0.0,0.0,0.0,0.0,0.0,0.0,0.0,0.0,0.0,0.0,0.0,0.0,0.0,0.0,0.0,0.0,0.0,0.0,0.0,0.0,0.0,0.0,0.0,0.0,0.0,0.0,0.0,0.0,0.0,0.0,0.0,0.0,0.0,0.0,0.0,0.0,0.0,0.0,0.0,0.0,0.0,0.0,0.0,0.0,0.0,4.6306,4.63,4.63,4.63,4.63,0.0,0.0,0.0,0.0,0.0,0.0,0.0,0.0,0.0,0.0,0.0,0.0,0.0,0.0,0.0,0.0,0.0,0.0,0.0,0.0,0.0,0.0,0.0,0.0,0.0,0.0,0.0,0.0,0.0,0.0,0.0,0.0,0.0,0.0,0.0,0.0,0.0,0.0,0.0,0.0,0.0,0.0,0.0,0.0,0.0,0.0,0.0,0.0,0.0,0.0,0.0,0.0,0.0,0.0,0.0,0.0,0.0,0.0,0.0,0.0,0.0,0.0,0.0,0.0,0.0,0.0,0.0,0.0,0.0,0.0,0.0,0.0,0.0,0.0,0.0,0.0,0.0,0.0,0.0,0.0,0.0,0.0,0.0,0.0,0.0,0.0,0.0,0.0,0.0,0.0,0.0,0.0,0.0,0.0,0.0,0.0,0.0,0.0,0.0,0.0,0.0,0.0,0.0,0.0,0.0,0.0,0.0,0.0,0.0,0.0,0.0,0.0,4.63,4.63,4.63,0.0,0.0,0.0,0.0,0.0,0.0,0.0,0.0,0.0,0.0,0.0,0.0,0.0,0.0,0.0,0.0,0.0,0.0,0.0,0.0,0.0,0.0,0.0,0.0,0.0,0.0,0.0,0.0,0.0,0.0,0.0,0.0,0.0,0.0,0.0,0.0,0.0,0.0,0.0,0.0,0.0,0.0,0.0,0.0,0.0,0.0,0.0,0.0,0.0,0.0,0.0,0.0,0.0,0.0,0.0,0.0,0.0,0.0,0.0,0.0,0.0,0.0,0.0,0.0,0.0,0.0,0.0,0.0,0.0,0.0,0.0,0.0,0.0,0.0,0.0,0.0,0.0,0.0,0.0,0.0,0.0,0.0,0.0,0.0,0.0,0.0,0.0,0.0,0.0,0.0,0.0,0.0,0.0,0.0,0.0,0.0,0.0,0.0,0.0,0.0,0.0,0.0,0.0,0.0,0.0,0.0,0.0,0.0,0.0,0.0,4.6315,4.63,4.63,0.0,4.63,0.0,0.0,0.0,0.0,0.0,0.0,0.0,0.0,0.0,0.0,0.0,0.0,0.0,0.0,0.0,0.0,0.0,0.0,0.0,0.0,0.0,0.0,0.0,0.0,0.0,0.0,0.0,0.0,0.0,0.0,0.0,0.0,0.0,0.0,0.0,0.0,0.0,0.0,0.0,0.0,0.0,0.0,0.0,0.0,0.0,0.0,0.0,0.0,0.0,0.0,0.0,0.0,0.0,0.0,0.0,0.0,0.0,0.0,0.0,0.0,0.0,0.0,0.0,0.0,0.0,0.0,0.0,0.0,0.0,0.0,0.0,0.0,0.0,0.0,0.0,0.0,0.0,0.0,0.0,0.0,0.0,0.0,0.0,0.0,0.0,0.0,0.0,0.0,0.0,0.0,0.0,0.0,0.0,0.0,0.0,0.0,0.0,0.0,0.0,0.0,0.0,0.0,0.0,0.0,0.0,0.0,0.0,0.0,0.0,0.0,4.6315,4.63,4.63,4.63,0.0,0.0,0.0,0.0,0.0,0.0,0.0,0.0,0.0,0.0,0.0,0.0,0.0,0.0,0.0,0.0,0.0,0.0,0.0,0.0,0.0,0.0,0.0,0.0,0.0,0.0,0.0,0.0,0.0,0.0,0.0,0.0,0.0,0.0,0.0,0.0,0.0,0.0,0.0,0.0,0.0,0.0,0.0,0.0,0.0,0.0,0.0,0.0,0.0,0.0,0.0,0.0,0.0,0.0,0.0,0.0,0.0,0.0,0.0,0.0,0.0,0.0,0.0,0.0,0.0,0.0,0.0,0.0,0.0,0.0,0.0,0.0,0.0,0.0,0.0,0.0,0.0,0.0,0.0,0.0,0.0,0.0,0.0,0.0,0.0,0.0,0.0,0.0,0.0,0.0,0.0,0.0,0.0,0.0,0.0,0.0,0.0,0.0,0.0,0.0,0.0,0.0,0.0,0.0,0.0,0.0,0.0,0.0,0.0,0.0,4.6312,4.6312,4.63,4.63,4.6303,4.6306,0.0,0.0,0.0,0.0,0.0,0.0,0.0,0.0,0.0,0.0,0.0,0.0,0.0,0.0,0.0,0.0,0.0,0.0,0.0,0.0,0.0,0.0,0.0,0.0,0.0,0.0,0.0,0.0,0.0,0.0,0.0,0.0,0.0,0.0,0.0,0.0,0.0,0.0,0.0,0.0,0.0,0.0,0.0,0.0,0.0,0.0,0.0,0.0,0.0,0.0,0.0,0.0,0.0,0.0,0.0,0.0,0.0,0.0,0.0,0.0,0.0,0.0,0.0,0.0,0.0,0.0,0.0,0.0,0.0,0.0,0.0,0.0,0.0,0.0,0.0,0.0,0.0,0.0,0.0,0.0,0.0,0.0,0.0,0.0,0.0,0.0,0.0,0.0,0.0,0.0,0.0,0.0,0.0,0.0,0.0,0.0,0.0,0.0,0.0,0.0,0.0,0.0,0.0,0.0,0.0,0.0,0.0,0.0,4.63,4.6303,4.6303,4.63,4.63,4.6309,0.0,0.0,0.0,0.0,0.0,0.0,0.0,0.0,0.0,0.0,0.0,0.0,0.0,0.0,0.0,0.0,0.0,0.0,0.0,0.0,0.0,0.0,0.0,0.0,0.0,0.0,0.0,0.0,0.0,0.0,0.0,0.0,0.0,0.0,0.0,0.0,0.0,0.0,0.0,0.0,0.0,0.0,0.0,0.0,0.0,0.0,0.0,0.0,0.0,0.0,0.0,0.0,0.0,0.0,0.0,0.0,0.0,0.0,0.0,0.0,0.0,0.0,0.0,0.0,0.0,0.0,0.0,0.0,0.0,0.0,0.0,0.0,0.0,0.0,0.0,0.0,0.0,0.0,0.0,0.0,0.0,0.0,0.0,0.0,0.0,0.0,0.0,0.0,0.0,0.0,0.0,0.0,0.0,0.0,0.0,0.0,0.0,0.0,0.0,0.0,0.0,0.0,0.0,0.0,0.0,0.0,0.0,0.0,0.0,4.6315,4.6306,4.63,4.63,4.63,4.6309,0.0,0.0,0.0,0.0,0.0,0.0,0.0,0.0,0.0,0.0,0.0,0.0,0.0,0.0,0.0,0.0,0.0,0.0,0.0,0.0,0.0,0.0,0.0,0.0,0.0,0.0,0.0,0.0,0.0,0.0,0.0,0.0,0.0,0.0,0.0,0.0,0.0,0.0,0.0,0.0,0.0,0.0,0.0,0.0,0.0,0.0,0.0,0.0,0.0,0.0,0.0,0.0,0.0,0.0,0.0,0.0,0.0,0.0,0.0,0.0,0.0,0.0,0.0,0.0,0.0,0.0,0.0,0.0,0.0,0.0,0.0,0.0,0.0,0.0,0.0,0.0,0.0,0.0,0.0,0.0,0.0,0.0,0.0,0.0,0.0,0.0,0.0,0.0,0.0,0.0,0.0,0.0,0.0,0.0,0.0,0.0,0.0,0.0,0.0,0.0,0.0,0.0,0.0,0.0,0.0,0.0,0.0,0.0,0.0,4.6705,0.0,4.6729,4.6729,4.6729,4.658,0.0,0.0,0.0,0.0,0.0,0.0,0.0,0.0,0.0,0.0,0.0,0.0,0.0,0.0,0.0,0.0,0.0,0.0,0.0,0.0,0.0,0.0,0.0,0.0,0.0,0.0,0.0,0.0,0.0,0.0,0.0,0.0,0.0,0.0,0.0,0.0,0.0,0.0,0.0,0.0,0.0,0.0,0.0,0.0,0.0,0.0,0.0,0.0,0.0,0.0,0.0,0.0,0.0,0.0,0.0,0.0,0.0,0.0,0.0,0.0,0.0,0.0,0.0,0.0,0.0,0.0,0.0,0.0,0.0,0.0,0.0,0.0,0.0,0.0,0.0,0.0,0.0,0.0,0.0,0.0,0.0,0.0,0.0,0.0,0.0,0.0,0.0,0.0,0.0,0.0,0.0,0.0,0.0,0.0,0.0,0.0,0.0,0.0,0.0,0.0,0.0,0.0,0.0,0.0,0.0,0.0,0.0,0.0,4.6755,4.7553,4.7588,4.7627,4.7588,4.7588,4.7162,0.0,0.0,0.0,0.0,0.0,0.0,0.0,0.0,0.0,0.0,0.0,0.0,0.0,0.0,0.0,0.0,0.0,0.0,0.0,0.0,0.0,0.0,0.0,0.0,0.0,0.0,0.0,0.0,0.0,0.0,0.0,0.0,0.0,0.0,0.0,0.0,0.0,0.0,0.0,0.0,0.0,0.0,0.0,0.0,0.0,0.0,0.0,0.0,0.0,0.0,0.0,0.0,0.0,0.0,0.0,0.0,0.0,0.0,0.0,0.0,0.0,0.0,0.0,0.0,0.0,0.0,0.0,0.0,0.0,0.0,0.0,0.0,0.0,0.0,0.0,0.0,0.0,0.0,0.0,0.0,0.0,0.0,0.0,0.0,0.0,0.0,0.0,0.0,0.0,0.0,0.0,0.0,0.0,0.0,0.0,0.0,0.0,0.0,0.0,0.0,0.0,0.0,0.0,0.0,0.0,0.0,0.0,0.0,0.0,4.7614,4.8186,4.8486,4.8486,4.79,4.7474,0.0,0.0,0.0,0.0,0.0,0.0,0.0,0.0,0.0,0.0,0.0,0.0,0.0,0.0,0.0,0.0,0.0,0.0,0.0,0.0,0.0,0.0,0.0,0.0,0.0,0.0,0.0,0.0,0.0,0.0,0.0,0.0,0.0,0.0,0.0,0.0,0.0,0.0,0.0,0.0,0.0,0.0,0.0,0.0,0.0,0.0,0.0,0.0,0.0,0.0,0.0,0.0,0.0,0.0,0.0,0.0,0.0,0.0,0.0,0.0,0.0,0.0,0.0,0.0,0.0,0.0,0.0,0.0,0.0,0.0,0.0,0.0,0.0,0.0,0.0,0.0,0.0,0.0,0.0,0.0,0.0,0.0,0.0,0.0,0.0,0.0,0.0,0.0,0.0,0.0,0.0,0.0,0.0,0.0,0.0,0.0,0.0,0.0,0.0,0.0,0.0,0.0,0.0,0.0,0.0,0.0,0.0,0.0,0.0,4.9023,4.9566,4.9827,4.9813,4.9306,4.8577,4.7654,0.0,0.0,0.0,0.0,0.0,0.0,0.0,0.0,0.0,0.0,0.0,0.0,0.0,0.0,0.0,0.0,0.0,0.0,0.0,0.0,0.0,0.0,0.0,0.0,0.0,0.0,0.0,0.0,0.0,0.0,0.0,0.0,0.0,0.0,0.0,0.0,0.0,0.0,0.0,0.0,0.0,0.0,0.0,0.0,0.0,0.0,0.0,0.0,0.0,0.0,0.0,0.0,0.0,0.0,0.0,0.0,0.0,0.0,0.0,0.0,0.0,0.0,0.0,0.0,0.0,0.0,0.0,0.0,0.0,0.0,0.0,0.0,0.0,0.0,0.0,0.0,0.0,0.0,0.0,0.0,0.0,0.0,0.0,0.0,0.0,0.0,0.0,0.0,0.0,0.0,0.0,0.0,0.0,0.0,0.0,0.0,0.0,0.0,0.0,0.0,0.0,0.0,0.0,0.0,0.0,0.0,0.0,0.0,5.1601,5.168,5.1676,5.1535,5.1421,5.027,0.0,0.0,0.0,0.0,0.0,0.0,0.0,0.0,0.0,0.0,0.0,0.0,0.0,0.0,0.0,0.0,0.0,0.0,0.0,0.0,0.0,0.0,0.0,0.0,0.0,0.0,0.0,0.0,0.0,0.0,0.0,0.0,0.0,0.0,0.0,0.0,0.0,0.0,0.0,0.0,0.0,0.0,0.0,0.0,0.0,0.0,0.0,0.0,0.0,0.0,0.0,0.0,0.0,0.0,0.0,0.0,0.0,0.0,0.0,0.0,0.0,0.0,0.0,0.0,0.0,0.0,0.0,0.0,0.0,0.0,0.0,0.0,0.0,0.0,0.0,0.0,0.0,0.0,0.0,0.0,0.0,0.0,0.0,0.0,0.0,0.0,0.0,0.0,0.0,0.0,0.0,0.0,0.0,0.0,0.0,0.0,0.0,0.0,0.0,0.0,0.0,0.0,0.0,0.0,0.0,0.0,0.0,0.0,0.0,5.4214,5.4921,5.4609,5.3357,5.2069,5.0808,0.0,0.0,0.0,0.0,0.0,0.0,0.0,0.0,0.0,0.0,0.0,0.0,0.0,0.0,0.0,0.0,0.0,0.0,0.0,0.0,0.0,0.0,0.0,0.0,0.0,0.0,0.0,0.0,0.0,0.0,0.0,0.0,0.0,0.0,0.0,0.0,0.0,0.0,0.0,0.0,0.0,0.0,0.0,0.0,0.0,0.0,0.0,0.0,0.0,0.0,0.0,0.0,0.0,0.0,0.0,0.0,0.0,0.0,0.0,0.0,0.0,0.0,0.0,0.0,0.0,0.0,0.0,0.0,0.0,0.0,0.0,0.0,0.0,0.0,0.0,0.0,0.0,0.0,0.0,0.0,0.0,0.0,0.0,0.0,0.0,0.0,0.0,0.0,0.0,0.0,0.0,0.0,0.0,0.0,0.0,0.0,0.0,0.0,0.0,0.0,0.0,0.0,0.0,0.0,0.0,0.0,0.0,0.0,5.4076,5.4757,5.6679,5.7028,5.5664,5.3581,5.1917,0.0,0.0,0.0,0.0,0.0,0.0,0.0,0.0,0.0,0.0,0.0,0.0,0.0,0.0,0.0,0.0,0.0,0.0,0.0,0.0,0.0,0.0,0.0,0.0,0.0,0.0,0.0,0.0,0.0,0.0,0.0,0.0,0.0,0.0,0.0,0.0,0.0,0.0,0.0,0.0,0.0,0.0,0.0,0.0,0.0,0.0,0.0,0.0,0.0,0.0,0.0,0.0,0.0,0.0,0.0,0.0,0.0,0.0,0.0,0.0,0.0,0.0,0.0,0.0,0.0,0.0,0.0,0.0,0.0,0.0,0.0,0.0,0.0,0.0,0.0,0.0,0.0,0.0,0.0,0.0,0.0,0.0,0.0,0.0,0.0,0.0,0.0,0.0,0.0,0.0,0.0,0.0,0.0,0.0,0.0,0.0,0.0,0.0,0.0,0.0,0.0,0.0,0.0,0.0,0.0,0.0,0.0,0.0,5.5079,5.4599,5.7569,5.8889,5.8124,5.546,5.3284,0.0,0.0,0.0,0.0,0.0,0.0,0.0,0.0,0.0,0.0,0.0,0.0,0.0,0.0,0.0,0.0,0.0,0.0,0.0,0.0,0.0,0.0,0.0,0.0,0.0,0.0,0.0,0.0,0.0,0.0,0.0,0.0,0.0,0.0,0.0,0.0,0.0,0.0,0.0,0.0,0.0,0.0,0.0,0.0,0.0,0.0,0.0,0.0,0.0,0.0,0.0,0.0,0.0,0.0,0.0,0.0,0.0,0.0,0.0,0.0,0.0,0.0,0.0,0.0,0.0,0.0,0.0,0.0,0.0,0.0,0.0,0.0,0.0,0.0,0.0,0.0,0.0,0.0,0.0,0.0,0.0,0.0,0.0,0.0,0.0,0.0,0.0,0.0,0.0,0.0,0.0,0.0,0.0,0.0,0.0,0.0,0.0,0.0,0.0,0.0,0.0,0.0,0.0,0.0,0.0,0.0,0.0,0.0,5.6826,5.8062,5.8823,5.9421,5.9859,5.6054,5.381,0.0,0.0,0.0,0.0,0.0,0.0,0.0,0.0,0.0,0.0,0.0,0.0,0.0,0.0,0.0,0.0,0.0,0.0,0.0,0.0,0.0,0.0,0.0,0.0,0.0,0.0,0.0,0.0,0.0,0.0,0.0,0.0,0.0,0.0,0.0,0.0,0.0,0.0,0.0,0.0,0.0,0.0,0.0,0.0,0.0,0.0,0.0,0.0,5.1486,0.0,0.0,0.0,0.0,0.0,0.0,0.0,0.0,0.0,0.0,0.0,0.0,0.0,0.0,0.0,0.0,0.0,0.0,0.0,0.0,0.0,0.0,0.0,0.0,0.0,0.0,0.0,0.0,0.0,0.0,0.0,0.0,0.0,0.0,0.0,0.0,0.0,0.0,0.0,0.0,0.0,0.0,0.0,0.0,0.0,0.0,0.0,0.0,0.0,0.0,0.0,0.0,0.0,0.0,0.0,0.0,0.0,0.0,0.0,5.7187,5.8527,5.9336,5.9983,6.0276,5.7408,5.539,0.0,0.0,0.0,0.0,0.0,0.0,0.0,0.0,0.0,0.0,0.0,0.0,0.0,0.0,0.0,0.0,0.0,0.0,0.0,0.0,0.0,0.0,0.0,0.0,0.0,0.0,0.0,0.0,0.0,0.0,0.0,0.0,0.0,0.0,0.0,0.0,0.0,0.0,0.0,0.0,0.0,0.0,0.0,0.0,0.0,0.0,0.0,0.0,0.0,0.0,0.0,0.0,0.0,0.0,0.0,0.0,0.0,0.0,0.0,0.0,0.0,0.0,0.0,0.0,0.0,0.0,0.0,0.0,0.0,0.0,0.0,0.0,0.0,0.0,0.0,0.0,0.0,0.0,0.0,0.0,0.0,0.0,0.0,0.0,0.0,0.0,0.0,0.0,0.0,0.0,0.0,0.0,0.0,0.0,0.0,0.0,0.0,0.0,0.0,0.0,0.0,0.0,0.0,0.0,0.0,0.0,0.0,5.5332,5.7161,5.8456,5.9724,6.0465,6.0549,5.8796,5.7067,5.5411,0.0,0.0,0.0,0.0,0.0,0.0,0.0,0.0,0.0,0.0,0.0,0.0,0.0,0.0,0.0,0.0,0.0,0.0,0.0,0.0,0.0,0.0,0.0,0.0,0.0,0.0,0.0,0.0,0.0,0.0,0.0,0.0,0.0,0.0,0.0,0.0,0.0,0.0,4.951,5.0563,0.0,0.0,0.0,0.0,0.0,0.0,0.0,0.0,5.2109,0.0,0.0,0.0,0.0,0.0,0.0,0.0,0.0,0.0,0.0,0.0,0.0,0.0,0.0,0.0,0.0,0.0,0.0,0.0,0.0,0.0,0.0,0.0,0.0,0.0,0.0,0.0,0.0,0.0,0.0,0.0,0.0,0.0,0.0,0.0,0.0,0.0,0.0,0.0,0.0,0.0,0.0,0.0,0.0,0.0,0.0,0.0,0.0,0.0,0.0,0.0,0.0,0.0,0.0,0.0,0.0,5.4723,5.5918,5.7994,6.0976,6.0625,6.0738,6.1408,5.9098,5.7342,5.6207,0.0,0.0,0.0,0.0,0.0,0.0,0.0,0.0,0.0,0.0,0.0,0.0,0.0,0.0,0.0,0.0,0.0,0.0,0.0,0.0,0.0,0.0,0.0,0.0,0.0,0.0,0.0,0.0,0.0,0.0,0.0,0.0,0.0,0.0,0.0,0.0,0.0,0.0,0.0,5.1975,5.1812,0.0,0.0,0.0,0.0,0.0,0.0,0.0,0.0,5.3414,0.0,0.0,0.0,0.0,0.0,0.0,0.0,0.0,0.0,0.0,0.0,0.0,0.0,0.0,0.0,0.0,0.0,0.0,0.0,0.0,0.0,0.0,0.0,0.0,0.0,0.0,0.0,0.0,0.0,0.0,0.0,0.0,0.0,0.0,0.0,0.0,0.0,0.0,0.0,0.0,0.0,0.0,0.0,0.0,0.0,0.0,0.0,0.0,0.0,0.0,0.0,0.0,0.0,0.0,0.0,5.5597,5.7026,5.8961,6.1442,6.113,6.1139,6.1463,5.9495,5.7729,0.0,0.0,0.0,0.0,0.0,0.0,0.0,0.0,0.0,0.0,0.0,0.0,0.0,0.0,0.0,0.0,0.0,0.0,0.0,0.0,0.0,0.0,0.0,0.0,0.0,0.0,0.0,0.0,0.0,0.0,0.0,0.0,0.0,0.0,0.0,0.0,0.0,0.0,0.0,0.0,5.2964,5.3042,5.4749,0.0,0.0,0.0,0.0,0.0,0.0,5.473,5.4155,0.0,0.0,0.0,0.0,0.0,0.0,0.0,0.0,0.0,0.0,0.0,0.0,0.0,0.0,0.0,0.0,0.0,0.0,0.0,0.0,0.0,0.0,0.0,0.0,0.0,0.0,0.0,0.0,0.0,0.0,0.0,0.0,0.0,0.0,0.0,0.0,0.0,0.0,0.0,0.0,0.0,0.0,0.0,0.0,0.0,0.0,0.0,0.0,0.0,0.0,0.0,0.0,0.0,0.0,0.0,5.6187,5.7931,5.9649,6.1312,6.139,6.1406,6.1382,5.9454,5.7731,0.0,0.0,0.0,0.0,0.0,0.0,0.0,0.0,0.0,0.0,0.0,0.0,0.0,0.0,0.0,0.0,0.0,0.0,0.0,0.0,0.0,0.0,0.0,0.0,0.0,0.0,0.0,0.0,0.0,0.0,0.0,0.0,0.0,0.0,0.0,0.0,0.0,0.0,0.0,0.0,0.0,5.427,5.6164,5.5551,0.0,0.0,0.0,0.0,5.5543,5.5565,0.0,0.0,0.0,0.0,0.0,0.0,0.0,0.0,0.0,0.0,0.0,0.0,0.0,0.0,0.0,0.0,0.0,0.0,0.0,0.0,0.0,0.0,0.0,0.0,0.0,0.0,0.0,0.0,0.0,0.0,0.0,0.0,0.0,0.0,0.0,0.0,0.0,0.0,0.0,0.0,0.0,0.0,0.0,0.0,0.0,0.0,0.0,0.0,0.0,0.0,0.0,0.0,0.0,0.0,0.0,0.0,5.6133,5.7916,5.9662,6.1307,6.1423,6.1423,6.1366,5.8309,5.6498,0.0,0.0,0.0,0.0,0.0,0.0,0.0,0.0,0.0,0.0,0.0,0.0,0.0,0.0,0.0,0.0,0.0,0.0,0.0,0.0,0.0,0.0,0.0,0.0,0.0,0.0,0.0,0.0,0.0,0.0,0.0,0.0,0.0,0.0,0.0,0.0,0.0,0.0,0.0,0.0,0.0,5.4488,5.6947,5.5864,5.5075,0.0,0.0,5.7271,5.8023,5.8157,0.0,0.0,0.0,0.0,0.0,0.0,0.0,0.0,0.0,0.0,0.0,0.0,0.0,0.0,0.0,0.0,0.0,0.0,0.0,0.0,0.0,0.0,0.0,0.0,0.0,0.0,0.0,0.0,0.0,0.0,0.0,0.0,0.0,0.0,0.0,0.0,0.0,0.0,0.0,0.0,0.0,0.0,0.0,0.0,0.0,0.0,0.0,0.0,0.0,0.0,0.0,0.0,0.0,0.0,0.0,5.391,5.6853,5.9487,6.1444,6.2627,6.2704,6.2704,6.2704,5.9404,5.7381,0.0,0.0,0.0,0.0,0.0,0.0,0.0,0.0,0.0,0.0,0.0,0.0,0.0,0.0,0.0,0.0,0.0,0.0,0.0,0.0,0.0,0.0,0.0,0.0,0.0,0.0,0.0,0.0,0.0,0.0,0.0,0.0,0.0,0.0,0.0,0.0,0.0,0.0,0.0,0.0,0.0,0.0,5.7246,5.7599,0.0,0.0,0.0,5.8565,5.7946,0.0,0.0,0.0,0.0,0.0,0.0,0.0,0.0,0.0,0.0,0.0,0.0,0.0,0.0,0.0,0.0,0.0,0.0,0.0,0.0,0.0,0.0,0.0,0.0,0.0,0.0,0.0,0.0,0.0,0.0,0.0,0.0,0.0,0.0,0.0,0.0,0.0,0.0,0.0,0.0,0.0,0.0,0.0,0.0,0.0,0.0,0.0,0.0,0.0,0.0,0.0,0.0,0.0,0.0,0.0,0.0,0.0,5.7362,6.0904,6.3052,6.3671,6.3671,6.3671,6.3632,6.0807,0.0,0.0,0.0,0.0,0.0,0.0,0.0,0.0,0.0,0.0,0.0,0.0,0.0,0.0,0.0,0.0,0.0,0.0,0.0,0.0,0.0,0.0,0.0,0.0,0.0,0.0,0.0,4.5195,0.0,0.0,0.0,0.0,0.0,0.0,0.0,0.0,0.0,0.0,0.0,0.0,0.0,0.0,5.667,5.7637,5.8972,5.9746,0.0,0.0,5.9511,5.8449,5.8818,5.8547,0.0,0.0,0.0,0.0,0.0,0.0,0.0,0.0,0.0,0.0,0.0,0.0,0.0,0.0,0.0,0.0,0.0,0.0,0.0,0.0,0.0,0.0,0.0,0.0,0.0,0.0,0.0,0.0,0.0,0.0,0.0,0.0,0.0,0.0,0.0,0.0,0.0,0.0,0.0,0.0,0.0,0.0,0.0,0.0,0.0,0.0,0.0,0.0,0.0,0.0,0.0,0.0,0.0,0.0,0.0,5.7366,6.1466,6.3632,6.371,6.3671,6.3671,6.3671,6.1968,5.9874,0.0,0.0,0.0,0.0,0.0,0.0,0.0,0.0,0.0,0.0,0.0,0.0,0.0,0.0,0.0,0.0,0.0,0.0,0.0,0.0,0.0,0.0,0.0,0.0,0.0,0.0,0.0,0.0,0.0,0.0,0.0,0.0,0.0,0.0,0.0,0.0,0.0,0.0,0.0,0.0,0.0,5.7538,5.841,5.932,6.0132,0.0,0.0,6.0092,6.0731,6.0886,6.0074,5.7637,0.0,0.0,0.0,0.0,0.0,0.0,0.0,0.0,0.0,0.0,0.0,0.0,0.0,0.0,0.0,0.0,0.0,0.0,0.0,0.0,0.0,0.0,0.0,0.0,0.0,0.0,0.0,0.0,0.0,0.0,0.0,0.0,0.0,0.0,0.0,0.0,0.0,0.0,0.0,0.0,0.0,0.0,0.0,0.0,0.0,0.0,0.0,0.0,0.0,0.0,0.0,0.0,0.0,5.6399,5.8101,6.2317,6.4754,6.5218,6.5257,6.5218,6.5257,6.3613,6.1542,0.0,0.0,0.0,0.0,0.0,0.0,0.0,0.0,0.0,0.0,0.0,0.0,0.0,0.0,0.0,0.0,0.0,0.0,0.0,0.0,0.0,0.0,0.0,0.0,0.0,0.0,0.0,0.0,5.0016,5.0542,5.0016,0.0,0.0,0.0,0.0,0.0,0.0,0.0,0.0,0.0,0.0,5.8428,5.9261,6.102,0.0,0.0,6.1718,6.195,6.1234,6.0692,5.9841,5.8333,5.6786,0.0,0.0,0.0,0.0,0.0,0.0,0.0,0.0,0.0,0.0,0.0,0.0,0.0,0.0,0.0,0.0,0.0,0.0,0.0,0.0,0.0,0.0,0.0,0.0,0.0,0.0,0.0,0.0,0.0,0.0,0.0,0.0,0.0,0.0,0.0,0.0,0.0,0.0,0.0,0.0,0.0,0.0,0.0,0.0,0.0,0.0,0.0,0.0,0.0,0.0,0.0,0.0,5.7134,5.8604,6.3052,6.5489,6.5837,6.5837,6.5837,6.5799,6.4677,6.2994,0.0,0.0,0.0,0.0,0.0,0.0,0.0,0.0,0.0,0.0,0.0,0.0,0.0,0.0,0.0,0.0,0.0,0.0,0.0,0.0,0.0,0.0,0.0,0.0,0.0,0.0,0.0,0.0,5.113,5.1556,5.0983,0.0,0.0,0.0,0.0,0.0,0.0,0.0,0.0,0.0,0.0,5.9202,5.9841,6.164,6.2568,6.1621,6.2298,6.2588,6.1621,6.0809,5.9957,5.9106,0.0,0.0,0.0,0.0,0.0,0.0,0.0,0.0,0.0,0.0,0.0,0.0,0.0,0.0,0.0,0.0,0.0,0.0,0.0,0.0,0.0,0.0,0.0,0.0,0.0,0.0,0.0,4.5838,0.0,0.0,4.5838,0.0,0.0,0.0,0.0,0.0,0.0,0.0,0.0,0.0,0.0,0.0,0.0,0.0,0.0,0.0,0.0,0.0,0.0,0.0,0.0,0.0,0.0,5.7714,5.8642,6.3555,6.5799,6.5064,6.5025,6.5064,6.5064,6.4986,6.4135,6.2356,0.0,0.0,0.0,0.0,0.0,0.0,0.0,0.0,0.0,0.0,0.0,0.0,0.0,0.0,0.0,0.0,0.0,0.0,0.0,0.0,0.0,0.0,0.0,0.0,0.0,0.0,4.8701,4.9985,5.0983,0.0,0.0,0.0,0.0,0.0,0.0,0.0,0.0,0.0,0.0,5.8237,5.988,5.9919,6.0654,6.1582,6.224,6.1718,6.1466,6.2278,6.1621,6.0809,0.0,0.0,0.0,0.0,0.0,0.0,0.0,0.0,0.0,0.0,0.0,0.0,0.0,0.0,0.0,0.0,0.0,0.0,0.0,0.0,0.0,0.0,0.0,0.0,0.0,0.0,0.0,4.7583,4.7583,0.0,0.0,0.0,0.0,0.0,0.0,0.0,0.0,0.0,0.0,0.0,5.431,5.4581,0.0,0.0,0.0,0.0,0.0,0.0,0.0,0.0,0.0,0.0,0.0,0.0,5.7753,5.8758,6.3091,6.5257,6.5025,6.5528,6.5799,6.5799,6.5799,6.4754,6.2525,0.0,0.0,0.0,0.0,0.0,0.0,0.0,0.0,0.0,0.0,0.0,0.0,0.0,0.0,0.0,0.0,0.0,0.0,0.0,0.0,0.0,0.0,0.0,0.0,0.0,5.0627,0.0,0.0,0.0,0.0,0.0,0.0,0.0,0.0,0.0,0.0,0.0,5.6106,5.7562,5.8954,6.0094,6.0615,6.193,6.2936,0.0,0.0,0.0,0.0,0.0,0.0,0.0,0.0,0.0,0.0,0.0,0.0,0.0,0.0,5.6536,5.5379,5.5608,5.5835,5.5277,0.0,0.0,0.0,0.0,0.0,0.0,0.0,0.0,0.0,0.0,0.0,0.0,0.0,0.0,5.0269,0.0,4.9567,0.0,0.0,0.0,0.0,0.0,0.0,0.0,0.0,5.52,5.6592,5.7366,5.7637,5.8217,0.0,5.8178,5.6051,0.0,0.0,0.0,0.0,0.0,0.0,0.0,0.0,5.8488,5.9223,6.3245,6.5257,6.5025,6.5528,6.5799,6.5799,6.6069,6.5451,6.386,6.1934,5.9599,0.0,0.0,0.0,0.0,0.0,0.0,0.0,0.0,0.0,0.0,0.0,0.0,0.0,0.0,0.0,0.0,0.0,0.0,0.0,0.0,0.0,0.0,0.0,5.2601,0.0,0.0,0.0,0.0,0.0,0.0,0.0,0.0,0.0,5.4404,5.5852,5.7422,5.8876,6.0036,6.0828,6.1079,0.0,0.0,0.0,0.0,0.0,0.0,0.0,6.1389,6.0847,6.0538,6.0344,6.0383,6.0131,6.0032,6.0324,0.0,0.0,5.7369,5.7348,5.7598,5.6982,5.683,5.7004,5.7793,5.7923,5.8127,0.0,0.0,0.0,0.0,0.0,0.0,0.0,0.0,5.3669,5.3654,0.0,5.185,0.0,0.0,0.0,0.0,5.1293,5.4465,0.0,0.0,5.9106,6.0692,6.0035,6.077,6.1621,6.2278,5.9996,5.8874,5.8758,5.7946,0.0,0.0,0.0,0.0,0.0,0.0,5.988,6.0112,6.4019,6.576,6.5025,6.5025,6.5064,6.5102,6.5799,6.6205,6.6187,6.3899,6.2593,6.2471,5.7119,0.0,0.0,0.0,0.0,0.0,0.0,0.0,0.0,0.0,0.0,0.0,0.0,0.0,0.0,0.0,0.0,0.0,0.0,0.0,0.0,5.439,0.0,0.0,0.0,0.0,0.0,0.0,0.0,0.0,0.0,0.0,5.6265,5.7577,5.8931,5.9823,0.0,0.0,0.0,0.0,6.2104,6.135,6.1195,6.1234,6.1311,6.193,6.2433,6.2433,0.0,0.0,6.3632,6.2974,6.2644,6.3496,6.3516,6.2646,5.9399,5.8877,5.8839,5.8761,5.8722,5.8855,5.9524,5.9749,5.9935,5.6842,0.0,0.0,0.0,0.0,5.4776,5.5061,5.5527,5.5458,5.5467,5.5428,5.4807,0.0,0.0,0.0,0.0,0.0,0.0,5.7134,5.7637,5.9996,6.1311,6.1698,6.2549,6.34,6.4213,6.3516,6.3439,6.398,6.3207,5.9957,5.4503,0.0,0.0,0.0,0.0,5.9841,6.1698,6.4097,6.5218,6.5025,6.5566,6.5837,6.5876,6.6069,6.6205,6.6264,6.5586,6.442,6.2665,6.0973,0.0,0.0,0.0,0.0,0.0,0.0,0.0,0.0,0.0,0.0,0.0,0.0,0.0,0.0,0.0,0.0,0.0,0.0,0.0,5.4304,5.682,5.7284,0.0,0.0,0.0,0.0,0.0,0.0,0.0,0.0,0.0,5.8758,5.9223,5.9841,0.0,0.0,6.0751,6.1041,6.1853,6.2511,6.2897,6.2975,0.0,6.3787,6.3555,6.3323,6.3323,6.3516,6.3671,6.3671,6.3497,6.342,6.3652,6.371,6.3302,6.2463,6.2144,6.2144,6.2159,6.2056,6.2044,6.2236,6.229,6.2281,5.9491,5.8015,5.7079,5.6862,5.7164,5.7232,5.7649,5.827,5.8196,5.8203,5.8125,5.7362,5.7018,5.7018,5.667,0.0,0.0,0.0,5.9261,6.0151,6.1505,6.2588,6.3439,6.3942,6.4638,6.5412,6.5141,6.5257,6.5721,6.4522,6.193,5.7946,0.0,0.0,5.8372,5.9841,6.1389,6.2897,6.4599,6.545,6.545,6.5953,6.6185,6.6185,6.6185,6.6244,6.6264,6.6303,6.5643,6.4128,6.3114,6.0934,0.0,0.0,0.0,0.0,0.0,0.0,0.0,0.0,0.0,0.0,0.0,5.0387,0.0,0.0,0.0,0.0,5.5449,5.63,5.7714,5.9065,0.0,0.0,0.0,0.0,0.0,0.0,0.0,5.6979,5.8255,5.9455,6.0267,6.0692,6.1079,6.1543,6.1814,6.1969,6.2124,0.0,6.3478,6.3671,6.371,6.3903,6.4406,6.4329,6.4329,6.4638,6.4677,6.4677,6.4677,6.4677,6.4677,6.4677,6.4695,6.4693,6.4602,6.4561,6.4282,6.3676,6.3453,6.3512,6.3792,6.3844,6.3897,6.1137,6.0979,5.8656,5.817,5.8884,5.8916,5.9824,6.1259,6.1208,6.1229,6.1057,5.9511,5.8797,5.8758,5.8023,0.0,5.899,6.0576,6.1737,6.2549,6.34,6.4213,6.4986,6.5064,6.5489,6.6185,6.545,6.5102,6.5025,6.3439,6.2627,6.2627,6.2549,6.1698,6.0306,6.2394,6.3671,6.3826,6.5296,6.6147,6.6185,6.6185,6.6185,6.6185,6.6185,6.6185,6.6185,6.6284,6.6303,6.6225,6.4145,6.282,6.2447,0.0,0.0,0.0,0.0,0.0,0.0,0.0,0.0,0.0,0.0,0.0,0.0,0.0,0.0,0.0,5.9839,0.0,6.224,6.0961,0.0,0.0,0.0,5.7735,5.8526,5.8642,5.8681,5.8681,0.0,0.0,6.1118,6.2027,6.2568,6.2511,6.3884,6.458,6.371,6.4251,6.4599,6.3671,6.3632,6.3671,6.3787,6.4329,6.4948,6.5566,6.5992,6.5799,6.5799,6.5837,6.5953,6.5799,6.5992,6.5874,6.5881,6.5611,6.5307,6.3661,6.3537,6.3834,6.4551,6.4705,6.4859,6.1079,6.1059,6.0479,6.0399,6.0699,6.067,6.0903,6.1297,6.1281,6.1264,6.1152,6.0711,6.0499,6.0538,6.1002,6.1311,6.1543,6.2588,6.3168,6.3439,6.429,6.4793,6.5025,6.5605,6.6031,6.6185,6.5992,6.5915,6.5876,6.487,6.4406,6.4329,6.371,6.2859,6.1892,6.2433,6.3362,6.4677,6.5064,6.5566,6.6185,6.6185,6.6185,6.6185,6.6185,6.6185,6.6185,6.6205,6.6264,6.6264,6.5777,6.4627,6.2665,5.941,0.0,0.0,0.0,0.0,0.0,0.0,0.0,0.0,0.0,5.342,5.2298,0.0,5.7869,0.0,6.1833,6.3381,6.1582,6.1621,0.0,0.0,5.8624,5.8355,5.8568,5.9204,5.9571,5.9571,6.0886,6.1892,6.2065,6.342,6.4116,6.3497,6.3748,6.369,6.2859,6.3439,6.371,6.2975,6.3323,6.371,6.371,6.3864,6.4097,6.4251,6.429,6.429,6.429,6.427,6.4289,6.4289,6.425,6.4209,6.4183,6.407,6.3921,6.3537,6.4359,6.5359,6.5551,6.5551,6.5436,6.1118,6.1118,6.1118,6.1155,6.1247,6.1225,6.1225,6.1191,6.1208,6.1191,6.1155,6.1523,6.1698,6.1737,6.2588,6.2975,6.3052,6.3864,6.4251,6.4329,6.5141,6.5528,6.5528,6.5992,6.6185,6.6185,6.6185,6.6185,6.6185,6.5721,6.5528,6.5528,6.5025,6.4367,6.3555,6.3168,6.3439,6.4406,6.4793,6.5373,6.6147,6.6185,6.6031,6.5682,6.5644,6.5489,6.5102,6.5064,6.5083,6.5141,6.5234,6.4416,6.2665,6.0187,5.7612,0.0,0.0,0.0,0.0,0.0,0.0,0.0,0.0,0.0,0.0,0.0,5.9532,5.9223,6.2356,6.3362,6.0809,6.1311,6.1389,6.0381,6.0306,6.0287,6.0307,6.0712,6.0847,6.0499,6.1582,6.2394,6.2452,6.3574,6.4271,6.3748,6.371,6.3555,6.311,6.34,6.3516,6.3091,6.34,6.3671,6.371,6.371,6.3671,6.3671,6.3671,6.3671,6.3671,6.371,6.369,6.3651,6.3613,6.3534,6.3483,6.3777,6.382,6.3589,6.4397,6.5089,6.482,6.4743,6.4551,6.1002,6.1118,6.1234,6.1273,6.1273,6.1389,6.1311,6.1118,6.1079,6.1157,6.135,6.2201,6.2588,6.2627,6.3478,6.3864,6.3903,6.4754,6.5141,6.5218,6.5876,6.6185,6.6185,6.6185,6.6185,6.6185,6.6185,6.6185,6.6185,6.6185,6.6147,6.6031,6.6031,6.5644,6.4831,6.4058,6.3671,6.371,6.4561,6.5334,6.5992,6.5915,6.5528,6.487,6.4831,6.4483,6.371,6.3671,6.369,6.3689,6.3744,6.3524,6.2897,6.0536,5.8531,0.0,5.4594,0.0,0.0,0.0,0.0,0.0,0.0,0.0,0.0,6.0809,6.1002,6.0422,6.2394,6.2743,6.0422,6.0847,6.1543,6.2143,6.2259,6.222,6.222,6.224,6.193,6.1195,6.1853,6.2375,6.2414,6.3168,6.3671,6.3497,6.3458,6.3342,6.3323,6.3362,6.34,6.34,6.3362,6.3129,6.3207,6.3284,6.3245,6.3284,6.3207,6.3362,6.3245,6.34,6.3439,6.3284,6.3284,6.3302,6.3145,6.3638,6.3806,6.3012,6.3589,6.4012,6.3589,6.3474,6.3281,6.0499,6.1157,6.1853,6.2162,6.224,6.2897,6.2394,6.1079,6.1155,6.1542,6.2201,6.3052,6.3439,6.3516,6.4367,6.4754,6.4793,6.5605,6.5992,6.5953,6.6147,6.6185,6.6185,6.6185,6.6185,6.6185,6.6185,6.6185,6.6185,6.6185,6.5876,6.5218,6.5218,6.4793,6.398,0.0,0.0,0.0,6.4561,6.5064,6.518,6.4522,6.4097,6.3942,6.3942,0.0,6.371,6.3671,6.369,6.369,6.3783,0.0,0.0,0.0,0.0,0.0,0.0,0.0,0.0,0.0,0.0,0.0,5.9957,6.0344,6.0847,6.166,6.2394,6.2936,6.34,6.3207,6.2066,6.2027,6.1911,6.1389,6.135,6.135,6.135,6.135,6.1273,6.1157,6.1814,6.2336,6.2316,6.3051,6.3303,6.2684,6.2607,6.2336,6.1737,6.224,6.2394,6.1776,6.1737,6.166,6.1582,6.166,6.1776,6.1582,6.1582,6.166,6.1776,6.2297,6.2375,6.1776,6.2043,6.2243,6.1574,6.1497,6.1666,6.132,6.2012,6.2704,6.3205,6.3281,6.3128,6.2008,6.2433,6.2859,6.3052,0.0,6.3516,6.3207,6.2394,6.2413,6.2646,6.3091,6.398,6.4329,6.4367,6.4793,6.4986,6.4986,6.4986,6.518,6.5605,6.5605,6.5837,6.6185,6.6185,6.6185,6.6185,6.6185,6.6185,6.6185,6.6185,6.5992,6.5605,6.5566,6.5373,6.4948,6.4948,6.4754,6.4329,6.4793,6.518,6.5528,6.5141,6.4715,6.4367,6.4329,0.0,0.0,0.0,0.0,0.0,0.0,0.0,0.0,6.261,0.0,6.1879,6.0716,6.0334,6.1057,6.1542,6.2104,6.2936,6.3362,6.3284,6.2433,6.3555,6.4097,6.3748,6.3671,6.3168,6.193,6.1776,6.1582,6.1157,6.1118,6.1118,6.1118,6.1118,6.106,6.1119,6.1795,6.2179,6.1752,6.2411,6.2568,6.1813,6.1698,6.1582,6.1234,6.1466,6.1543,6.1195,6.1118,6.1118,6.1118,6.1118,6.1118,6.1118,6.1466,6.1698,6.1737,6.2046,6.2181,6.1679,6.1653,6.142,6.105,6.1151,6.1304,6.1012,6.1512,6.1973,6.2166,6.2397,6.2474,6.3555,6.371,6.3864,6.3942,6.3942,6.4097,6.4135,6.4135,6.398,0.0,0.0,6.4831,6.5218,6.5218,6.5218,6.5218,6.5141,6.4445,6.4522,6.5218,6.5218,6.5566,6.6185,6.6185,6.6185,6.6185,6.6185,6.6185,6.6185,6.6185,6.6185,6.6185,6.6185,6.6185,6.6185,6.6185,6.5876,6.5218,6.5064,6.5296,6.5953,6.5837,6.545,6.4754,6.4754,6.4406,6.3748,6.3671,6.369,6.3689,6.3708,6.3494,6.2969,6.2947,6.2715,6.2233,6.2138,6.2701,6.4038,6.4155,6.4715,6.6108,6.6185,6.5605,6.4251,6.5296,6.5334,6.3826,6.3555,6.282,6.1273,6.1118,6.1118,6.1118,6.1118,6.1118,6.1118,6.106,6.1041,6.1099,6.162,6.1811,6.1169,6.1615,6.1811,6.1214,6.1119,6.1118,6.1118,6.1157,6.1157,6.1118,6.1118,6.1118,6.1118,6.1118,6.1118,6.1118,6.166,6.2162,6.2162,6.224,6.224,6.1872,6.1494,6.1212,6.092,6.1328,6.1574,6.0935,6.1473,6.182,6.1127,6.1627,6.2012,6.3052,6.3748,6.4483,6.4831,6.487,6.5566,6.5837,6.5799,6.5102,6.4793,6.487,6.5682,6.6031,6.6031,6.6031,6.6031,6.6031,6.5915,6.5915,6.6031,6.6031,6.6069,6.6185,6.6185,6.6185,6.6185,6.6185,6.6185,6.6185,6.6185,6.6185,6.6185,6.6185,6.6185,6.6185,6.6185,6.6147,6.6031,6.5334,6.5064,6.5141,6.4445,6.4019,6.3903,6.3903,6.3826,6.371,6.371,6.3671,6.369,6.3689,6.396,6.46,6.4674,6.4984,6.5451,6.5548,6.5664,6.5819,6.5837,6.5953,6.6147,6.6185,6.6069,6.5876,6.5412,6.4754,6.3787,6.3052,6.2201,6.1234,6.1118,6.1157,6.1118,6.1118,6.1118,6.1118,6.1041,6.1022,6.1002,6.1116,6.119,6.1074,6.113,6.1229,6.1059,6.1041,6.1118,6.1195,6.1118,6.1118,6.1118,6.1118,6.1118,6.1118,6.1118,6.1118,6.1118,6.1273,6.1505,6.1505,6.1969,6.2085,6.1348,6.1571,6.1604,6.1048,6.0927,6.1035,6.0896,6.1589,6.1781,6.1127,6.2113,6.2613,6.4677,6.5102,6.5489,6.5644,6.5682,6.6031,6.6185,6.6147,6.5837,6.5644,6.5682,6.6069,6.6185,6.6147,6.576,6.5528,6.5528,6.5064,6.5102,6.5528,6.5566,6.5799,6.6185,6.6185,6.6185,6.6185,6.6185,6.6185,6.6185,6.6185,6.6185,6.6185,6.6185,6.6185,6.6185,6.6185,6.6185,6.6185,6.5837,6.5644,6.5644,6.5257,6.5064,6.5064,6.5064,6.5064,6.5064,6.5064,6.5064,6.5064,6.5045,6.5238,6.5605,6.5683,6.5858,6.6147,6.6205,6.6205,6.6185,6.6185,6.6185,6.6185,6.6185,6.5992,6.5566,6.5218,6.4638,6.3787,6.3323,6.2549,6.1273,6.1505,6.1621,6.1157,6.1118,6.1118,6.1079,6.1041,6.1002,6.1002,6.1,6.0997,6.0997,6.1018,6.1,6.1002,6.1041,6.1273,6.1737,6.1776,6.1621,6.1195,6.1118,6.1118,6.1118,6.1118,6.1118,6.1118,6.1505,6.1737,6.1814,6.2182,6.2085,6.1736,6.1695,6.1383,6.0933,6.0866,6.1012,6.1512,6.1743,6.1935,6.2204,6.282,6.2935,6.6185,6.6185,6.6185,6.6185,6.6185,6.6185,6.6185,6.6185,6.6185,6.6185,6.6185,6.6185,6.6185,6.6147,6.5528,6.5257,6.518,6.4561,6.4638,6.5218,6.5257,6.5605,6.6147,6.6185,6.6185,6.6185,6.6185,6.6185,6.6185,6.6185,6.6185,6.6185,6.6185,6.6185,6.6185,6.6185,6.6185,6.6185,6.6417,6.6379,6.6224,6.6185,6.6185,6.6185,6.6185,6.6185,6.6185,6.6185,6.6185,6.6185,6.6185,6.6185,6.6185,6.6185,6.6185,6.6185,6.6185,6.6185,6.6185,6.6185,6.6185,6.6185,6.6185,6.5915,6.5373,6.5102,6.4638,6.3826,6.3478,6.2859,6.1969,6.1872,6.191,6.1427,6.1389,6.1466,6.1389,6.1351,6.1311,6.1272,6.1155,6.0997,6.0997,6.1,6.1098,6.1291,6.1505,6.1969,6.253,6.2665,6.2356,6.193,6.1698,6.1776,6.1698,6.1737,6.1776,6.1698,6.224,6.2627,6.2704,6.2627,6.2588,6.2491,6.2027,6.1752,6.1505,6.1473,6.1743,6.2281,6.2435,6.2666,6.3358,6.3589,6.3512,6.6185,6.6185,6.6185,6.6185,6.6185,6.6185,6.6185,6.6185,6.6185,6.6185,6.6147,6.6185,6.6185,6.6185,6.6108,6.6031,6.6031,6.5992,6.5953,6.6031,6.6108,6.6147,6.6185,6.6185,6.6185,6.6185,6.6185,6.6185,6.6185,6.6224,6.6224,6.6185,6.6185,6.6224,6.6224,6.6224,6.6224,6.6224,6.6959,6.6998,6.6263,6.6185,6.6185,6.6185,6.6224,6.6185,6.6263,6.6185,6.6185,6.6185,6.6185,6.6185,6.6185,6.6185,6.6185,6.6185,6.6185,6.6185,6.6185,6.6185,6.6185,6.6185,6.6185,6.6147,6.5992,6.5412,6.4638,6.3787,6.2975,6.282,6.3245,6.2201,6.1698,6.2124,6.224,6.2259,6.2182,6.224,6.22,6.22,6.1425,6.1036,6.1074,6.1152,6.1422,6.206,6.2684,6.3207,6.3418,6.3515,6.3613,6.3478,6.3439,6.34,6.3323,6.3439,6.3207,6.3284,6.3439,6.3478,6.34,6.3381,6.3438,6.3129,6.3201,6.2953,6.2968,6.3137,6.3012,6.3128,6.3281,6.3474,6.4229,6.4474,6.4282,6.6185,6.6185,6.6185,6.6185,6.6185,6.6185,6.6185,6.6185,6.6185,6.5953,6.5528,6.5489,6.576,6.6185,6.6185,6.6185,6.6185,6.6185,6.6185,6.6185,6.6185,6.6185,6.6185,6.6185,6.6185,6.6185,6.6185,6.6185,6.6301,6.6727,6.6959,6.7036,6.7462,6.7501,6.7036,6.7462,6.7501,6.6998,6.781,6.8081,6.7771,6.7733,6.7733,6.7694,6.723,6.6959,6.692,6.6495,6.6185,6.6185,6.6185,6.6185,6.6185,6.6185,6.6185,6.6185,6.6185,6.6185,6.6185,6.6185,6.6185,6.6185,6.6185,6.5992,6.5566,6.5605,6.518,6.3903,6.3362,6.3129,6.2994,6.2723,6.2588,6.251,6.2839,6.3013,6.2472,6.2356,6.2122,6.162,6.1232,6.1229,6.1692,6.2155,6.2579,6.2965,6.3415,6.3763,6.4205,6.4325,6.4598,6.4984,6.5121,6.4677,6.4019,6.3671,6.371,6.371,6.3671,6.3671,6.3729,6.3632,6.3594,6.3531,6.3592,6.3512,6.3257,6.3372,6.3386,6.3795,6.4589,6.4974,6.5282,6.5359,6.5166,6.5721,6.5528,6.5528,6.5528,6.5528,6.5489,6.5528,6.5528,6.5528,6.518,6.4677,6.487,6.5296,6.5799,6.5876,6.5876,6.5876,6.6108,6.6185,6.6185,6.6185,6.6185,6.6185,6.6185,6.6185,6.6185,6.6185,6.634,6.6611,6.7423,6.7733,6.7655,6.8352,6.8352,6.7694,6.8352,6.8506,6.8003,6.87,6.9125,6.9164,6.9357,6.928,6.8816,6.8197,6.7887,6.7849,6.6998,6.6572,6.6533,6.634,6.6185,6.6185,6.6185,6.6185,6.6185,6.6185,6.6185,6.6185,6.6185,6.6185,6.6185,6.6185,6.5953,6.5566,6.5876,6.5644,6.4638,6.4174,6.3768,6.3342,6.3478,6.3497,6.3167,6.3729,6.3748,6.3245,6.3051,6.2838,6.2161,6.206,6.1863,6.2497,6.3229,6.3769,6.3808,6.4062,6.4332,6.4949,6.5148,6.5363,6.5964,6.6024,6.5603,6.4599,6.4483,6.4367,6.4367,6.4483,6.4482,6.4286,6.4327,6.4268,6.4663,6.4229,6.4116,6.4372,6.4232,6.4116,6.4795,6.5436,6.582,6.5743,6.5859,6.5859,6.4561,6.3903,6.3826,6.4019,6.3864,6.3942,6.3903,6.4135,6.398,6.3864,6.398,6.4638,6.5025,6.5064,6.5102,6.5064,6.5218,6.5876,6.6185,6.6185,6.6185,6.6185,6.6185,6.6185,6.6224,6.6301,6.634,6.6688,6.7384,6.8274,6.8313,6.7617,6.8506,6.8429,6.7887,6.8545,6.8816,6.8854,6.9551,6.9938,7.0054,7.075,7.0363,6.9087,6.8777,6.8738,6.8661,6.7887,6.7462,6.7423,6.6688,6.6224,6.6185,6.6185,6.6185,6.6185,6.6185,6.6185,6.6185,6.6185,6.6185,6.6185,6.6185,6.6185,6.6069,6.6108,6.6031,6.5992,6.5257,6.487,6.4638,6.4116,6.4116,6.4638,6.485,6.485,6.4793,6.4599,6.485,6.4402,6.3681,6.3284,6.3306,6.4085,6.4547,6.4754,6.5288,6.5797,6.575,6.5856,6.5919,6.5951,6.6013,6.6019,6.601,6.5662,6.5778,6.574,6.5466,6.5793,6.5925,6.5942,6.582,6.5735,6.5485,6.5436,6.5667,6.5705,6.5628,6.582,6.5859,6.6051,6.65,6.609,6.6167,6.5102,6.5296,6.5296,6.5296,6.5296,6.5296,6.5296,6.5296,6.5296,6.4986,6.4638,6.487,6.4677,6.4174,6.4754,6.5296,6.576,6.6069,6.6185,6.6185,6.6185,6.6185,6.6185,6.6185,6.6533,6.6959,6.7036,6.7191,6.7539,6.839,6.8661,6.8661,6.9744,6.9976,6.9396,6.9938,7.0131,6.9705,7.0402,7.0827,7.0827,7.1137,7.0982,7.044,6.9821,6.9551,6.9551,6.8777,6.8081,6.7539,6.7191,6.6804,6.6263,6.6185,6.6185,6.6185,6.6185,6.6185,6.6185,6.6185,6.6185,6.6185,6.6185,6.6185,6.6185,6.6185,6.5992,6.5605,6.5721,6.5566,6.5064,6.4696,6.4658,6.4986,6.545,6.5528,6.5141,6.4966,6.4711,6.4183,6.4016,6.4215,6.4306,6.4922,6.5422,6.5436,6.5755,6.5909,6.5947,6.5961,6.5961,6.5996,6.5996,6.602,6.6058,6.6041,6.6041,6.6102,6.6041,6.5958,6.599,6.6013,6.5851,6.5933,6.6038,6.6128,6.6128,6.6244,6.6282,6.6628,6.6667,6.6923,6.741,6.7116,6.7244,6.4909,6.5334,6.5373,6.5373,6.5373,6.5373,6.5373,6.5412,6.5373,6.5064,6.4677,6.487,6.4638,6.4329,6.4986,6.5682,6.6147,6.6185,6.6185,6.6185,6.6185,6.6185,6.6263,6.6495,6.6766,6.7114,6.7384,6.7617,6.8003,6.8777,6.9164,6.928,7.0634,7.0866,7.0286,7.0866,7.0982,7.0634,7.1021,7.1291,7.1291,7.1291,7.1291,7.1214,7.0711,7.0402,7.0402,6.9628,6.8932,6.8352,6.8081,6.7539,6.6727,6.634,6.6185,6.6185,6.6185,6.6185,6.6185,6.6185,6.6185,6.6185,6.6185,6.6185,6.6185,6.5992,6.5644,6.5528,6.5528,6.5605,6.5489,6.5393,6.5393,6.543,6.5876,6.5992,6.5489,6.5332,6.5037,6.4679,6.4778,6.4999,6.5089,6.5513,6.582,6.5897,6.5897,6.5897,6.5897,6.5897,6.5923,6.5947,6.5986,6.5972,6.6097,6.6275,6.6206,6.6229,6.6283,6.6198,6.6213,6.6136,6.6174,6.623,6.632,6.6436,6.6551,6.6667,6.6974,6.7398,6.7552,6.7667,6.8039,6.827,6.8244,6.3826,6.398,6.3748,6.4058,6.4174,6.4174,6.3903,6.4097,6.4019,6.4174,6.429,6.4715,6.5102,6.5121,6.568,6.6126,6.6123,6.6144,6.6165,6.6185,6.6185,6.6185,6.6224,6.6882,6.7036,6.665,6.7191,6.8003,6.8816,6.9512,6.9899,7.0092,7.0827,7.0905,7.0054,7.0905,7.1291,7.1214,7.1253,7.1291,7.1291,7.1291,7.1291,7.1291,7.1214,7.1175,7.1214,7.044,6.9938,6.9783,6.9164,6.839,6.7539,6.6843,6.6301,6.634,6.6263,6.6224,6.6185,6.6185,6.6224,6.634,6.6263,6.6379,6.6456,6.5837,6.5605,6.6031,6.5644,6.5373,6.5992,6.6069,6.6069,6.6147,6.6185,6.6147,6.6126,6.6084,6.6058,6.5827,6.5793,6.5859,6.5859,6.5974,6.6051,6.6051,6.6167,6.6244,6.632,6.632,6.6051,6.6051,6.6359,6.6577,6.6563,6.6525,6.642,6.6391,6.6444,6.6497,6.6627,6.6665,6.6896,6.7013,6.7128,6.7244,6.7525,6.7641,6.7936,6.8282,6.8359,6.8552,6.8898,6.9129,6.891,6.5412,6.5412,6.5412,6.5412,6.5412,6.5412,6.5412,6.5412,6.5412,6.5412,6.5489,6.5682,6.5775,6.5666,6.5812,6.5793,6.5666,6.5793,6.5958,6.6204,6.6224,6.6224,6.6263,6.6495,6.7114,6.7887,6.8236,6.8816,6.9551,6.986,7.0015,7.017,7.0866,7.1137,7.0905,7.1175,7.1291,7.1291,7.1291,7.1291,7.1291,7.1291,7.1291,7.1291,7.1291,7.1291,7.1291,7.1021,7.0595,7.0054,6.9744,6.9241,6.8506,6.8158,6.7733,6.7191,6.7095,6.6786,6.6301,6.6263,6.6533,6.692,6.7114,6.7423,6.781,6.7152,6.6804,6.6959,6.634,6.5992,6.6147,6.6185,6.6185,6.6185,6.6185,6.6165,6.6123,6.6074,6.5982,6.5947,6.5923,6.5897,6.6013,6.6282,6.6705,6.6782,6.7167,6.7539,6.7552,6.7423,6.7616,6.759,6.7628,6.7398,6.7423,6.7539,6.7641,6.7435,6.732,6.7141,6.7218,6.7333,6.7577,6.7859,6.7975,6.8205,6.8448,6.8641,6.8936,6.9129,6.9244,6.959,6.9975,6.9975,6.9717,6.6185,6.6185,6.6185,6.6185,6.6185,6.6185,6.6144,6.6102,6.6102,6.6058,6.589,6.589,6.5793,6.5692,6.568,6.5628,6.5586,6.6063,6.6483,6.6552,6.6301,6.634,6.6688,6.7036,6.7849,6.8932,6.897,6.9396,7.0402,7.017,7.0324,7.0982,7.1214,7.1291,7.1291,7.1291,7.1291,7.1291,7.1291,7.1291,7.1291,7.1291,7.1291,7.1291,7.1291,7.1291,7.1291,7.1291,7.1059,7.0518,7.0208,6.9744,6.928,6.897,6.8545,6.8158,6.7985,6.7715,6.723,6.7268,6.7346,6.7887,6.8003,6.8197,6.8545,6.8003,6.7539,6.7384,6.6688,6.6185,6.6185,6.6185,6.6185,6.6183,6.6162,6.614,6.6074,6.6044,6.6165,6.6269,6.6359,6.6474,6.6859,6.7167,6.759,6.7667,6.8052,6.8398,6.8398,6.8321,6.8436,6.8436,6.8218,6.8141,6.8321,6.8552,6.8821,6.8629,6.8398,6.8129,6.8013,6.8039,6.8167,6.8821,6.9129,6.9475,6.9717,6.9667,6.9783,6.9975,7.0052,7.0321,7.0552,7.0629,7.0475,6.6185,6.6165,6.6165,6.6144,6.6123,6.6102,6.5974,6.5856,6.5856,6.5769,6.559,6.5723,6.5609,6.558,6.5942,6.5997,6.5961,6.6819,6.7239,6.7155,6.6814,6.6797,6.7557,6.8197,6.9048,6.9821,6.9319,6.98,7.1231,7.0573,7.0905,7.2026,7.1523,7.1291,7.1291,7.1291,7.1291,7.1291,7.1291,7.1291,7.1291,7.1291,7.1291,7.1291,7.1291,7.1291,7.1291,7.1291,7.1291,7.1175,7.0518,7.017,6.9938,6.9357,6.9087,6.8893,6.8875,6.8759,6.8738,6.8506,6.8661,6.8816,6.8854,6.8854,6.8854,6.8274,6.7655,6.7462,6.6688,6.6185,6.6185,6.6185,6.6183,6.6174,6.6306,6.626,6.6097,6.6189,6.664,6.7077,6.7205,6.7436,6.809,6.8321,6.8475,6.8513,6.8629,6.8859,6.8859,6.8975,6.8679,6.8756,6.9025,6.9102,6.9321,6.9475,6.9706,6.9667,6.9436,6.9244,6.9013,6.8975,6.9013,6.9706,7.0063,7.0514,7.0706,7.0437,7.0398,7.0514,7.0667,7.086,7.0898,7.0898,7.0975,6.6123,6.599,6.5866,6.5769,6.5601,6.5559,6.5503,6.5446,6.5485,6.5839,6.6124,6.6507,6.6613,6.6836,6.7095,6.7038,6.6768,6.7093,6.7273,6.7305,6.737,6.7731,6.8365,6.87,6.9568,7.0573,7.0087,7.049,7.1997,7.1178,7.1101,7.1533,7.1418,7.1247,7.1291,7.1291,7.1291,7.1291,7.1291,7.1291,7.1291,7.1291,7.1291,7.1291,7.1291,7.1291,7.1291,7.1291,7.1291,7.1291,7.1098,7.0943,7.0827,7.0634,7.0247,6.9783,6.9667,6.9435,6.897,6.8893,6.9125,6.9628,6.9667,6.9667,6.9628,6.8932,6.8197,6.7578,6.6727,6.6224,6.6224,6.6204,6.6389,6.6844,6.6885,6.6896,6.6998,6.741,6.7885,6.8013,6.8052,6.8244,6.8552,6.9013,6.9321,6.9436,6.9744,7.009,6.9898,6.9937,6.9833,7.0102,7.036,7.0321,7.036,7.0475,7.0552,7.0552,7.0475,7.0398,7.0244,7.0206,7.0321,7.0629,7.0514,7.0783,7.086,7.0744,7.086,7.0975,7.1052,7.1129,7.1014,7.0975,7.1129,6.6756,6.665,6.6556,6.6471,6.6353,6.633,6.6077,6.5792,6.6058,6.6112,6.6311,6.675,6.6996,6.7165,6.7417,6.7347,6.7089,6.7652,6.7946,6.8133,6.8908,6.9153,6.9129,6.9296,7.0117,7.0874,7.0628,7.1193,7.2042,7.1555,7.1362,7.1617,7.1309,7.1201,7.1247,7.1269,7.1269,7.1291,7.1291,7.1291,7.1291,7.1291,7.1291,7.1291,7.1291,7.1291,7.1291,7.1291,7.1137,7.0943,7.1059,7.1137,7.0827,7.1137,7.1021,7.0556,7.0556,7.0324,7.0015,6.986,7.0054,7.044,7.0556,7.0324,7.0015,6.9512,6.8893,6.7617,6.7036,6.6804,6.6724,6.6791,6.7055,6.7393,6.7615,6.7717,6.7705,6.8078,6.8552,6.8783,6.8975,6.909,6.936,6.9898,7.0129,7.0283,7.0475,7.0706,7.0783,7.0898,7.0898,7.0898,7.0898,7.0744,7.0629,7.0706,7.0744,7.0821,7.1014,7.1052,7.1014,7.0975,7.086,7.086,7.086,7.0937,7.1014,7.1091,7.1206,7.1283,7.1321,7.1591,7.1695,7.1591,7.1668,6.7706,6.7598,6.7674,6.7681,6.7572,6.7578,6.692,6.6476,6.6858,6.6749,6.6406,6.6779,6.7273,6.7067,6.777,6.7543,6.7543,6.8448,6.878,6.9236,6.988,7.0068,6.9146,7.0239,7.0832,7.1079,7.1108,7.1544,7.1968,7.1505,7.1505,7.1723,7.1351,7.1169,7.1201,7.1224,7.1247,7.1291,7.1291,7.1291,7.1291,7.1291,7.1291,7.1291,7.1291,7.1291,7.1291,7.1253,7.0943,7.0054,7.0827,7.0827,7.0324,7.0827,7.1214,7.1214,7.1137,7.1098,7.1059,7.0789,7.0866,7.0789,7.0789,7.0672,6.9783,6.9435,6.9009,6.7596,6.7557,6.7536,6.7432,6.773,6.7911,6.8108,6.8373,6.8574,6.8637,6.8614,6.8883,6.964,6.9794,7.0206,7.0591,7.0898,7.086,7.0591,7.0821,7.086,7.0898,7.0898,7.0898,7.0898,7.0898,7.0898,7.086,7.086,7.086,7.0898,7.1245,7.1321,7.1245,7.1168,7.0975,7.0937,7.1168,7.1283,7.1321,7.1398,7.1668,7.1975,7.2283,7.2734,7.308,7.2822,7.2745,6.7707,6.6957,6.7546,6.7654,6.7417,6.7127,6.6894,6.6741,6.6892,6.7228,6.7488,6.7918,6.8332,6.864,6.8902,6.9092,6.8659,6.9008,6.9077,6.9068,6.9209,6.9359,6.931,7.0667,7.1622,7.1657,7.1236,7.1467,7.1852,7.1349,7.1056,7.1197,7.1197,7.1081,7.1178,7.1201,7.1247,7.1291,7.1291,7.1291,7.1291,7.1291,7.1291,7.1291,7.1291,7.1291,7.1291,7.1291,7.0866,7.044,7.075,7.0905,7.0363,7.0827,7.1253,7.1253,7.1253,7.0982,7.0479,7.0363,7.0054,6.9684,6.9723,6.897,6.8197,6.8794,6.8541,6.7785,6.7995,6.8101,6.7937,6.8164,6.8489,6.8868,6.9391,6.9866,7.019,7.0018,6.9965,7.0179,7.0441,7.0706,7.086,7.0898,7.0898,7.0898,7.0937,7.0937,7.0975,7.1052,7.1283,7.1475,7.1437,7.1552,7.1552,7.1552,7.1591,7.1591,7.1783,7.1937,7.186,7.1668,7.1552,7.1514,7.158,7.1668,7.1909,7.2399,7.2822,7.3053,7.3245,7.3476,7.3696,7.3668,7.3745,6.8057,6.7954,6.8299,6.8376,6.8222,6.8015,6.7701,6.7476,6.7776,6.7926,6.8119,6.8553,6.8964,6.9203,6.9416,6.9336,6.916,6.9065,6.9207,6.9424,6.9528,6.9536,6.976,7.0534,7.1201,7.0954,7.0598,7.0707,7.0821,7.0668,7.0432,7.0652,7.0681,7.0821,7.1081,7.1106,7.1154,7.1247,7.1247,7.1269,7.1291,7.1291,7.1291,7.1291,7.1291,7.1291,7.1291,7.1291,7.0827,7.0479,7.0789,7.0905,7.0324,7.0827,7.1253,7.1253,7.0827,7.0827,7.0518,7.0247,6.9971,6.9702,6.9872,6.9347,6.8737,6.8844,6.855,6.8013,6.796,6.8118,6.84,6.8823,6.9209,6.955,6.9849,7.0144,7.0324,7.0483,7.0593,7.0593,7.0738,7.0832,7.0898,7.0986,7.0986,7.1025,7.164,7.164,7.186,7.1975,7.2283,7.2437,7.2322,7.2322,7.2322,7.236,7.2437,7.2552,7.2706,7.2783,7.2783,7.2514,7.2245,7.2311,7.2388,7.2629,7.287,7.3437,7.3726,7.3976,7.4063,7.4168,7.4303,7.4512,7.458,6.8612,6.9101,6.9214,6.9289,6.9289,6.9209,6.8753,6.834,6.8903,6.8753,6.8415,6.894,6.9171,6.9203,6.916,6.9116,6.8983,6.8967,6.9136,6.9547,6.9537,6.964,6.9903,6.996,6.9896,6.9251,6.9663,6.9853,6.9963,6.9777,7.0099,7.0337,7.0337,7.0622,7.0952,7.1005,7.1081,7.1201,7.1224,7.1247,7.1291,7.1291,7.1291,7.1291,7.1291,7.1291,7.1291,7.1253,7.0982,7.0286,7.0905,7.0827,7.0595,7.0789,7.1291,7.1291,7.075,7.0535,7.0506,7.0235,6.9987,7.0409,7.0388,7.0105,6.9229,6.8963,6.881,6.8502,6.8311,6.8502,6.9103,6.9241,6.9626,6.9891,6.974,6.9664,6.9842,7.0394,7.0754,7.0748,7.092,7.1112,7.1199,7.1304,7.1227,7.1266,7.1919,7.2447,7.2629,7.2822,7.3024,7.3091,7.2937,7.2832,7.286,7.288,7.2996,7.3077,7.333,7.3415,7.3484,7.3457,7.3226,7.3234,7.3311,7.3457,7.3576,7.3839,7.4178,7.4635,7.4811,7.4789,7.5034,7.5354,7.5302,6.9171,6.8717,6.9398,6.97,6.9661,6.9374,6.9128,6.9053,6.9128,6.9128,6.9015,6.9128,6.916,6.916,6.9072,6.8983,6.8884,6.8828,6.8809,6.8995,6.8948,6.8995,6.9043,6.9201,6.8968,6.8929,6.9374,6.9929,6.9999,6.9923,7.0293,7.0639,7.0585,7.0716,7.1091,7.1005,7.1312,7.1525,7.151,7.1518,7.1446,7.133,7.1291,7.1291,7.1291,7.1291,7.1291,7.1291,7.1214,7.1137,7.1214,7.1175,7.1059,7.1175,7.1291,7.117,7.0915,7.0474,7.0119,6.9759,6.9086,6.851,6.8595,6.8518,6.8241,6.8488,6.8929,6.9017,6.9268,6.9625,6.9587,6.9398,6.9247,6.9284,6.9468,6.9501,6.9853,7.0419,7.0899,7.0834,7.1134,7.144,7.1542,7.172,7.1866,7.2026,7.2524,7.2984,7.3245,7.3342,7.3475,7.3495,7.337,7.337,7.337,7.3389,7.3415,7.3357,7.3518,7.3715,7.3896,7.4267,7.4282,7.4106,7.3998,7.4012,7.4159,7.4295,7.4593,7.4987,7.5173,7.5321,7.5424,7.5494,7.5676,6.886,6.8935,6.935,6.9501,6.946,6.9289,6.9203,6.9203,6.9203,6.916,6.9116,6.9116,6.9072,6.9065,6.8975,6.8884,6.8791,6.865,6.8602,6.8554,6.8506,6.8543,6.8654,6.8914,6.91,6.9346,6.9918,7.0286,7.0346,7.0422,7.087,7.1701,7.1707,7.1873,7.2245,7.2404,7.2367,7.2442,7.2452,7.2268,7.1949,7.1601,7.133,7.1291,7.1291,7.1291,7.1291,7.1291,7.1291,7.1291,7.1291,7.1291,7.1291,7.1269,7.1186,7.099,7.0542,7.019,6.9787,6.9536,6.903,6.9164,6.8973,6.9107,6.9152,6.9425,6.9341,6.9207,6.9091,6.9398,6.9313,6.9261,6.9227,6.9434,6.9733,7.0056,7.0423,7.109,7.1217,7.1179,7.1634,7.1901,7.1899,7.216,7.2491,7.2868,7.3246,7.352,7.3832,7.4013,7.412,7.4024,7.4024,7.3997,7.3992,7.398,7.3915,7.3832,7.3877,7.4068,7.418,7.4482,7.4669,7.4745,7.4633,7.4413,7.4673,7.4833,7.5091,7.5279,7.5413,7.5469,7.5557,7.5634,7.5676,6.864,6.9203,6.9203,6.9203,6.9203,6.9203,6.9203,6.9203,6.916,6.9116,6.9027,6.8983,6.8975,6.8884,6.8838,6.8744,6.865,6.8554,6.8617,6.884,6.884,6.884,6.9211,6.9546,6.9955,7.0029,7.0608,7.0901,7.0793,7.0771,7.1597,7.22,7.2685,7.2969,7.3146,7.3168,7.3586,7.3729,7.3741,7.3365,7.2731,7.2004,7.1501,7.1402,7.1347,7.1291,7.1291,7.1291,7.1291,7.1291,7.1291,7.1291,7.1291,7.1247,7.1029,7.0612,6.9834,6.9927,6.9948,6.9633,6.9413,6.9619,6.995,7.0057,7.0057,6.9659,6.97,6.9193,6.9051,6.9092,6.9449,6.9415,6.9581,6.9971,7.0516,7.0917,7.0995,7.1416,7.1927,7.2062,7.2335,7.2422,7.2545,7.2868,7.3257,7.3777,7.4155,7.4204,7.4504,7.4855,7.4954,7.4822,7.4714,7.4637,7.46,7.4635,7.4522,7.4372,7.441,7.4562,7.4551,7.4611,7.4657,7.4594,7.4647,7.451,7.4935,7.5108,7.494,7.5055,7.5424,7.5539,7.5442,7.5418,7.5455,6.9128,6.9203,6.9203,6.9203,6.916,6.916,6.9203,6.916,6.9072,6.9027,6.8983,6.8929,6.8921,6.8875,6.8782,6.865,6.8591,6.8654,6.8989,6.9509,6.9583,6.988,7.0475,7.0698,7.0772,7.0896,7.1349,7.1479,7.1486,7.1294,7.1531,7.2353,7.2662,7.2546,7.3242,7.3637,7.3559,7.3742,7.3768,7.3588,7.3227,7.2747,7.2312,7.1968,7.1579,7.1363,7.1317,7.124,7.1186,7.1247,7.1269,7.1269,7.1269,7.1042,7.07,7.0613,7.0623,7.0851,7.0448,6.9908,6.9548,6.9546,6.934,6.9034,6.9256,6.9385,6.9306,6.9219,6.9275,6.9657,6.9966,7.0134,7.0368,7.0592,7.092,7.1029,7.118,7.1963,7.2416,7.2566,7.2735,7.3031,7.3212,7.3658,7.4066,7.4599,7.5015,7.495,7.5011,7.52,7.5274,7.5018,7.4901,7.485,7.4657,7.4748,7.4667,7.4585,7.4585,7.4708,7.4482,7.4243,7.4072,7.4044,7.4249,7.4561,7.4903,7.494,7.4658,7.4638,7.4903,7.508,7.5242,7.5206,7.5201,6.902,6.902,6.902,6.902,6.902,6.902,6.902,6.902,6.8975,6.8929,6.8838,6.8791,6.8782,6.8687,6.8602,6.8851,6.91,6.9174,6.962,7.0252,7.0437,7.0623,7.092,7.1403,7.1626,7.1788,7.2236,7.2659,7.2496,7.2499,7.2746,7.3367,7.3568,7.3761,7.3763,7.4303,7.4574,7.4649,7.4549,7.4411,7.414,7.365,7.3148,7.2706,7.211,7.1737,7.1437,7.092,7.0766,7.0728,7.07,7.0661,7.0633,7.0486,7.0228,7.0266,7.026,7.0129,6.974,6.9504,6.9382,6.9382,6.9166,6.9128,6.9171,6.9203,6.9428,6.9766,6.9671,7.0009,7.0526,7.0608,7.0746,7.0958,7.143,7.1552,7.1784,7.2429,7.2955,7.3052,7.3127,7.3372,7.3521,7.362,7.398,7.4551,7.4775,7.4727,7.4819,7.5003,7.4996,7.4904,7.4857,7.4789,7.4606,7.4544,7.4331,7.4237,7.4001,7.4001,7.3923,7.3691,7.3709,7.3886,7.4289,7.4638,7.4884,7.4771,7.4551,7.4438,7.4331,7.4598,7.486,7.49,7.4866,6.8828,6.8828,6.8838,6.8921,6.8921,6.8921,6.8921,6.8921,6.8875,6.8791,6.8772,6.8873,6.8937,6.8914,6.91,6.9583,6.9992,7.0029,7.0512,7.0995,7.1255,7.1403,7.1812,7.2258,7.2481,7.2481,7.2941,7.3252,7.3305,7.3335,7.359,7.4331,7.4148,7.4308,7.4551,7.4791,7.5007,7.5,7.4943,7.4899,7.4802,7.4321,7.3921,7.3482,7.2965,7.2371,7.1918,7.1535,7.1222,7.1025,7.1035,7.1145,7.1107,7.1006,7.0794,7.0722,7.0649,7.034,6.9815,6.9402,6.9102,6.9116,6.9341,6.9477,6.9923,6.9729,6.9702,7.0359,7.0236,7.0499,7.1008,7.1268,7.1528,7.1839,7.2211,7.2332,7.2541,7.2964,7.3187,7.3224,7.3275,7.3429,7.3522,7.3462,7.3835,7.4434,7.4561,7.4484,7.4619,7.4804,7.4698,7.4596,7.4547,7.4476,7.4252,7.4147,7.3963,7.3963,7.3752,7.3641,7.3728,7.374,7.3832,7.4088,7.4309,7.4238,7.4188,7.4297,7.4438,7.4274,7.4109,7.4243,7.4422,7.4497,7.454,6.865,6.8554,6.8828,6.8921,6.8921,6.8921,6.8921,6.8875,6.8744,6.8735,6.8873,6.9335,6.962,6.9769,7.0215,7.0586,7.0846,7.0809,7.1366,7.1849,7.2146,7.2444,7.2778,7.3001,7.3187,7.3187,7.3372,7.3372,7.3424,7.3378,7.3442,7.354,7.3954,7.4009,7.4199,7.4502,7.4827,7.4905,7.4898,7.4969,7.4915,7.4619,7.4358,7.4322,7.3986,7.3562,7.3188,7.2732,7.2352,7.2081,7.1899,7.1863,7.175,7.1636,7.1443,7.1241,7.1153,7.0841,7.049,6.9789,6.9228,6.9259,6.9528,7.0001,7.0517,7.0746,7.0822,7.0921,7.0846,7.1255,7.1775,7.2146,7.2369,7.2592,7.2829,7.2941,7.3038,7.3112,7.3335,7.3372,7.3424,7.3452,7.3503,7.3464,7.3717,7.4293,7.4553,7.4444,7.4482,7.4635,7.4372,7.4244,7.4203,7.4048,7.3703,7.3703,7.3916,7.4009,7.3906,7.3859,7.3859,7.3916,7.3774,7.3728,7.3759,7.3647,7.361,7.3852,7.3971,7.3944,7.3916,7.4001,7.4009,7.4056,7.4056,6.8554,6.8543,6.8602,6.865,6.865,6.865,6.865,6.865,6.8602,6.8889,6.9335,7.0066,7.0437,7.0586,7.0698,7.1255,7.1626,7.1701,7.2221,7.2666,7.3001,7.3112,7.3372,7.3372,7.3372,7.3372,7.3372,7.3372,7.3372,7.3372,7.3372,7.3476,7.3604,7.3641,7.38,7.4056,7.4374,7.4667,7.4749,7.4866,7.4866,7.4826,7.4631,7.4372,7.3832,7.3341,7.2925,7.2508,7.2238,7.2078,7.1991,7.2029,7.2025,7.1814,7.1681,7.1583,7.1481,7.1291,7.1107,7.0571,7.0246,7.0198,7.0388,7.0623,7.1069,7.0995,7.1292,7.1478,7.1701,7.2035,7.2704,7.2927,7.3038,7.3298,7.3372,7.3372,7.3372,7.3372,7.3372,7.3372,7.3372,7.3424,7.3424,7.3387,7.3752,7.4131,7.4299,7.4399,7.4399,7.4392,7.4185,7.4092,7.4041,7.4136,7.3896,7.3944,7.4009,7.3963,7.4001,7.3859,7.3763,7.3653,7.349,7.3424,7.3372,7.3447,7.3484,7.3573,7.3639,7.3641,7.3604,7.354,7.3591,7.3653,7.3703,6.8543,6.8543,6.8766,6.8729,6.858,6.8766,6.8877,6.8914,6.9174,6.9509,7.014,7.092,7.1292,7.1329,7.1626,7.1961,7.2444,7.2592,7.2889,7.3149,7.3298,7.3372,7.3372,7.3372,7.3372,7.3372,7.3372,7.3372,7.3372,7.3372,7.3372,7.3372,7.3372,7.3424,7.3527,7.3653,7.4047,7.4237,7.4331,7.4464,7.4547,7.4591,7.4713,7.4475,7.4104,7.3752,7.3388,7.3081,7.2717,7.2454,7.2267,7.2096,7.1962,7.1777,7.1727,7.1677,7.1677,7.1626,7.1552,7.1106,7.1106,7.1194,7.1268,7.1441,7.1552,7.1626,7.2146,7.2444,7.2555,7.2778,7.3372,7.3298,7.3261,7.3372,7.3372,7.3372,7.3372,7.3372,7.3372,7.3372,7.3372,7.3372,7.3372,7.3372,7.3527,7.3789,7.3859,7.3934,7.4018,7.4001,7.4009,7.3998,7.4025,7.4104,7.4252,7.3944,7.3752,7.3703,7.3653,7.3591,7.3476,7.3372,7.3372,7.3372,7.3372,7.3372,7.341,7.3447,7.3447,7.3424,7.3424,7.3424,7.3424,7.354,7.349,6.858,6.8617,6.9397,6.9286,6.8766,6.936,6.9694,6.9806,7.0437,7.0809,7.0995,7.1775,7.2146,7.2295,7.2704,7.3001,7.3112,7.3224,7.3298,7.3335,7.3372,7.3372,7.3372,7.3372,7.3372,7.3372,7.3372,7.3372,7.3372,7.3372,7.3372,7.3372,7.3372,7.3372,7.3372,7.3372,7.3424,7.3476,7.354,7.3811,7.4018,7.4117,7.4293,7.443,7.4437,7.411,7.3815,7.3725,7.3475,7.3266,7.3193,7.3143,7.3131,7.3066,7.3052,7.3038,7.3075,7.3149,7.3149,7.1812,7.1626,7.2035,7.2146,7.2332,7.3001,7.3187,7.3038,7.3075,7.3187,7.3224,7.3372,7.3372,7.3372,7.3372,7.3372,7.3372,7.3372,7.3372,7.3372,7.3372,7.3372,7.3372,7.3372,7.3372,7.3372,7.3424,7.3424,7.3476,7.3628,7.3665,7.3727,7.3764,7.3814,7.379,7.3826,7.3628,7.3476,7.3424,7.3424,7.3424,7.3372,7.3372,7.3372,7.3372,7.3372,7.3372,7.3372,7.341,7.3372,7.3372,7.3372,7.3372,7.3372,7.3372,7.3372,7.0103,7.014,7.04,7.0363,7.014,7.04,7.0512,7.066,7.1329,7.1775,7.1923,7.2629,7.2964,7.3112,7.3187,7.3372,7.3372,7.3372,7.3372,7.3372,7.3372,7.3372,7.3372,7.3372,7.3372,7.3372,7.3372,7.3372,7.3372,7.3372,7.3372,7.3372,7.3372,7.3372,7.3372,7.3372,7.3372,7.3372,7.3424,7.349,7.3653,7.3665,7.3763,7.3963,7.4056,7.4047,7.3859,7.3944,7.3886,7.3678,7.3578,7.3564,7.3476,7.3372,7.3372,7.3372,7.3372,7.3372,7.3335,7.2778,7.2704,7.2889,7.2964,7.3038,7.3372,7.3372,7.3372,7.3372,7.3372,7.3372,7.3372,7.3372,7.3372,7.3372,7.3372,7.3372,7.3372,7.3372,7.3372,7.3372,7.3372,7.3372,7.3372,7.3372,7.3372,7.3372,7.3372,7.3372,7.3476,7.3476,7.355,7.355,7.3499,7.3461,7.3372,7.3372,7.3372,7.3424,7.3424,7.3372,7.3372,7.3372,7.3372,7.3372,7.3372,7.3372,7.3372,7.3372,7.3372,7.3372,7.3372,7.3372,7.3372,7.3372,7.3372,7.092,7.0958,7.1255,7.1366,7.1366,7.1366,7.1478,7.1812,7.2369,7.2592,7.2704,7.3149,7.3372,7.3372,7.3372,7.3372,7.3372,7.3372,7.3372,7.3372,7.3372,7.3372,7.3372,7.3372,7.3372,7.3372,7.3372,7.3372,7.3372,7.3372,7.3372,7.3372,7.3372,7.3372,7.3372,7.3372,7.3372,7.3372,7.3372,7.3424,7.3424,7.3424,7.3424,7.3476,7.3527,7.3527,7.3527,7.3578,7.3665,7.3527,7.3476,7.3513,7.3424,7.3372,7.3372,7.3372,7.3372,7.3372,7.3335,7.3335,7.3224,7.3298,7.3372,7.3372,7.3372,7.3372,7.3372,7.3372,7.3372,7.3372,7.3372,7.3372,7.3372,7.3372,7.3372,7.3372,7.3372,7.3372,7.3372,7.3372,7.3372,7.3372,7.3372,7.3372,7.3372,7.3372,7.3372,7.3372,7.3372,7.3372,7.3372,7.3372,7.3372,7.3372,7.3372,7.3372,7.3372,7.3372,7.3372,7.3372,7.3372,7.3372,7.3372,7.3372,7.3372,7.3372,7.3372,7.3372,7.3372,7.3372,7.3372,7.3372,7.3372,7.3372,7.3372,7.1032,7.1106,7.1886,7.2221,7.2221,7.2221,7.2629,7.3298,7.3335,7.3335,7.3372,7.3335,7.3372,7.3372,7.3372,7.3372,7.3372,7.3372,7.3372,7.3372,7.3372,7.3372,7.3372,7.3372,7.3372,7.3372,7.3372,7.3372,7.3372,7.3372,7.3372,7.3372,7.3372,7.3372,7.3372,7.3372,7.3372,7.3372,7.3372,7.3372,7.3372,7.3372,7.3372,7.3372,7.3424,7.3424,7.3424,7.3424,7.3424,7.3424,7.3372,7.3372,7.3372,7.3372,7.3372,7.3372,7.3372,7.3372,7.3372,7.3372,7.3372,7.3372,7.3372,7.3372,7.3372,7.3372,7.3372,7.3372,7.3372,7.3372,7.3372,7.3372,7.3372,7.3372,7.3372,7.3372,7.3372,7.3372,7.3372,7.3372,7.3372,7.3372,7.3372,7.3372,7.3372,7.3372,7.3372,7.3372,7.3372,7.3372,7.3372,7.3372,7.3372,7.3372,7.3372,7.3372,7.3372,7.3372,7.3372,7.3372,7.3372,7.3372,7.3372,7.3372,7.3372,7.3372,7.3372,7.3372,7.3372,7.3372,7.3372,7.3372,7.3372,7.3372,7.3372,7.2666,7.2704,7.2927,7.3038,7.3038,7.3038,7.3187,7.3372,7.3372,7.3372,7.3372,7.3372,7.3372,7.3372,7.3372,7.3372,7.3372,7.3372,7.3372,7.3372,7.3372,7.3372,7.3372,7.3372,7.3372,7.3372,7.3372,7.3372,7.3372,7.3372,7.3372,7.3372,7.3372,7.3372,7.3372,7.3372,7.3372,7.3372,7.3372,7.3372,7.3372,7.3372,7.3372,7.3372,7.3372,7.3372,7.3372,7.3372,7.3372,7.3372,7.3372,7.3372,7.3372,7.3372,7.3372,7.3372,7.3372,7.3372,7.3372,7.3372,7.3372,7.3372,7.3372,7.3372,7.3372,7.3372,7.3372,7.3372,7.3372,7.3372,7.3372,7.3372,7.3372,7.3372,7.3372,7.3372,7.3372,7.3372,7.3372,7.3372,7.3372,7.3372,7.3372,7.3372,7.3372,7.3372,7.3372,7.3372,7.3372,7.3372,7.3372,7.3372,7.3372,7.3372,7.3372,7.3372,7.3372,7.3372,7.3372,7.3372,7.3372,7.3372,7.3372,7.3372,7.3372,7.3372,7.3372,7.3372,7.3372,7.3372,7.3372,7.3372,7.3372,7.341,7.341,7.3372,7.3372,7.3372,7.3372,7.3372,7.3372,7.3372,7.3372,7.3372,7.3372,7.3372,7.3372,7.3372,7.3372,7.3372,7.3372,7.3372,7.3372,7.3372,7.3372,7.3372,7.3372,7.3372,7.3372,7.3372,7.3372,7.3372,7.3372,7.3372,7.3372,7.3372,7.3372,7.3372,7.3372,7.3372,7.3372,7.3372,7.3372,7.3372,7.3372,7.3372,7.3372,7.3372,7.3372,7.3372,7.3372,7.3372,7.3372,7.3372,7.3372,7.3372,7.3372,7.3372,7.3372,7.3372,7.3372,7.3372,7.3372,7.3372,7.3372,7.3372,7.3372,7.3372,7.3372,7.3372,7.3372,7.3372,7.3372,7.3372,7.3372,7.3372,7.3372,7.3372,7.3372,7.3372,7.3372,7.3372,7.3372,7.3372,7.3372,7.3372,7.3372,7.3372,7.3372,7.3372,7.3372,7.3372,7.3372,7.3372,7.3372,7.3372,7.3372,7.3372,7.3372,7.3372,7.3372,7.3372,7.3372,7.3372,7.3372,7.3372,7.3372,7.3372,7.3372,7.3372,7.341,7.3484,7.341,7.3372,7.3484,7.3632,7.3722,7.3722,7.3573,7.3484,7.3372,7.3372,7.3372,7.3372,7.3372,7.3372,7.3372,7.3372,7.3372,7.3372,7.3372,7.3372,7.3372,7.3372,7.3372,7.3372,7.3372,7.3372,7.3372,7.3372,7.3372,7.3372,7.3372,7.3372,7.3372,7.3372,7.3372,7.3372,7.3372,7.3372,7.3372,7.3372,7.3372,7.3372,7.3372,7.3372,7.3372,7.3372,7.3372,7.3372,7.3372,7.3372,7.3372,7.3372,7.3372,7.3372,7.3372,7.3372,7.3372,7.3372,7.3372,7.3372,7.3372,7.3372,7.3372,7.3372,7.3372,7.3372,7.3372,7.3372,7.3372,7.3372,7.3372,7.3372,7.3372,7.3372,7.3372,7.3372,7.3372,7.3372,7.3372,7.3372,7.3372,7.3372,7.3372,7.3372,7.3372,7.3372,7.3372,7.3372,7.3372,7.3372,7.3372,7.341,7.3632,7.3521,7.3647,7.3647,7.3818,7.3818,7.3595,7.3558,7.341,7.341,7.3372,7.3372,7.3372,7.3372,7.3447,7.3372,7.3372,7.3372,7.3372,7.3372,7.341,7.3521,7.3595,7.367,7.3855,7.4078,7.4205,7.4131,7.4056,7.4056,7.4115,7.3372,7.3372,7.3372,7.3372,7.3372,7.3372,7.3372,7.3372,7.3372,7.3372,7.3372,7.3372,7.3372,7.3372,7.3372,7.3372,7.3372,7.3372,7.3372,7.3372,7.3372,7.3372,7.3372,7.3372,7.3372,7.3372,7.3372,7.3372,7.3372,7.3372,7.3372,7.3372,7.3372,7.3372,7.3372,7.3372,7.3372,7.3372,7.3372,7.3372,7.3372,7.3372,7.3372,7.3372,7.3372,7.3372,7.3372,7.3372,7.3372,7.3372,7.3372,7.3372,7.3372,7.3372,7.3372,7.3372,7.3372,7.3372,7.3372,7.3372,7.3372,7.3372,7.3372,7.3372,7.3372,7.3372,7.3372,7.3372,7.3372,7.3372,7.3372,7.3372,7.3372,7.3372,7.3372,7.3372,7.3372,7.3372,7.3372,7.3447,7.3447,7.3484,7.3484,7.3632,7.3781,7.4019,7.4257,7.448,7.4911,7.5023,7.4316,7.4131,7.3595,7.3484,7.3558,7.3744,7.393,7.3781,7.3818,7.3632,7.3484,7.3707,7.393,7.3521,7.341,7.3855,7.4227,7.4301,7.4487,7.471,7.4896,7.4948,7.5224,7.5261,7.5283,7.3372,7.3372,7.3372,7.3372,7.3372,7.3372,7.3372,7.3372,7.3372,7.3372,7.3372,7.3372,7.3372,7.3372,7.3372,7.3372,7.3372,7.3372,7.3372,7.3372,7.3372,7.3372,7.3372,7.3372,7.3372,7.3372,7.3372,7.3372,7.3372,7.3372,7.3372,7.3372,7.3372,7.3372,7.3372,7.3372,7.3372,7.3372,7.3372,7.3372,7.3372,7.3372,7.3372,7.3372,7.3372,7.3372,7.3372,7.3372,7.3372,7.3372,7.3372,7.3372,7.3372,7.3372,7.3372,7.3372,7.3372,7.3372,7.3372,7.3372,7.3372,7.3372,7.3372,7.3372,7.3372,7.3372,7.3372,7.3372,7.3372,7.3372,7.3372,7.3372,7.3372,7.3372,7.3372,7.3372,7.3372,7.3372,7.367,7.4078,7.4153,7.4338,7.445,7.4784,7.4896,7.4933,7.5097,7.5134,7.5655,7.6138,7.5432,7.4948,7.4598,7.445,7.471,7.4784,7.4784,7.4561,7.4264,7.4502,7.4703,7.4614,7.4487,7.4301,7.4375,7.471,7.5007,7.5118,7.5156,7.5341,7.5564,7.5804,7.6064,7.6378,7.6473,7.3372,7.3372,7.3372,7.3372,7.3372,7.3372,7.3372,7.3372,7.3372,7.3372,7.3372,7.3372,7.3372,7.3372,7.3372,7.3372,7.3372,7.3372,7.3372,7.3372,7.3372,7.3372,7.3372,7.3372,7.3372,7.3372,7.3372,7.3372,7.3372,7.3372,7.3372,7.3372,7.3372,7.3372,7.3372,7.3372,7.3372,7.3372,7.3372,7.3372,7.3372,7.3372,7.3372,7.3372,7.3372,7.3372,7.3372,7.3372,7.3372,7.3372,7.3372,7.3372,7.3372,7.3372,7.3372,7.3372,7.3372,7.3372,7.3372,7.3372,7.3372,7.3372,7.3372,7.3372,7.3372,7.3372,7.3372,7.3372,7.3372,7.3372,7.3372,7.3372,7.3372,7.3447,7.3447,7.3558,7.3558,7.3595,7.4078,7.4635,7.4896,7.5118,7.5378,7.5713,7.5861,7.5899,7.5973,7.6047,7.6196,7.6642,7.6604,7.6344,7.6233,7.6121,7.5824,7.5639,7.5453,7.5341,7.5118,7.5559,7.5708,7.5357,7.523,7.5469,7.558,7.5601,7.5824,7.5973,7.601,7.6159,7.653,7.6882,7.6993,7.7291,7.7588,7.3372,7.3372,7.3372,7.3372,7.3372,7.3372,7.3372,7.3372,7.3372,7.3372,7.3372,7.3372,7.3372,7.3372,7.3372,7.3372,7.3372,7.3372,7.3372,7.3372,7.3372,7.3372,7.3372,7.3372,7.3372,7.3372,7.3372,7.3372,7.3372,7.3372,7.3372,7.3372,7.3372,7.3372,7.3372,7.3372,7.3372,7.3372,7.3372,7.3372,7.3372,7.3372,7.3372,7.3372,7.3372,7.3372,7.3372,7.3372,7.3372,7.3372,7.3372,7.3372,7.3372,7.3372,7.3372,7.3372,7.3372,7.3372,7.3372,7.3372,7.3372,7.3372,7.3372,7.3372,7.3372,7.3372,7.3372,7.3372,7.3372,7.3372,7.3372,7.3372,7.341,7.3558,7.3595,7.4004,7.4227,7.4413,7.4747,7.523,7.5639,7.5787,7.5936,7.6196,7.6419,7.653,7.679,7.6902,7.731,7.7533,7.7719,7.7719,7.7682,7.679,7.6084,7.6121,7.601,7.5936,7.5973,7.6287,7.625,7.5878,7.5824,7.6324,7.6233,7.6196,7.6419,7.6827,7.7125,7.731,7.7719,7.7979,7.8071,7.7997,7.8016]},{"header":{"parameterUnit":"m.s-1","parameterCategory":1,"la1":31.0,"la2":29.5877,"lo1":-88.7671,"lo2":-86.6584,"dy":0.0162,"dx":0.0185,"nx":115,"ny":88,"refTime":"2024-02-14T18:00:00:Z","depth":0,"parameterNumber":3,"parameterNumberName":"V-component_of_WINDS"},"data":[0.0,0.0,0.0,0.0,0.0,0.0,0.0,0.0,0.0,0.0,0.0,0.0,0.0,0.0,0.0,0.0,0.0,0.0,0.0,0.0,0.0,0.0,0.0,0.0,0.0,0.0,0.0,0.0,0.0,0.0,0.0,0.0,0.0,0.0,0.0,0.0,0.0,0.0,0.0,0.0,0.0,0.0,0.0,0.0,0.0,0.0,0.0,0.0,0.0,0.0,0.0,0.0,0.0,0.0,0.0,0.0,0.0,0.0,0.0,0.0,0.0,0.0,0.0,0.0,0.0,0.0,0.0,0.0,0.0,0.0,0.0,0.0,0.0,0.0,0.0,0.0,0.0,0.0,0.0,0.0,0.0,0.0,0.0,0.0,0.0,0.0,0.0,0.0,0.0,0.0,0.0,0.0,0.0,0.0,0.0,0.0,0.0,0.0,0.0,0.0,0.0,0.0,0.0,0.0,0.0,0.0,0.0,0.0,0.0,0.0,0.0,0.0,0.0,0.0,0.0,0.0,0.0,0.0,0.0,0.0,0.0,0.0,0.0,0.0,0.0,0.0,0.0,0.0,0.0,0.0,0.0,0.0,0.0,0.0,0.0,0.0,0.0,0.0,0.0,0.0,0.0,0.0,0.0,0.0,0.0,0.0,0.0,0.0,0.0,0.0,0.0,0.0,0.0,0.0,0.0,0.0,0.0,0.0,0.0,0.0,0.0,0.0,0.0,0.0,0.0,0.0,0.0,0.0,0.0,0.0,0.0,0.0,0.0,0.0,0.0,0.0,0.0,0.0,0.0,0.0,0.0,0.0,0.0,0.0,0.0,0.0,0.0,0.0,0.0,0.0,0.0,0.0,0.0,0.0,0.0,0.0,0.0,0.0,0.0,0.0,0.0,0.0,0.0,0.0,0.0,0.0,0.0,0.0,0.0,0.0,0.0,0.0,0.0,0.0,0.0,0.0,0.0,0.0,0.0,0.0,0.0,0.0,0.0,0.0,0.0,0.0,0.0,0.0,0.0,0.0,0.0,0.0,0.0,0.0,0.0,0.0,0.0,0.0,0.0,0.0,0.0,0.0,0.0,0.0,0.0,0.0,0.0,0.0,0.0,0.0,0.0,0.0,0.0,0.0,0.0,0.0,0.0,0.0,0.0,0.0,0.0,0.0,0.0,0.0,0.0,0.0,0.0,0.0,0.0,0.0,0.0,0.0,0.0,0.0,0.0,0.0,0.0,0.0,0.0,0.0,0.0,0.0,0.0,0.0,0.0,0.0,0.0,0.0,0.0,0.0,0.0,0.0,0.0,0.0,0.0,0.0,0.0,0.0,0.0,0.0,0.0,0.0,0.0,0.0,0.0,0.0,0.0,0.0,0.0,0.0,0.0,0.0,0.0,0.0,0.0,0.0,0.0,0.0,0.0,0.0,0.0,0.0,0.0,0.0,0.0,0.0,0.0,0.0,0.0,0.0,0.0,0.0,0.0,0.0,0.0,0.0,0.0,0.0,0.0,0.0,0.0,0.0,0.0,0.0,0.0,0.0,0.0,0.0,0.0,0.0,0.0,0.0,0.0,0.0,0.0,0.0,0.0,0.0,0.0,0.0,0.0,0.0,0.0,0.0,0.0,0.0,0.0,0.0,0.0,0.0,0.0,0.0,0.0,0.0,0.0,0.0,0.0,0.0,0.0,0.0,0.0,0.0,0.0,0.0,0.0,0.0,0.0,0.0,0.0,0.0,0.0,0.0,0.0,0.0,0.0,0.0,0.0,0.0,0.0,0.0,0.0,0.0,0.0,0.0,0.0,0.0,0.0,0.0,0.0,0.0,0.0,0.0,0.0,0.0,0.0,0.0,0.0,0.0,0.0,0.0,0.0,0.0,0.0,0.0,0.0,0.0,0.0,0.0,0.0,0.0,0.0,0.0,0.0,0.0,0.0,0.0,0.0,0.0,0.0,0.0,0.0,0.0,0.0,0.0,0.0,0.0,0.0,0.0,0.0,0.0,0.0,0.0,0.0,0.0,0.0,0.0,0.0,0.0,0.0,0.0,0.0,0.0,0.0,0.0,0.0,0.0,0.0,0.0,0.0,0.0,0.0,0.0,0.0,0.0,0.0,0.0,0.0,0.0,0.0,0.0,0.0,0.0,0.0,0.0,0.0,0.0,0.0,0.0,0.0,0.0,0.0,0.0,0.0,0.0,0.0,0.0,0.0,0.0,0.0,0.0,0.0,0.0,0.0,0.0,0.0,0.0,0.0,0.0,0.0,0.0,0.0,0.0,0.0,0.0,0.0,0.0,0.0,0.0,0.0,0.0,0.0,0.0,0.0,0.0,0.0,0.0,0.0,0.0,0.0,0.0,0.0,0.0,0.0,0.0,0.0,0.0,0.0,0.0,0.0,0.0,0.0,0.0,0.0,0.0,0.0,0.0,0.0,0.0,0.0,0.0,0.0,0.0,0.0,0.0,0.0,0.0,0.0,0.0,0.0,0.0,0.0,0.0,0.0,0.0,0.0,0.0,0.0,0.0,0.0,0.0,0.0,0.0,0.0,0.0,0.0,0.0,0.0,0.0,0.0,0.0,0.0,0.0,0.0,0.0,0.0,0.0,0.0,0.0,0.0,0.0,0.0,0.0,0.0,0.0,0.0,0.0,0.0,0.0,0.0,0.0,0.0,0.0,0.0,0.0,0.0,0.0,0.0,0.0,0.0,0.0,0.0,0.0,0.0,0.0,0.0,0.0,0.0,0.0,0.0,0.0,0.0,0.0,0.0,0.0,0.0,0.0,0.0,0.0,0.0,0.0,0.0,0.0,0.0,0.0,0.0,0.0,0.0,0.0,0.0,0.0,0.0,0.0,0.0,0.0,0.0,0.0,0.0,0.0,0.0,0.0,0.0,0.0,0.0,0.0,0.0,0.0,0.0,0.0,0.0,0.0,0.0,0.0,0.0,0.0,0.0,0.0,0.0,0.0,0.0,0.0,0.0,0.0,0.0,0.0,0.0,0.0,0.0,0.0,0.0,0.0,0.0,0.0,0.0,0.0,0.0,0.0,0.0,0.0,0.0,0.0,0.0,0.0,0.0,0.0,0.0,0.0,0.0,0.0,0.0,0.0,0.0,0.0,0.0,0.0,0.0,0.0,0.0,0.0,0.0,0.0,0.0,0.0,0.0,0.0,0.0,0.0,0.0,0.0,0.0,0.0,0.0,0.0,0.0,0.0,0.0,0.0,0.0,0.0,0.0,0.0,0.0,0.0,0.0,0.0,0.0,0.0,0.0,0.0,0.0,0.0,0.0,0.0,0.0,0.0,0.0,0.0,0.0,0.0,0.0,0.0,0.0,0.0,0.0,0.0,0.0,0.0,0.0,0.0,0.0,0.0,0.0,0.0,0.0,0.0,0.0,0.0,0.0,0.0,0.0,0.0,0.0,0.0,0.0,0.0,0.0,0.0,0.0,0.0,0.0,0.0,0.0,0.0,0.0,0.0,0.0,0.0,0.0,0.0,0.0,0.0,0.0,0.0,0.0,0.0,0.0,0.0,0.0,0.0,0.0,0.0,0.0,0.0,0.0,0.0,0.0,0.0,0.0,0.0,0.0,0.0,0.0,0.0,0.0,0.0,0.0,0.0,0.0,0.0,0.0,0.0,0.0,0.0,0.0,0.0,0.0,0.0,0.0,0.0,0.0,0.0,0.0,0.0,0.0,0.0,0.0,0.0,0.0,0.0,0.0,0.0,0.0,0.0,0.0,0.0,0.0,0.0,0.0,0.0,0.0,0.0,0.0,0.0,0.0,0.0,0.0,0.0,0.0,0.0,0.0,0.0,0.0,0.0,0.0,0.0,0.0,0.0,0.0,0.0,0.0,0.0,0.0,0.0,0.0,0.0,0.0,0.0,0.0,0.0,0.0,0.0,0.0,0.0,0.0,0.0,0.0,0.0,0.0,0.0,0.0,0.0,0.0,0.0,0.0,0.0,0.0,0.0,0.0,0.0,0.0,0.0,0.0,0.0,0.0,0.0,0.0,0.0,0.0,0.0,0.0,0.0,0.0,0.0,0.0,0.0,0.0,0.0,0.0,0.0,0.0,0.0,0.0,0.0,0.0,0.0,0.0,0.0,0.0,0.0,0.0,0.0,0.0,0.0,0.0,0.0,0.0,0.0,0.0,0.0,0.0,0.0,0.0,0.0,0.0,0.0,0.0,0.0,0.0,0.0,0.0,0.0,0.0,0.0,0.0,0.0,0.0,0.0,0.0,0.0,0.0,0.0,0.0,0.0,0.0,0.0,0.0,0.0,-0.1617,0.0,0.0,0.0,0.0,0.0,0.0,0.0,0.0,0.0,0.0,0.0,0.0,0.0,0.0,0.0,0.0,0.0,0.0,0.0,0.0,0.0,0.0,0.0,0.0,0.0,0.0,0.0,0.0,0.0,0.0,0.0,0.0,0.0,0.0,0.0,0.0,0.0,0.0,0.0,0.0,0.0,0.0,0.0,0.0,0.0,0.0,0.0,0.0,0.0,0.0,0.0,0.0,0.0,0.0,0.0,0.0,0.0,0.0,0.0,0.0,0.0,0.0,0.0,0.0,0.0,0.0,0.0,0.0,0.0,0.0,0.0,0.0,0.0,0.0,0.0,0.0,0.0,0.0,0.0,0.0,0.0,0.0,0.0,0.0,0.0,0.0,0.0,0.0,0.0,0.0,0.0,0.0,0.0,0.0,0.0,0.0,0.0,0.0,0.0,0.0,0.0,0.0,0.0,0.0,0.0,0.0,0.0,0.0,0.0,0.0,-0.1415,-0.1617,-0.1617,-0.1617,-0.1617,0.0,0.0,0.0,0.0,0.0,0.0,0.0,0.0,0.0,0.0,0.0,0.0,0.0,0.0,0.0,0.0,0.0,0.0,0.0,0.0,0.0,0.0,0.0,0.0,0.0,0.0,0.0,0.0,0.0,0.0,0.0,0.0,0.0,0.0,0.0,0.0,0.0,0.0,0.0,0.0,0.0,0.0,0.0,0.0,0.0,0.0,0.0,0.0,0.0,0.0,0.0,0.0,0.0,0.0,0.0,0.0,0.0,0.0,0.0,0.0,0.0,0.0,0.0,0.0,0.0,0.0,0.0,0.0,0.0,0.0,0.0,0.0,0.0,0.0,0.0,0.0,0.0,0.0,0.0,0.0,0.0,0.0,0.0,0.0,0.0,0.0,0.0,0.0,0.0,0.0,0.0,0.0,0.0,0.0,0.0,0.0,0.0,0.0,0.0,0.0,0.0,0.0,0.0,0.0,0.0,0.0,0.0,0.0,0.0,0.0,0.0,0.0,-0.1617,-0.1617,-0.1617,0.0,0.0,0.0,0.0,0.0,0.0,0.0,0.0,0.0,0.0,0.0,0.0,0.0,0.0,0.0,0.0,0.0,0.0,0.0,0.0,0.0,0.0,0.0,0.0,0.0,0.0,0.0,0.0,0.0,0.0,0.0,0.0,0.0,0.0,0.0,0.0,0.0,0.0,0.0,0.0,0.0,0.0,0.0,0.0,0.0,0.0,0.0,0.0,0.0,0.0,0.0,0.0,0.0,0.0,0.0,0.0,0.0,0.0,0.0,0.0,0.0,0.0,0.0,0.0,0.0,0.0,0.0,0.0,0.0,0.0,0.0,0.0,0.0,0.0,0.0,0.0,0.0,0.0,0.0,0.0,0.0,0.0,0.0,0.0,0.0,0.0,0.0,0.0,0.0,0.0,0.0,0.0,0.0,0.0,0.0,0.0,0.0,0.0,0.0,0.0,0.0,0.0,0.0,0.0,0.0,0.0,0.0,0.0,0.0,0.0,-0.1112,-0.1617,-0.1617,0.0,-0.1617,0.0,0.0,0.0,0.0,0.0,0.0,0.0,0.0,0.0,0.0,0.0,0.0,0.0,0.0,0.0,0.0,0.0,0.0,0.0,0.0,0.0,0.0,0.0,0.0,0.0,0.0,0.0,0.0,0.0,0.0,0.0,0.0,0.0,0.0,0.0,0.0,0.0,0.0,0.0,0.0,0.0,0.0,0.0,0.0,0.0,0.0,0.0,0.0,0.0,0.0,0.0,0.0,0.0,0.0,0.0,0.0,0.0,0.0,0.0,0.0,0.0,0.0,0.0,0.0,0.0,0.0,0.0,0.0,0.0,0.0,0.0,0.0,0.0,0.0,0.0,0.0,0.0,0.0,0.0,0.0,0.0,0.0,0.0,0.0,0.0,0.0,0.0,0.0,0.0,0.0,0.0,0.0,0.0,0.0,0.0,0.0,0.0,0.0,0.0,0.0,0.0,0.0,0.0,0.0,0.0,0.0,0.0,0.0,0.0,0.0,-0.1112,-0.1617,-0.1617,-0.1617,0.0,0.0,0.0,0.0,0.0,0.0,0.0,0.0,0.0,0.0,0.0,0.0,0.0,0.0,0.0,0.0,0.0,0.0,0.0,0.0,0.0,0.0,0.0,0.0,0.0,0.0,0.0,0.0,0.0,0.0,0.0,0.0,0.0,0.0,0.0,0.0,0.0,0.0,0.0,0.0,0.0,0.0,0.0,0.0,0.0,0.0,0.0,0.0,0.0,0.0,0.0,0.0,0.0,0.0,0.0,0.0,0.0,0.0,0.0,0.0,0.0,0.0,0.0,0.0,0.0,0.0,0.0,0.0,0.0,0.0,0.0,0.0,0.0,0.0,0.0,0.0,0.0,0.0,0.0,0.0,0.0,0.0,0.0,0.0,0.0,0.0,0.0,0.0,0.0,0.0,0.0,0.0,0.0,0.0,0.0,0.0,0.0,0.0,0.0,0.0,0.0,0.0,0.0,0.0,0.0,0.0,0.0,0.0,0.0,0.0,-0.1213,-0.1213,-0.1617,-0.1617,-0.1516,-0.1415,0.0,0.0,0.0,0.0,0.0,0.0,0.0,0.0,0.0,0.0,0.0,0.0,0.0,0.0,0.0,0.0,0.0,0.0,0.0,0.0,0.0,0.0,0.0,0.0,0.0,0.0,0.0,0.0,0.0,0.0,0.0,0.0,0.0,0.0,0.0,0.0,0.0,0.0,0.0,0.0,0.0,0.0,0.0,0.0,0.0,0.0,0.0,0.0,0.0,0.0,0.0,0.0,0.0,0.0,0.0,0.0,0.0,0.0,0.0,0.0,0.0,0.0,0.0,0.0,0.0,0.0,0.0,0.0,0.0,0.0,0.0,0.0,0.0,0.0,0.0,0.0,0.0,0.0,0.0,0.0,0.0,0.0,0.0,0.0,0.0,0.0,0.0,0.0,0.0,0.0,0.0,0.0,0.0,0.0,0.0,0.0,0.0,0.0,0.0,0.0,0.0,0.0,0.0,0.0,0.0,0.0,0.0,0.0,-0.1617,-0.1516,-0.1516,-0.1617,-0.1617,-0.1314,0.0,0.0,0.0,0.0,0.0,0.0,0.0,0.0,0.0,0.0,0.0,0.0,0.0,0.0,0.0,0.0,0.0,0.0,0.0,0.0,0.0,0.0,0.0,0.0,0.0,0.0,0.0,0.0,0.0,0.0,0.0,0.0,0.0,0.0,0.0,0.0,0.0,0.0,0.0,0.0,0.0,0.0,0.0,0.0,0.0,0.0,0.0,0.0,0.0,0.0,0.0,0.0,0.0,0.0,0.0,0.0,0.0,0.0,0.0,0.0,0.0,0.0,0.0,0.0,0.0,0.0,0.0,0.0,0.0,0.0,0.0,0.0,0.0,0.0,0.0,0.0,0.0,0.0,0.0,0.0,0.0,0.0,0.0,0.0,0.0,0.0,0.0,0.0,0.0,0.0,0.0,0.0,0.0,0.0,0.0,0.0,0.0,0.0,0.0,0.0,0.0,0.0,0.0,0.0,0.0,0.0,0.0,0.0,0.0,-0.1112,-0.1415,-0.1617,-0.1617,-0.1617,-0.1314,0.0,0.0,0.0,0.0,0.0,0.0,0.0,0.0,0.0,0.0,0.0,0.0,0.0,0.0,0.0,0.0,0.0,0.0,0.0,0.0,0.0,0.0,0.0,0.0,0.0,0.0,0.0,0.0,0.0,0.0,0.0,0.0,0.0,0.0,0.0,0.0,0.0,0.0,0.0,0.0,0.0,0.0,0.0,0.0,0.0,0.0,0.0,0.0,0.0,0.0,0.0,0.0,0.0,0.0,0.0,0.0,0.0,0.0,0.0,0.0,0.0,0.0,0.0,0.0,0.0,0.0,0.0,0.0,0.0,0.0,0.0,0.0,0.0,0.0,0.0,0.0,0.0,0.0,0.0,0.0,0.0,0.0,0.0,0.0,0.0,0.0,0.0,0.0,0.0,0.0,0.0,0.0,0.0,0.0,0.0,0.0,0.0,0.0,0.0,0.0,0.0,0.0,0.0,0.0,0.0,0.0,0.0,0.0,0.0,-0.1121,0.0,-0.1632,-0.1632,-0.1632,-0.1423,0.0,0.0,0.0,0.0,0.0,0.0,0.0,0.0,0.0,0.0,0.0,0.0,0.0,0.0,0.0,0.0,0.0,0.0,0.0,0.0,0.0,0.0,0.0,0.0,0.0,0.0,0.0,0.0,0.0,0.0,0.0,0.0,0.0,0.0,0.0,0.0,0.0,0.0,0.0,0.0,0.0,0.0,0.0,0.0,0.0,0.0,0.0,0.0,0.0,0.0,0.0,0.0,0.0,0.0,0.0,0.0,0.0,0.0,0.0,0.0,0.0,0.0,0.0,0.0,0.0,0.0,0.0,0.0,0.0,0.0,0.0,0.0,0.0,0.0,0.0,0.0,0.0,0.0,0.0,0.0,0.0,0.0,0.0,0.0,0.0,0.0,0.0,0.0,0.0,0.0,0.0,0.0,0.0,0.0,0.0,0.0,0.0,0.0,0.0,0.0,0.0,0.0,0.0,0.0,0.0,0.0,0.0,0.0,-0.051,-0.1557,-0.1662,-0.1663,-0.1662,-0.1662,-0.1544,0.0,0.0,0.0,0.0,0.0,0.0,0.0,0.0,0.0,0.0,0.0,0.0,0.0,0.0,0.0,0.0,0.0,0.0,0.0,0.0,0.0,0.0,0.0,0.0,0.0,0.0,0.0,0.0,0.0,0.0,0.0,0.0,0.0,0.0,0.0,0.0,0.0,0.0,0.0,0.0,0.0,0.0,0.0,0.0,0.0,0.0,0.0,0.0,0.0,0.0,0.0,0.0,0.0,0.0,0.0,0.0,0.0,0.0,0.0,0.0,0.0,0.0,0.0,0.0,0.0,0.0,0.0,0.0,0.0,0.0,0.0,0.0,0.0,0.0,0.0,0.0,0.0,0.0,0.0,0.0,0.0,0.0,0.0,0.0,0.0,0.0,0.0,0.0,0.0,0.0,0.0,0.0,0.0,0.0,0.0,0.0,0.0,0.0,0.0,0.0,0.0,0.0,0.0,0.0,0.0,0.0,0.0,0.0,0.0,-0.0519,-0.1262,-0.1693,-0.1693,-0.1673,-0.1554,0.0,0.0,0.0,0.0,0.0,0.0,0.0,0.0,0.0,0.0,0.0,0.0,0.0,0.0,0.0,0.0,0.0,0.0,0.0,0.0,0.0,0.0,0.0,0.0,0.0,0.0,0.0,0.0,0.0,0.0,0.0,0.0,0.0,0.0,0.0,0.0,0.0,0.0,0.0,0.0,0.0,0.0,0.0,0.0,0.0,0.0,0.0,0.0,0.0,0.0,0.0,0.0,0.0,0.0,0.0,0.0,0.0,0.0,0.0,0.0,0.0,0.0,0.0,0.0,0.0,0.0,0.0,0.0,0.0,0.0,0.0,0.0,0.0,0.0,0.0,0.0,0.0,0.0,0.0,0.0,0.0,0.0,0.0,0.0,0.0,0.0,0.0,0.0,0.0,0.0,0.0,0.0,0.0,0.0,0.0,0.0,0.0,0.0,0.0,0.0,0.0,0.0,0.0,0.0,0.0,0.0,0.0,0.0,0.0,-0.0,-0.0649,-0.1305,-0.174,-0.1722,-0.1272,-0.0416,0.0,0.0,0.0,0.0,0.0,0.0,0.0,0.0,0.0,0.0,0.0,0.0,0.0,0.0,0.0,0.0,0.0,0.0,0.0,0.0,0.0,0.0,0.0,0.0,0.0,0.0,0.0,0.0,0.0,0.0,0.0,0.0,0.0,0.0,0.0,0.0,0.0,0.0,0.0,0.0,0.0,0.0,0.0,0.0,0.0,0.0,0.0,0.0,0.0,0.0,0.0,0.0,0.0,0.0,0.0,0.0,0.0,0.0,0.0,0.0,0.0,0.0,0.0,0.0,0.0,0.0,0.0,0.0,0.0,0.0,0.0,0.0,0.0,0.0,0.0,0.0,0.0,0.0,0.0,0.0,0.0,0.0,0.0,0.0,0.0,0.0,0.0,0.0,0.0,0.0,0.0,0.0,0.0,0.0,0.0,0.0,0.0,0.0,0.0,0.0,0.0,0.0,0.0,0.0,0.0,0.0,0.0,0.0,0.0113,0.0,-0.0564,-0.1687,-0.1571,-0.0548,0.0,0.0,0.0,0.0,0.0,0.0,0.0,0.0,0.0,0.0,0.0,0.0,0.0,0.0,0.0,0.0,0.0,0.0,0.0,0.0,0.0,0.0,0.0,0.0,0.0,0.0,0.0,0.0,0.0,0.0,0.0,0.0,0.0,0.0,0.0,0.0,0.0,0.0,0.0,0.0,0.0,0.0,0.0,0.0,0.0,0.0,0.0,0.0,0.0,0.0,0.0,0.0,0.0,0.0,0.0,0.0,0.0,0.0,0.0,0.0,0.0,0.0,0.0,0.0,0.0,0.0,0.0,0.0,0.0,0.0,0.0,0.0,0.0,0.0,0.0,0.0,0.0,0.0,0.0,0.0,0.0,0.0,0.0,0.0,0.0,0.0,0.0,0.0,0.0,0.0,0.0,0.0,0.0,0.0,0.0,0.0,0.0,0.0,0.0,0.0,0.0,0.0,0.0,0.0,0.0,0.0,0.0,0.0,0.0,0.071,0.024,-0.0119,-0.0466,0.0341,0.1109,0.0,0.0,0.0,0.0,0.0,0.0,0.0,0.0,0.0,0.0,0.0,0.0,0.0,0.0,0.0,0.0,0.0,0.0,0.0,0.0,0.0,0.0,0.0,0.0,0.0,0.0,0.0,0.0,0.0,0.0,0.0,0.0,0.0,0.0,0.0,0.0,0.0,0.0,0.0,0.0,0.0,0.0,0.0,0.0,0.0,0.0,0.0,0.0,0.0,0.0,0.0,0.0,0.0,0.0,0.0,0.0,0.0,0.0,0.0,0.0,0.0,0.0,0.0,0.0,0.0,0.0,0.0,0.0,0.0,0.0,0.0,0.0,0.0,0.0,0.0,0.0,0.0,0.0,0.0,0.0,0.0,0.0,0.0,0.0,0.0,0.0,0.0,0.0,0.0,0.0,0.0,0.0,0.0,0.0,0.0,0.0,0.0,0.0,0.0,0.0,0.0,0.0,0.0,0.0,0.0,0.0,0.0,0.0,0.1652,0.0956,-0.0247,-0.0622,-0.0,0.1169,0.1926,0.0,0.0,0.0,0.0,0.0,0.0,0.0,0.0,0.0,0.0,0.0,0.0,0.0,0.0,0.0,0.0,0.0,0.0,0.0,0.0,0.0,0.0,0.0,0.0,0.0,0.0,0.0,0.0,0.0,0.0,0.0,0.0,0.0,0.0,0.0,0.0,0.0,0.0,0.0,0.0,0.0,0.0,0.0,0.0,0.0,0.0,0.0,0.0,0.0,0.0,0.0,0.0,0.0,0.0,0.0,0.0,0.0,0.0,0.0,0.0,0.0,0.0,0.0,0.0,0.0,0.0,0.0,0.0,0.0,0.0,0.0,0.0,0.0,0.0,0.0,0.0,0.0,0.0,0.0,0.0,0.0,0.0,0.0,0.0,0.0,0.0,0.0,0.0,0.0,0.0,0.0,0.0,0.0,0.0,0.0,0.0,0.0,0.0,0.0,0.0,0.0,0.0,0.0,0.0,0.0,0.0,0.0,0.0,0.2044,0.1072,-0.1005,-0.1414,-0.0254,0.0968,0.1977,0.0,0.0,0.0,0.0,0.0,0.0,0.0,0.0,0.0,0.0,0.0,0.0,0.0,0.0,0.0,0.0,0.0,0.0,0.0,0.0,0.0,0.0,0.0,0.0,0.0,0.0,0.0,0.0,0.0,0.0,0.0,0.0,0.0,0.0,0.0,0.0,0.0,0.0,0.0,0.0,0.0,0.0,0.0,0.0,0.0,0.0,0.0,0.0,0.0,0.0,0.0,0.0,0.0,0.0,0.0,0.0,0.0,0.0,0.0,0.0,0.0,0.0,0.0,0.0,0.0,0.0,0.0,0.0,0.0,0.0,0.0,0.0,0.0,0.0,0.0,0.0,0.0,0.0,0.0,0.0,0.0,0.0,0.0,0.0,0.0,0.0,0.0,0.0,0.0,0.0,0.0,0.0,0.0,0.0,0.0,0.0,0.0,0.0,0.0,0.0,0.0,0.0,0.0,0.0,0.0,0.0,0.0,0.0,0.2357,0.1647,-0.077,-0.1945,-0.1698,-0.0122,0.1409,0.0,0.0,0.0,0.0,0.0,0.0,0.0,0.0,0.0,0.0,0.0,0.0,0.0,0.0,0.0,0.0,0.0,0.0,0.0,0.0,0.0,0.0,0.0,0.0,0.0,0.0,0.0,0.0,0.0,0.0,0.0,0.0,0.0,0.0,0.0,0.0,0.0,0.0,0.0,0.0,0.0,0.0,0.0,0.0,0.0,0.0,0.0,0.0,0.5298,0.0,0.0,0.0,0.0,0.0,0.0,0.0,0.0,0.0,0.0,0.0,0.0,0.0,0.0,0.0,0.0,0.0,0.0,0.0,0.0,0.0,0.0,0.0,0.0,0.0,0.0,0.0,0.0,0.0,0.0,0.0,0.0,0.0,0.0,0.0,0.0,0.0,0.0,0.0,0.0,0.0,0.0,0.0,0.0,0.0,0.0,0.0,0.0,0.0,0.0,0.0,0.0,0.0,0.0,0.0,0.0,0.0,0.0,0.0,0.2122,0.1788,-0.0129,-0.144,-0.2105,-0.1253,0.0242,0.0,0.0,0.0,0.0,0.0,0.0,0.0,0.0,0.0,0.0,0.0,0.0,0.0,0.0,0.0,0.0,0.0,0.0,0.0,0.0,0.0,0.0,0.0,0.0,0.0,0.0,0.0,0.0,0.0,0.0,0.0,0.0,0.0,0.0,0.0,0.0,0.0,0.0,0.0,0.0,0.0,0.0,0.0,0.0,0.0,0.0,0.0,0.0,0.0,0.0,0.0,0.0,0.0,0.0,0.0,0.0,0.0,0.0,0.0,0.0,0.0,0.0,0.0,0.0,0.0,0.0,0.0,0.0,0.0,0.0,0.0,0.0,0.0,0.0,0.0,0.0,0.0,0.0,0.0,0.0,0.0,0.0,0.0,0.0,0.0,0.0,0.0,0.0,0.0,0.0,0.0,0.0,0.0,0.0,0.0,0.0,0.0,0.0,0.0,0.0,0.0,0.0,0.0,0.0,0.0,0.0,0.0,0.2537,0.1746,0.1531,0.0521,-0.066,-0.2114,-0.1925,-0.0623,0.1451,0.0,0.0,0.0,0.0,0.0,0.0,0.0,0.0,0.0,0.0,0.0,0.0,0.0,0.0,0.0,0.0,0.0,0.0,0.0,0.0,0.0,0.0,0.0,0.0,0.0,0.0,0.0,0.0,0.0,0.0,0.0,0.0,0.0,0.0,0.0,0.0,0.0,0.0,0.3137,0.3203,0.0,0.0,0.0,0.0,0.0,0.0,0.0,0.0,0.6398,0.0,0.0,0.0,0.0,0.0,0.0,0.0,0.0,0.0,0.0,0.0,0.0,0.0,0.0,0.0,0.0,0.0,0.0,0.0,0.0,0.0,0.0,0.0,0.0,0.0,0.0,0.0,0.0,0.0,0.0,0.0,0.0,0.0,0.0,0.0,0.0,0.0,0.0,0.0,0.0,0.0,0.0,0.0,0.0,0.0,0.0,0.0,0.0,0.0,0.0,0.0,0.0,0.0,0.0,0.0,0.0,0.4187,0.2564,0.1265,0.0266,0.0132,-0.0663,-0.2144,-0.0645,0.0375,0.0613,0.0,0.0,0.0,0.0,0.0,0.0,0.0,0.0,0.0,0.0,0.0,0.0,0.0,0.0,0.0,0.0,0.0,0.0,0.0,0.0,0.0,0.0,0.0,0.0,0.0,0.0,0.0,0.0,0.0,0.0,0.0,0.0,0.0,0.0,0.0,0.0,0.0,0.0,0.0,0.5119,0.556,0.0,0.0,0.0,0.0,0.0,0.0,0.0,0.0,0.7269,0.0,0.0,0.0,0.0,0.0,0.0,0.0,0.0,0.0,0.0,0.0,0.0,0.0,0.0,0.0,0.0,0.0,0.0,0.0,0.0,0.0,0.0,0.0,0.0,0.0,0.0,0.0,0.0,0.0,0.0,0.0,0.0,0.0,0.0,0.0,0.0,0.0,0.0,0.0,0.0,0.0,0.0,0.0,0.0,0.0,0.0,0.0,0.0,0.0,0.0,0.0,0.0,0.0,0.0,0.0,0.4986,0.3738,0.2703,0.228,0.2268,0.2001,0.1609,0.2078,0.2268,0.0,0.0,0.0,0.0,0.0,0.0,0.0,0.0,0.0,0.0,0.0,0.0,0.0,0.0,0.0,0.0,0.0,0.0,0.0,0.0,0.0,0.0,0.0,0.0,0.0,0.0,0.0,0.0,0.0,0.0,0.0,0.0,0.0,0.0,0.0,0.0,0.0,0.0,0.0,0.0,0.5801,0.6161,0.6359,0.0,0.0,0.0,0.0,0.0,0.0,0.7448,0.7611,0.0,0.0,0.0,0.0,0.0,0.0,0.0,0.0,0.0,0.0,0.0,0.0,0.0,0.0,0.0,0.0,0.0,0.0,0.0,0.0,0.0,0.0,0.0,0.0,0.0,0.0,0.0,0.0,0.0,0.0,0.0,0.0,0.0,0.0,0.0,0.0,0.0,0.0,0.0,0.0,0.0,0.0,0.0,0.0,0.0,0.0,0.0,0.0,0.0,0.0,0.0,0.0,0.0,0.0,0.0,0.6154,0.5196,0.4825,0.5095,0.5101,0.5372,0.564,0.481,0.429,0.0,0.0,0.0,0.0,0.0,0.0,0.0,0.0,0.0,0.0,0.0,0.0,0.0,0.0,0.0,0.0,0.0,0.0,0.0,0.0,0.0,0.0,0.0,0.0,0.0,0.0,0.0,0.0,0.0,0.0,0.0,0.0,0.0,0.0,0.0,0.0,0.0,0.0,0.0,0.0,0.0,0.6423,0.7021,0.5471,0.0,0.0,0.0,0.0,0.7559,0.7686,0.0,0.0,0.0,0.0,0.0,0.0,0.0,0.0,0.0,0.0,0.0,0.0,0.0,0.0,0.0,0.0,0.0,0.0,0.0,0.0,0.0,0.0,0.0,0.0,0.0,0.0,0.0,0.0,0.0,0.0,0.0,0.0,0.0,0.0,0.0,0.0,0.0,0.0,0.0,0.0,0.0,0.0,0.0,0.0,0.0,0.0,0.0,0.0,0.0,0.0,0.0,0.0,0.0,0.0,0.0,0.0,0.7266,0.6855,0.7061,0.8071,0.8086,0.8086,0.8215,0.6515,0.5814,0.0,0.0,0.0,0.0,0.0,0.0,0.0,0.0,0.0,0.0,0.0,0.0,0.0,0.0,0.0,0.0,0.0,0.0,0.0,0.0,0.0,0.0,0.0,0.0,0.0,0.0,0.0,0.0,0.0,0.0,0.0,0.0,0.0,0.0,0.0,0.0,0.0,0.0,0.0,0.0,0.0,0.657,0.7371,0.3539,0.2164,0.0,0.0,0.8176,0.8155,0.8044,0.0,0.0,0.0,0.0,0.0,0.0,0.0,0.0,0.0,0.0,0.0,0.0,0.0,0.0,0.0,0.0,0.0,0.0,0.0,0.0,0.0,0.0,0.0,0.0,0.0,0.0,0.0,0.0,0.0,0.0,0.0,0.0,0.0,0.0,0.0,0.0,0.0,0.0,0.0,0.0,0.0,0.0,0.0,0.0,0.0,0.0,0.0,0.0,0.0,0.0,0.0,0.0,0.0,0.0,0.0,0.7097,0.7485,0.7832,0.8226,0.8802,0.8812,0.8812,0.8812,0.7557,0.7046,0.0,0.0,0.0,0.0,0.0,0.0,0.0,0.0,0.0,0.0,0.0,0.0,0.0,0.0,0.0,0.0,0.0,0.0,0.0,0.0,0.0,0.0,0.0,0.0,0.0,0.0,0.0,0.0,0.0,0.0,0.0,0.0,0.0,0.0,0.0,0.0,0.0,0.0,0.0,0.0,0.0,0.0,0.7791,0.6181,0.0,0.0,0.0,0.8231,0.8144,0.0,0.0,0.0,0.0,0.0,0.0,0.0,0.0,0.0,0.0,0.0,0.0,0.0,0.0,0.0,0.0,0.0,0.0,0.0,0.0,0.0,0.0,0.0,0.0,0.0,0.0,0.0,0.0,0.0,0.0,0.0,0.0,0.0,0.0,0.0,0.0,0.0,0.0,0.0,0.0,0.0,0.0,0.0,0.0,0.0,0.0,0.0,0.0,0.0,0.0,0.0,0.0,0.0,0.0,0.0,0.0,0.0,0.7807,0.8424,0.8861,0.8948,0.8948,0.8948,0.8943,0.8275,0.0,0.0,0.0,0.0,0.0,0.0,0.0,0.0,0.0,0.0,0.0,0.0,0.0,0.0,0.0,0.0,0.0,0.0,0.0,0.0,0.0,0.0,0.0,0.0,0.0,0.0,0.0,0.6251,0.0,0.0,0.0,0.0,0.0,0.0,0.0,0.0,0.0,0.0,0.0,0.0,0.0,0.0,0.7964,0.81,0.8419,0.853,0.0,0.0,0.8231,0.8214,0.8397,0.8359,0.0,0.0,0.0,0.0,0.0,0.0,0.0,0.0,0.0,0.0,0.0,0.0,0.0,0.0,0.0,0.0,0.0,0.0,0.0,0.0,0.0,0.0,0.0,0.0,0.0,0.0,0.0,0.0,0.0,0.0,0.0,0.0,0.0,0.0,0.0,0.0,0.0,0.0,0.0,0.0,0.0,0.0,0.0,0.0,0.0,0.0,0.0,0.0,0.0,0.0,0.0,0.0,0.0,0.0,0.0,0.8062,0.8638,0.8943,0.8954,0.8948,0.8948,0.8948,0.8433,0.7883,0.0,0.0,0.0,0.0,0.0,0.0,0.0,0.0,0.0,0.0,0.0,0.0,0.0,0.0,0.0,0.0,0.0,0.0,0.0,0.0,0.0,0.0,0.0,0.0,0.0,0.0,0.0,0.0,0.0,0.0,0.0,0.0,0.0,0.0,0.0,0.0,0.0,0.0,0.0,0.0,0.0,0.7958,0.8209,0.8469,0.8585,0.0,0.0,0.8312,0.8535,0.8557,0.8443,0.81,0.0,0.0,0.0,0.0,0.0,0.0,0.0,0.0,0.0,0.0,0.0,0.0,0.0,0.0,0.0,0.0,0.0,0.0,0.0,0.0,0.0,0.0,0.0,0.0,0.0,0.0,0.0,0.0,0.0,0.0,0.0,0.0,0.0,0.0,0.0,0.0,0.0,0.0,0.0,0.0,0.0,0.0,0.0,0.0,0.0,0.0,0.0,0.0,0.0,0.0,0.0,0.0,0.0,0.7926,0.8166,0.8758,0.9101,0.9166,0.9171,0.9166,0.9171,0.8799,0.8375,0.0,0.0,0.0,0.0,0.0,0.0,0.0,0.0,0.0,0.0,0.0,0.0,0.0,0.0,0.0,0.0,0.0,0.0,0.0,0.0,0.0,0.0,0.0,0.0,0.0,0.0,0.0,0.0,0.7029,0.7216,0.7029,0.0,0.0,0.0,0.0,0.0,0.0,0.0,0.0,0.0,0.0,0.8082,0.8329,0.844,0.0,0.0,0.8811,0.8844,0.8606,0.853,0.841,0.8198,0.7981,0.0,0.0,0.0,0.0,0.0,0.0,0.0,0.0,0.0,0.0,0.0,0.0,0.0,0.0,0.0,0.0,0.0,0.0,0.0,0.0,0.0,0.0,0.0,0.0,0.0,0.0,0.0,0.0,0.0,0.0,0.0,0.0,0.0,0.0,0.0,0.0,0.0,0.0,0.0,0.0,0.0,0.0,0.0,0.0,0.0,0.0,0.0,0.0,0.0,0.0,0.0,0.0,0.803,0.8236,0.8861,0.9204,0.9253,0.9253,0.9253,0.9247,0.909,0.8713,0.0,0.0,0.0,0.0,0.0,0.0,0.0,0.0,0.0,0.0,0.0,0.0,0.0,0.0,0.0,0.0,0.0,0.0,0.0,0.0,0.0,0.0,0.0,0.0,0.0,0.0,0.0,0.0,0.6959,0.7016,0.7165,0.0,0.0,0.0,0.0,0.0,0.0,0.0,0.0,0.0,0.0,0.8189,0.841,0.8526,0.8654,0.866,0.8894,0.9075,0.866,0.8546,0.8426,0.8307,0.0,0.0,0.0,0.0,0.0,0.0,0.0,0.0,0.0,0.0,0.0,0.0,0.0,0.0,0.0,0.0,0.0,0.0,0.0,0.0,0.0,0.0,0.0,0.0,0.0,0.0,0.0,0.6442,0.0,0.0,0.6442,0.0,0.0,0.0,0.0,0.0,0.0,0.0,0.0,0.0,0.0,0.0,0.0,0.0,0.0,0.0,0.0,0.0,0.0,0.0,0.0,0.0,0.0,0.8111,0.8242,0.8932,0.9247,0.9144,0.9139,0.9144,0.9144,0.9133,0.9014,0.8764,0.0,0.0,0.0,0.0,0.0,0.0,0.0,0.0,0.0,0.0,0.0,0.0,0.0,0.0,0.0,0.0,0.0,0.0,0.0,0.0,0.0,0.0,0.0,0.0,0.0,0.0,0.7387,0.7247,0.7165,0.0,0.0,0.0,0.0,0.0,0.0,0.0,0.0,0.0,0.0,0.8314,0.8416,0.8421,0.8524,0.8655,0.8747,0.8811,0.8912,0.8753,0.866,0.8546,0.0,0.0,0.0,0.0,0.0,0.0,0.0,0.0,0.0,0.0,0.0,0.0,0.0,0.0,0.0,0.0,0.0,0.0,0.0,0.0,0.0,0.0,0.0,0.0,0.0,0.0,0.0,0.637,0.637,0.0,0.0,0.0,0.0,0.0,0.0,0.0,0.0,0.0,0.0,0.0,0.7633,0.7671,0.0,0.0,0.0,0.0,0.0,0.0,0.0,0.0,0.0,0.0,0.0,0.0,0.8117,0.8258,0.8867,0.9171,0.9139,0.9209,0.9247,0.9247,0.9247,0.8813,0.8093,0.0,0.0,0.0,0.0,0.0,0.0,0.0,0.0,0.0,0.0,0.0,0.0,0.0,0.0,0.0,0.0,0.0,0.0,0.0,0.0,0.0,0.0,0.0,0.0,0.0,0.689,0.0,0.0,0.0,0.0,0.0,0.0,0.0,0.0,0.0,0.0,0.0,0.776,0.8346,0.8548,0.8579,0.8519,0.8704,0.8845,0.0,0.0,0.0,0.0,0.0,0.0,0.0,0.0,0.0,0.0,0.0,0.0,0.0,0.0,0.8071,0.8153,0.7939,0.7723,0.7769,0.0,0.0,0.0,0.0,0.0,0.0,0.0,0.0,0.0,0.0,0.0,0.0,0.0,0.0,0.6618,0.0,0.6856,0.0,0.0,0.0,0.0,0.0,0.0,0.0,0.0,0.7758,0.7954,0.8062,0.81,0.8182,0.0,0.8176,0.7877,0.0,0.0,0.0,0.0,0.0,0.0,0.0,0.0,0.822,0.8323,0.8889,0.9171,0.9139,0.9209,0.9247,0.9247,0.9285,0.8908,0.8124,0.7467,0.6922,0.0,0.0,0.0,0.0,0.0,0.0,0.0,0.0,0.0,0.0,0.0,0.0,0.0,0.0,0.0,0.0,0.0,0.0,0.0,0.0,0.0,0.0,0.0,0.7159,0.0,0.0,0.0,0.0,0.0,0.0,0.0,0.0,0.0,0.7525,0.7601,0.7942,0.8537,0.8705,0.8684,0.8584,0.0,0.0,0.0,0.0,0.0,0.0,0.0,0.8628,0.8552,0.8508,0.8481,0.8486,0.8317,0.817,0.8344,0.0,0.0,0.8318,0.8187,0.8095,0.8262,0.8493,0.8901,0.9412,0.9823,1.0249,0.0,0.0,0.0,0.0,0.0,0.0,0.0,0.0,0.6828,0.6945,0.0,0.7172,0.0,0.0,0.0,0.0,0.7209,0.7655,0.0,0.0,0.8307,0.853,0.8437,0.8541,0.866,0.8753,0.8432,0.8274,0.8258,0.8144,0.0,0.0,0.0,0.0,0.0,0.0,0.8416,0.8448,0.8997,0.9242,0.9139,0.9139,0.9144,0.915,0.9247,0.9157,0.8714,0.8129,0.7547,0.7256,0.6256,0.0,0.0,0.0,0.0,0.0,0.0,0.0,0.0,0.0,0.0,0.0,0.0,0.0,0.0,0.0,0.0,0.0,0.0,0.0,0.0,0.704,0.0,0.0,0.0,0.0,0.0,0.0,0.0,0.0,0.0,0.0,0.8033,0.7964,0.8151,0.8541,0.0,0.0,0.0,0.0,0.859,0.8622,0.86,0.8606,0.8617,0.8704,0.8774,0.8774,0.0,0.0,0.8943,0.857,0.8386,0.85,0.8644,0.8665,0.8745,0.8799,0.8793,0.8782,0.9038,0.9453,0.9961,1.0267,1.0568,0.7862,0.0,0.0,0.0,0.0,0.612,0.603,0.6081,0.6687,0.6933,0.6928,0.7459,0.0,0.0,0.0,0.0,0.0,0.0,0.803,0.81,0.8432,0.8617,0.8671,0.8791,0.891,0.9024,0.8927,0.8916,0.8992,0.8883,0.8426,0.766,0.0,0.0,0.0,0.0,0.841,0.8671,0.9008,0.9166,0.9139,0.9215,0.9253,0.9258,0.9285,0.9157,0.8724,0.8489,0.8053,0.7278,0.6947,0.0,0.0,0.0,0.0,0.0,0.0,0.0,0.0,0.0,0.0,0.0,0.0,0.0,0.0,0.0,0.0,0.0,0.0,0.0,0.739,0.7733,0.7796,0.0,0.0,0.0,0.0,0.0,0.0,0.0,0.0,0.0,0.8258,0.8323,0.841,0.0,0.0,0.8673,0.8579,0.8693,0.8785,0.884,0.8851,0.0,0.8965,0.8932,0.8899,0.8899,0.8927,0.8948,0.8948,0.8783,0.8772,0.8804,0.8954,0.9319,0.9893,1.0399,1.0399,0.9567,0.9968,1.0522,1.0554,1.0703,1.0982,0.8096,0.7638,0.7261,0.7108,0.6892,0.6647,0.6441,0.651,0.7146,0.7404,0.7394,0.7807,0.8013,0.8013,0.7964,0.0,0.0,0.0,0.8329,0.8454,0.8644,0.8796,0.8916,0.8986,0.9084,0.9193,0.9155,0.9171,0.9237,0.9068,0.8704,0.8144,0.0,0.0,0.8204,0.841,0.8628,0.884,0.9079,0.9198,0.9198,0.9269,0.9302,0.9302,0.9302,0.9163,0.9018,0.8729,0.8351,0.7874,0.747,0.6943,0.0,0.0,0.0,0.0,0.0,0.0,0.0,0.0,0.0,0.0,0.0,0.7194,0.0,0.0,0.0,0.0,0.7669,0.7787,0.8111,0.8038,0.0,0.0,0.0,0.0,0.0,0.0,0.0,0.8008,0.8187,0.8356,0.847,0.853,0.8584,0.8649,0.8687,0.8709,0.8731,0.0,0.8921,0.8948,0.8954,0.8981,0.9052,0.9041,0.9041,0.9084,0.909,0.909,0.909,0.909,0.909,0.909,0.9236,0.9524,1.0376,1.1094,1.1335,1.0228,1.0618,1.1199,1.0961,1.1114,1.1267,0.8456,0.8163,0.7852,0.7658,0.7622,0.7365,0.7345,0.7522,0.7922,0.8061,0.8174,0.8231,0.8263,0.8258,0.8155,0.0,0.8291,0.8513,0.8677,0.8791,0.891,0.9024,0.9133,0.9144,0.9204,0.9302,0.9198,0.915,0.9139,0.8916,0.8802,0.8802,0.8791,0.8671,0.8475,0.8769,0.8948,0.897,0.9177,0.9296,0.9302,0.9302,0.9302,0.9302,0.9302,0.9302,0.9302,0.8874,0.8729,0.8719,0.7734,0.7296,0.7115,0.0,0.0,0.0,0.0,0.0,0.0,0.0,0.0,0.0,0.0,0.0,0.0,0.0,0.0,0.0,0.8144,0.0,0.8747,0.8296,0.0,0.0,0.0,0.8243,0.8225,0.8242,0.8247,0.8247,0.0,0.0,0.859,0.8579,0.8654,0.8785,0.8836,0.8933,0.8954,0.903,0.9079,0.8948,0.8943,0.8948,0.8965,0.9041,0.9128,0.9215,0.9275,0.9247,0.9247,0.9253,0.9269,0.9247,0.9275,0.9551,1.0287,1.098,1.1368,1.0796,1.106,1.1399,1.1382,1.1409,1.1436,0.8584,0.8446,0.8365,0.8086,0.7587,0.7181,0.7208,0.7526,0.766,0.7794,0.8051,0.8397,0.8503,0.8508,0.8573,0.8617,0.8649,0.8796,0.8878,0.8916,0.9035,0.9106,0.9139,0.922,0.928,0.9302,0.9275,0.9264,0.9258,0.9117,0.9052,0.9041,0.8954,0.8834,0.8698,0.8774,0.8905,0.909,0.9144,0.9215,0.9302,0.9302,0.9302,0.9302,0.9302,0.9302,0.9302,0.9157,0.9018,0.8724,0.8222,0.7649,0.7278,0.6506,0.0,0.0,0.0,0.0,0.0,0.0,0.0,0.0,0.0,0.7508,0.735,0.0,0.8133,0.0,0.8553,0.8767,0.8655,0.866,0.0,0.0,0.837,0.8591,0.8753,0.8452,0.8372,0.8372,0.8557,0.8698,0.8585,0.8772,0.8868,0.8783,0.8959,0.9093,0.8834,0.8916,0.8954,0.8851,0.8899,0.8954,0.8954,0.8976,0.9008,0.903,0.9035,0.9035,0.9035,0.9176,0.9321,0.9321,0.9316,0.9596,1.0022,1.0722,1.1127,1.106,1.1348,1.1525,1.1558,1.1558,1.1538,0.859,0.859,0.859,0.8323,0.7927,0.7789,0.7789,0.8056,0.7922,0.8056,0.8323,0.851,0.8671,0.8677,0.8796,0.8851,0.8861,0.8976,0.903,0.9041,0.9155,0.9209,0.9209,0.9275,0.9302,0.9302,0.9302,0.9302,0.9302,0.9237,0.9209,0.9209,0.9139,0.9046,0.8932,0.8878,0.8916,0.9052,0.9106,0.9188,0.9296,0.9302,0.928,0.9231,0.9226,0.9204,0.915,0.9144,0.9002,0.8576,0.8154,0.7767,0.7278,0.6592,0.6055,0.0,0.0,0.0,0.0,0.0,0.0,0.0,0.0,0.0,0.0,0.0,0.8367,0.8323,0.8764,0.8905,0.8546,0.8617,0.8628,0.8217,0.8475,0.8607,0.8744,0.8668,0.8552,0.8503,0.8655,0.8769,0.8638,0.8793,0.889,0.8959,0.8954,0.8932,0.901,0.891,0.8927,0.8867,0.891,0.8948,0.8954,0.8954,0.8948,0.8948,0.8948,0.8948,0.8948,0.8954,0.9093,0.9087,0.9082,0.9354,1.0197,1.0816,1.1253,1.1212,1.1355,1.1477,1.143,1.1416,1.1382,0.8573,0.859,0.8606,0.8611,0.8611,0.8628,0.8617,0.859,0.8584,0.8595,0.8622,0.8742,0.8796,0.8802,0.8921,0.8976,0.8981,0.9101,0.9155,0.9166,0.9258,0.9302,0.9302,0.9302,0.9302,0.9302,0.9302,0.9302,0.9302,0.9302,0.9296,0.928,0.928,0.9226,0.9111,0.9003,0.8948,0.8954,0.9073,0.9182,0.9275,0.9264,0.9209,0.9117,0.9111,0.9063,0.8954,0.8948,0.8809,0.8526,0.8109,0.7659,0.7305,0.663,0.6281,0.0,0.6341,0.0,0.0,0.0,0.0,0.0,0.0,0.0,0.0,0.8546,0.8573,0.8492,0.8769,0.8818,0.8492,0.8552,0.8649,0.8595,0.8611,0.8606,0.8606,0.8747,0.8704,0.86,0.8693,0.8905,0.8911,0.8878,0.8948,0.9065,0.8777,0.8761,0.8899,0.8905,0.891,0.891,0.8905,0.8872,0.8883,0.8894,0.8889,0.8894,0.8883,0.8905,0.8889,0.891,0.8916,0.8894,0.8894,0.9319,1.0567,1.0935,1.1107,1.1111,1.1212,1.1287,1.1212,1.1192,1.1158,0.8503,0.8595,0.8693,0.8736,0.8747,0.884,0.8769,0.8584,0.8323,0.8375,0.8742,0.8861,0.8916,0.8927,0.9046,0.9101,0.9106,0.922,0.9275,0.9269,0.9296,0.9302,0.9302,0.9302,0.9302,0.9302,0.9302,0.9302,0.9302,0.9302,0.9258,0.9166,0.9166,0.9106,0.8992,0.0,0.0,0.0,0.9073,0.9144,0.916,0.9068,0.9008,0.8986,0.8986,0.0,0.8954,0.8948,0.8809,0.8809,0.8114,0.0,0.0,0.0,0.0,0.0,0.0,0.0,0.0,0.0,0.0,0.0,0.8426,0.8481,0.8552,0.8666,0.8769,0.8845,0.891,0.8883,0.8861,0.8855,0.8839,0.8628,0.8622,0.8622,0.8622,0.8622,0.8611,0.8595,0.8963,0.9177,0.9313,0.9142,0.9038,0.9228,0.8938,0.8622,0.8677,0.8747,0.8769,0.8682,0.8677,0.8666,0.8655,0.8666,0.8682,0.8655,0.8655,0.8666,0.8682,0.8617,0.8627,0.8682,0.9549,1.0276,1.0719,1.0705,1.0873,1.0812,1.0934,1.1056,1.1145,1.1158,1.1131,0.8715,0.8774,0.8834,0.8861,0.0,0.8927,0.8883,0.8769,0.8633,0.8665,0.8867,0.8992,0.9041,0.9046,0.9106,0.9133,0.9133,0.9133,0.916,0.922,0.922,0.9253,0.9302,0.9302,0.9302,0.9302,0.9302,0.9302,0.9302,0.9302,0.9275,0.922,0.9215,0.9188,0.9128,0.9128,0.9101,0.9041,0.9106,0.916,0.9209,0.9155,0.9095,0.9046,0.9041,0.0,0.0,0.0,0.0,0.0,0.0,0.0,0.0,0.741,0.0,0.7598,0.7455,0.7675,0.8174,0.8375,0.859,0.8845,0.8905,0.8894,0.8774,0.8932,0.9008,0.8959,0.8948,0.8878,0.8704,0.8682,0.8655,0.8595,0.859,0.859,0.859,0.859,0.8717,0.8862,0.9098,0.9431,0.9642,0.9467,0.9211,0.9238,0.8946,0.8655,0.8606,0.8638,0.8649,0.86,0.859,0.859,0.859,0.859,0.859,0.859,0.8638,0.8671,0.8677,0.872,0.8601,0.8806,0.9765,1.0692,1.0765,1.0645,1.0672,1.0758,1.0846,1.0928,1.0962,1.1002,1.1016,0.8932,0.8954,0.8976,0.8986,0.8986,0.9008,0.9014,0.9014,0.8992,0.0,0.0,0.9111,0.9166,0.9166,0.9166,0.9166,0.9155,0.9057,0.9068,0.9166,0.9166,0.9215,0.9302,0.9302,0.9302,0.9302,0.9302,0.9302,0.9302,0.9302,0.9302,0.9302,0.9302,0.9302,0.9302,0.9302,0.9258,0.9166,0.9144,0.9177,0.9269,0.9253,0.9198,0.9101,0.9101,0.9052,0.8959,0.8948,0.8809,0.8526,0.8387,0.8218,0.8011,0.7868,0.7839,0.7917,0.8043,0.8255,0.8573,0.8874,0.9095,0.9291,0.9302,0.922,0.903,0.9177,0.9182,0.897,0.8932,0.8829,0.8611,0.859,0.859,0.859,0.859,0.859,0.859,0.8717,0.8851,0.8995,0.9209,0.9514,0.9825,0.9759,0.9514,0.9285,0.8862,0.859,0.859,0.8595,0.8595,0.859,0.859,0.859,0.859,0.859,0.859,0.859,0.8666,0.8736,0.8736,0.8747,0.8747,0.9109,1.0015,1.0518,1.0605,1.0538,1.0719,1.0744,1.0839,1.09,1.0778,1.0867,1.0934,0.8861,0.8959,0.9063,0.9111,0.9117,0.9215,0.9253,0.9247,0.915,0.9106,0.9117,0.9231,0.928,0.928,0.928,0.928,0.928,0.9264,0.9264,0.928,0.928,0.9285,0.9302,0.9302,0.9302,0.9302,0.9302,0.9302,0.9302,0.9302,0.9302,0.9302,0.9302,0.9302,0.9302,0.9302,0.9296,0.928,0.9182,0.9144,0.9155,0.9057,0.8997,0.8981,0.8981,0.897,0.8954,0.8954,0.8948,0.8809,0.8526,0.8563,0.8792,0.8228,0.8267,0.8908,0.8775,0.8791,0.9104,0.9253,0.9269,0.9296,0.9302,0.9285,0.9258,0.9193,0.9101,0.8965,0.8861,0.8742,0.8606,0.859,0.8595,0.859,0.859,0.859,0.859,0.8851,0.8984,0.9117,0.9407,0.9692,0.9673,0.9819,0.9698,0.9262,0.8851,0.859,0.86,0.859,0.859,0.859,0.859,0.859,0.859,0.859,0.859,0.859,0.8611,0.8644,0.8644,0.8709,0.9002,0.9442,1.0028,1.0309,1.0079,1.0332,1.0625,1.0738,1.086,1.0894,1.0778,1.0812,1.09,0.909,0.915,0.9204,0.9226,0.9231,0.928,0.9302,0.9296,0.9253,0.9226,0.9231,0.9285,0.9302,0.9296,0.9242,0.9209,0.9209,0.9144,0.915,0.9209,0.9215,0.9247,0.9302,0.9302,0.9302,0.9302,0.9302,0.9302,0.9302,0.9302,0.9302,0.9302,0.9302,0.9302,0.9302,0.9302,0.9302,0.9302,0.9253,0.9226,0.9226,0.9171,0.9144,0.9144,0.9144,0.9144,0.9144,0.9144,0.9144,0.9144,0.8997,0.9024,0.922,0.8939,0.8817,0.9296,0.9157,0.9157,0.9302,0.9302,0.9302,0.9302,0.9302,0.9275,0.9215,0.9166,0.9084,0.8965,0.8899,0.8791,0.8611,0.8644,0.866,0.8595,0.859,0.859,0.8584,0.8851,0.9117,0.9117,0.9389,0.9661,0.9661,0.9528,0.9389,0.9117,0.8851,0.8611,0.8677,0.8682,0.866,0.86,0.859,0.859,0.859,0.859,0.859,0.859,0.8644,0.8677,0.8687,0.8877,0.9002,0.9227,0.9496,0.9722,1.006,1.0459,1.0758,1.0846,1.0887,1.0921,1.0968,1.1077,1.1097,0.9302,0.9302,0.9302,0.9302,0.9302,0.9302,0.9302,0.9302,0.9302,0.9302,0.9302,0.9302,0.9302,0.9296,0.9209,0.9171,0.916,0.9073,0.9084,0.9166,0.9171,0.922,0.9296,0.9302,0.9302,0.9302,0.9302,0.9302,0.9302,0.9302,0.9302,0.9302,0.9302,0.9302,0.9302,0.9302,0.9302,0.9302,0.9334,0.9329,0.9307,0.9302,0.9302,0.9302,0.9302,0.9302,0.9302,0.9302,0.9302,0.9302,0.9302,0.9302,0.9302,0.9302,0.9302,0.9302,0.9302,0.9302,0.9302,0.9302,0.9302,0.9302,0.9302,0.9264,0.9188,0.915,0.9084,0.897,0.8921,0.8834,0.8709,0.8558,0.8563,0.8633,0.8628,0.8638,0.8628,0.8895,0.9163,0.9157,0.9413,0.9661,0.9661,0.9389,0.9267,0.9297,0.8918,0.8709,0.8927,0.8807,0.8764,0.8704,0.8671,0.8682,0.8671,0.8677,0.8682,0.8671,0.8747,0.8802,0.8812,0.8802,0.8796,0.8922,0.9132,0.9642,1.043,1.0839,1.0887,1.0982,1.1009,1.105,1.1172,1.1212,1.1199,0.9302,0.9302,0.9302,0.9302,0.9302,0.9302,0.9302,0.9302,0.9302,0.9302,0.9296,0.9302,0.9302,0.9302,0.9291,0.928,0.928,0.9275,0.9269,0.928,0.9291,0.9296,0.9302,0.9302,0.9302,0.9302,0.9302,0.9302,0.9302,0.9307,0.9307,0.9302,0.9302,0.9307,0.9307,0.9307,0.9307,0.9307,0.941,0.9416,0.9313,0.9302,0.9302,0.9302,0.9307,0.9302,0.9313,0.9302,0.9302,0.9302,0.9302,0.9302,0.9302,0.9302,0.9302,0.9302,0.9302,0.9302,0.9302,0.9302,0.9302,0.9302,0.9302,0.9296,0.9275,0.9193,0.9084,0.8965,0.8851,0.8829,0.8889,0.8742,0.8671,0.8731,0.8747,0.8889,0.8877,0.9024,0.9296,0.9296,0.9454,0.9667,0.9673,0.9685,0.9728,0.9691,0.9228,0.8883,0.9336,0.9209,0.9082,0.8921,0.8916,0.891,0.8899,0.8916,0.8883,0.8894,0.8916,0.8921,0.891,0.8767,0.8634,0.9153,0.9728,1.0535,1.0679,1.0849,1.1111,1.1131,1.1158,1.1192,1.1181,1.1369,1.1335,0.9302,0.9302,0.9302,0.9302,0.9302,0.9302,0.9302,0.9302,0.9302,0.9269,0.9209,0.9204,0.9242,0.9302,0.9302,0.9302,0.9302,0.9302,0.9302,0.9302,0.9302,0.9302,0.9302,0.9302,0.9302,0.9302,0.9302,0.9302,0.9318,0.9378,0.941,0.9421,0.9481,0.9487,0.9421,0.9481,0.9487,0.9416,0.953,0.9568,0.9525,0.9519,0.9519,0.9514,0.9449,0.941,0.9405,0.9345,0.9302,0.9302,0.9302,0.9302,0.9302,0.9302,0.9302,0.9302,0.9302,0.9302,0.9302,0.9302,0.9302,0.9302,0.9302,0.9275,0.9215,0.922,0.916,0.8981,0.8905,0.8872,0.8713,0.8955,0.9075,0.9064,0.8971,0.8856,0.878,0.9041,0.9284,0.9209,0.9424,0.9698,0.9771,0.9844,0.9912,0.9973,0.9619,0.9672,0.9882,0.9613,0.9366,0.9422,0.9297,0.909,0.8997,0.8948,0.8954,0.8954,0.8948,0.8948,0.9098,0.8943,0.8938,0.9637,1.0499,1.1199,1.1296,1.1317,1.1462,1.1392,1.1389,1.1457,1.1511,1.1525,1.1491,0.9237,0.9209,0.9209,0.9209,0.9209,0.9204,0.9209,0.9209,0.9209,0.916,0.909,0.9117,0.9177,0.9247,0.9258,0.9258,0.9258,0.9291,0.9302,0.9302,0.9302,0.9302,0.9302,0.9302,0.9302,0.9302,0.9302,0.9323,0.9362,0.9476,0.9519,0.9508,0.9606,0.9606,0.9514,0.9606,0.9628,0.9557,0.9655,0.9715,0.972,0.9748,0.9737,0.9671,0.9584,0.9541,0.9536,0.9416,0.9356,0.9351,0.9323,0.9302,0.9302,0.9302,0.9302,0.9302,0.9302,0.9302,0.9302,0.9302,0.9302,0.9302,0.9302,0.9269,0.9215,0.9258,0.9226,0.9084,0.9019,0.882,0.8761,0.8921,0.9065,0.9159,0.9098,0.8959,0.8889,0.9142,0.9251,0.929,0.9691,0.9937,1.0178,1.0298,1.0385,1.0392,1.029,1.0333,1.0432,1.0173,1.006,1.0006,0.9867,0.9512,0.9079,0.9063,0.9046,0.9046,0.9063,0.9349,0.9608,0.9327,0.9462,1.0242,1.1181,1.1594,1.1495,1.1615,1.1594,1.1571,1.1538,1.1606,1.1592,1.1613,1.1613,0.9073,0.8981,0.897,0.8997,0.8976,0.8986,0.8981,0.9014,0.8992,0.8976,0.8992,0.9084,0.9139,0.9144,0.915,0.9144,0.9166,0.9258,0.9302,0.9302,0.9302,0.9302,0.9302,0.9302,0.9307,0.9318,0.9323,0.9372,0.947,0.9595,0.9601,0.9503,0.9628,0.9617,0.9541,0.9633,0.9671,0.9677,0.9775,0.9829,0.9845,0.9943,0.9889,0.9709,0.9666,0.9661,0.965,0.9541,0.9481,0.9476,0.9372,0.9307,0.9302,0.9302,0.9302,0.9302,0.9302,0.9302,0.9302,0.9302,0.9302,0.9302,0.9302,0.9302,0.9285,0.9291,0.928,0.9275,0.9171,0.9117,0.9084,0.8868,0.8868,0.9084,0.9258,0.9258,0.9106,0.9079,0.9258,0.9625,0.9944,1.0448,1.102,1.0868,1.0946,1.1127,1.0779,1.0568,1.0855,1.1168,1.1031,1.0593,1.0455,1.0161,0.9424,0.9374,0.9391,0.9385,0.9638,0.9833,1.0,1.0149,1.0425,1.0706,1.1252,1.1538,1.1579,1.1586,1.1572,1.1606,1.1613,1.1647,1.1576,1.1653,1.1667,0.915,0.9177,0.9177,0.9177,0.9177,0.9177,0.9177,0.9177,0.9177,0.9133,0.9084,0.9117,0.909,0.9019,0.9101,0.9177,0.9242,0.9285,0.9302,0.9302,0.9302,0.9302,0.9302,0.9302,0.9351,0.941,0.9421,0.9443,0.9492,0.9612,0.965,0.965,0.9802,0.9835,0.9753,0.9829,0.9856,0.9796,0.9894,0.9954,0.9954,0.9998,0.9976,0.99,0.9813,0.9775,0.9775,0.9666,0.9568,0.9492,0.9443,0.9389,0.9313,0.9302,0.9302,0.9302,0.9302,0.9302,0.9302,0.9302,0.9302,0.9302,0.9302,0.9302,0.9302,0.9302,0.9275,0.922,0.9237,0.9215,0.9144,0.8949,0.8943,0.9133,0.9198,0.9209,0.9155,0.9275,0.9671,1.0022,1.0569,1.1034,1.1194,1.1302,1.1389,1.1538,1.1299,1.1325,1.1332,1.1482,1.1482,1.1044,1.1044,1.09,1.0167,1.0017,1.0017,0.9879,1.0017,1.0299,1.0599,1.0455,1.0725,1.1181,1.1496,1.166,1.166,1.1681,1.1687,1.1748,1.1755,1.165,1.1583,1.1683,1.1857,0.9122,0.9182,0.9188,0.9188,0.9188,0.9188,0.9188,0.9193,0.9188,0.9144,0.909,0.9117,0.9084,0.9041,0.9133,0.9231,0.9296,0.9302,0.9302,0.9302,0.9302,0.9302,0.9313,0.9345,0.9383,0.9432,0.947,0.9503,0.9557,0.9666,0.972,0.9737,0.9927,0.996,0.9878,0.996,0.9976,0.9927,0.9981,1.0019,1.0019,1.0019,1.0019,1.0008,0.9938,0.9894,0.9894,0.9786,0.9688,0.9606,0.9568,0.9492,0.9378,0.9323,0.9302,0.9302,0.9302,0.9302,0.9302,0.9302,0.9302,0.9302,0.9302,0.9302,0.9302,0.9275,0.9226,0.9209,0.9209,0.922,0.9204,0.9045,0.9045,0.9341,0.9258,0.9275,0.9204,0.9473,0.9865,1.0389,1.0985,1.1315,1.1477,1.1552,1.1606,1.1619,1.1619,1.1619,1.1619,1.1619,1.1476,1.1332,1.1338,1.1188,1.0913,1.0794,1.0486,1.0342,1.0498,1.0781,1.0932,1.0919,1.0925,1.1529,1.1694,1.1714,1.1735,1.1755,1.1809,1.1884,1.1911,1.1932,1.1844,1.1884,1.2033,0.897,0.8992,0.8959,0.9003,0.9019,0.9019,0.8981,0.9008,0.8997,0.9019,0.9035,0.9095,0.915,0.9297,0.9523,0.9441,0.9735,0.959,0.9446,0.9302,0.9302,0.9302,0.9307,0.94,0.9421,0.9367,0.9443,0.9557,0.9671,0.9769,0.9824,0.9851,0.9954,0.9965,0.9845,0.9965,1.0019,1.0008,1.0014,1.0019,1.0019,1.0019,1.0019,1.0019,1.0008,1.0003,1.0008,0.99,0.9829,0.9807,0.972,0.9612,0.9492,0.9394,0.9318,0.9323,0.9313,0.9307,0.9302,0.9302,0.9307,0.9323,0.9313,0.9329,0.934,0.9253,0.922,0.928,0.9226,0.9188,0.9275,0.9285,0.9285,0.9296,0.9302,0.9296,0.9441,0.9729,1.0167,1.0868,1.1305,1.1613,1.1613,1.1633,1.1647,1.1647,1.1667,1.1681,1.1694,1.1694,1.1647,1.1647,1.1701,1.159,1.1438,1.1431,1.1115,1.0812,1.097,1.1128,1.1299,1.1305,1.1345,1.1816,1.1837,1.1857,1.2058,1.2079,1.1979,1.204,1.2054,1.2088,1.2149,1.2189,1.2306,0.9193,0.9193,0.9193,0.9193,0.9193,0.9193,0.9193,0.9193,0.9193,0.9193,0.9204,0.9231,0.9684,1.04,1.0718,1.1305,1.2022,1.1305,1.0299,0.9452,0.9307,0.9307,0.9313,0.9345,0.9432,0.9541,0.959,0.9671,0.9775,0.9818,0.984,0.9862,0.996,0.9998,0.9965,1.0003,1.0019,1.0019,1.0019,1.0019,1.0019,1.0019,1.0019,1.0019,1.0019,1.0019,1.0019,0.9981,0.9921,0.9845,0.9802,0.9731,0.9628,0.9579,0.9519,0.9443,0.928,0.9238,0.9318,0.9313,0.9351,0.9405,0.9432,0.9476,0.953,0.9438,0.9389,0.941,0.9323,0.9275,0.9296,0.9302,0.9302,0.9302,0.9302,0.9446,0.9735,1.0317,1.0894,1.1332,1.1476,1.1619,1.164,1.1687,1.1762,1.1775,1.1843,1.1757,1.1911,1.1737,1.177,1.1918,1.1925,1.1884,1.1737,1.1757,1.1623,1.1436,1.1417,1.1537,1.155,1.157,1.1764,1.1965,1.1986,1.2026,1.2223,1.2258,1.2155,1.2189,1.221,1.2271,1.2338,1.2338,1.245,0.9302,0.9302,0.9302,0.9302,0.9302,0.9302,0.959,0.9879,0.9879,1.0167,1.0731,1.0731,1.1305,1.1879,1.1729,1.2015,1.2452,1.1352,1.0233,0.9501,0.9318,0.9323,0.9372,0.9421,0.9536,0.9688,0.9693,0.9753,0.9894,0.9862,0.9883,0.9976,1.0008,1.0019,1.0019,1.0019,1.0019,1.0019,1.0019,1.0019,1.0019,1.0019,1.0019,1.0019,1.0019,1.0019,1.0019,1.0019,0.9987,0.9911,0.9867,0.9802,0.9737,0.9693,0.9633,0.9579,0.9404,0.9366,0.9449,0.9454,0.9465,0.9541,0.9557,0.9584,0.9633,0.9557,0.9492,0.947,0.9372,0.9302,0.9302,0.9302,0.9302,0.9596,0.974,0.9885,1.0317,1.0756,1.1221,1.1536,1.1701,1.1721,1.1789,1.1843,1.1918,1.1932,1.1999,1.206,1.206,1.2047,1.2067,1.2067,1.2182,1.2168,1.2047,1.2088,1.2135,1.2101,1.206,1.2013,1.1993,1.1844,1.202,1.2135,1.2189,1.225,1.245,1.2284,1.2305,1.2338,1.2352,1.24,1.244,1.2454,1.2427,0.9302,0.9446,0.9446,0.959,0.9735,0.9879,1.0449,1.1168,1.1168,1.1893,1.3047,1.2775,1.3348,1.3491,1.2669,1.2381,1.1928,1.1332,1.0951,1.0486,1.0134,0.9983,0.9645,0.9584,0.9704,0.9813,0.9742,0.9965,1.0169,1.0075,0.9965,1.0123,1.0052,1.0019,1.0019,1.0019,1.0019,1.0019,1.0019,1.0019,1.0019,1.0019,1.0019,1.0019,1.0019,1.0019,1.0019,1.0019,1.0019,1.0003,0.9911,0.9862,0.9829,0.9748,0.9709,0.9682,0.9527,0.9511,0.9661,0.9628,0.965,0.9671,0.9677,0.9677,0.9677,0.9595,0.9508,0.9481,0.9372,0.9302,0.9302,0.9302,0.9596,1.0185,1.0354,1.0643,1.0913,1.1076,1.1451,1.1677,1.185,1.1891,1.2006,1.2047,1.2074,1.2081,1.2101,1.2142,1.2142,1.2162,1.2265,1.2278,1.2326,1.234,1.2223,1.225,1.2291,1.2284,1.2244,1.221,1.2169,1.2162,1.2169,1.2291,1.2512,1.2433,1.2467,1.242,1.2413,1.2433,1.2461,1.2494,1.2501,1.2501,1.2515,0.9735,1.0599,1.0875,1.1449,1.2158,1.2595,1.2881,1.3167,1.3174,1.3395,1.3754,1.2627,1.3704,1.543,1.4261,1.4709,1.5722,1.5182,1.4914,1.4767,1.3707,1.1791,1.0065,0.9655,0.9932,1.0075,1.0162,1.0378,1.06,1.0796,1.0785,1.0531,1.0514,1.033,1.0019,1.0019,1.0019,1.0019,1.0019,1.0019,1.0019,1.0019,1.0019,1.0019,1.0019,1.0019,1.0019,1.0019,1.0019,1.0019,0.9992,0.997,0.9954,0.9927,0.9873,0.9807,0.9791,0.9758,0.9693,0.9682,0.9715,0.9786,0.9791,0.9791,0.9786,0.9688,0.9584,0.9497,0.9378,0.9307,0.9307,0.9452,1.007,1.1186,1.1643,1.1345,1.1212,1.1583,1.1817,1.1993,1.1999,1.2033,1.2088,1.2169,1.2223,1.2244,1.2298,1.2359,1.2325,1.2332,1.2471,1.2519,1.2406,1.24,1.2406,1.2427,1.244,1.244,1.2427,1.2413,1.2386,1.2379,1.24,1.2454,1.2433,1.2481,1.2494,1.2474,1.2494,1.2515,1.2528,1.2542,1.2522,1.2515,1.2542,1.1921,1.2503,1.2787,1.3222,1.3801,1.4099,1.4347,1.4736,1.4796,1.5263,1.5614,1.5104,1.5775,1.7214,1.603,1.6324,1.7663,1.6554,1.5999,1.5886,1.5119,1.3755,1.2189,1.1441,1.1262,1.1225,1.1029,1.0958,1.1088,1.1173,1.1143,1.1023,1.0975,1.0641,1.033,1.0175,1.0175,1.0019,1.0019,1.0019,1.0019,1.0019,1.0019,1.0019,1.0019,1.0019,1.0019,1.0019,0.9998,0.997,0.9987,0.9998,0.9954,0.9998,0.9981,0.9916,0.9916,0.9883,0.984,0.9818,0.9845,0.99,0.9916,0.9883,0.984,0.9769,0.9682,0.9503,0.9421,0.9389,0.9675,1.1027,1.2882,1.4171,1.4064,1.3163,1.1938,1.1851,1.2088,1.2128,1.2162,1.2182,1.223,1.2325,1.2366,1.2393,1.2427,1.2467,1.2481,1.2501,1.2501,1.2501,1.2501,1.2474,1.2454,1.2467,1.2474,1.2488,1.2522,1.2528,1.2522,1.2515,1.2494,1.2494,1.2494,1.2508,1.2522,1.2535,1.2556,1.2569,1.2576,1.2623,1.2481,1.2623,1.2637,1.4391,1.4523,1.4539,1.4695,1.4826,1.4982,1.5757,1.6267,1.6515,1.7262,1.7949,1.8363,1.8183,1.9073,1.7369,1.6997,1.7311,1.6591,1.6037,1.6144,1.6133,1.6015,1.5488,1.3494,1.2649,1.2373,1.174,1.1491,1.156,1.1485,1.1485,1.136,1.146,1.1113,1.0641,1.0486,1.033,1.0019,1.0019,1.0019,1.0019,1.0019,1.0019,1.0019,1.0019,1.0019,1.0019,1.0014,0.997,0.9845,0.9954,0.9954,0.9883,0.9954,1.0008,1.0008,0.9998,0.9992,0.9987,0.9949,0.996,0.9949,0.9949,0.9932,0.9807,0.9758,0.9699,0.965,0.9645,0.9792,1.0982,1.4088,1.6147,1.6666,1.6731,1.536,1.3342,1.2407,1.2456,1.2436,1.2464,1.2379,1.2447,1.2501,1.2494,1.2447,1.2488,1.2494,1.2501,1.2501,1.2501,1.2501,1.2501,1.2501,1.2494,1.2494,1.2494,1.2501,1.2562,1.2576,1.2562,1.2549,1.2515,1.2508,1.2549,1.2569,1.2576,1.2589,1.2637,1.2691,1.2745,1.2661,1.2722,1.284,1.2827,1.3008,1.3775,1.4203,1.4999,1.603,1.7517,1.8237,1.8352,1.8394,1.8644,1.8875,1.804,1.8309,1.9682,1.814,1.8029,1.9041,1.8652,1.8994,1.9317,1.9682,1.9725,1.8734,1.5666,1.3113,1.2474,1.1921,1.1959,1.2024,1.242,1.205,1.1914,1.1914,1.1417,1.0796,1.0641,1.033,1.0019,1.0019,1.0019,1.0019,1.0019,1.0019,1.0019,1.0019,1.0019,1.0019,1.0019,0.996,0.99,0.9943,0.9965,0.9889,0.9954,1.0014,1.0014,1.0014,0.9976,0.9905,0.9889,0.9845,0.9949,0.9954,0.9693,0.9584,0.9822,0.9938,0.9979,1.0162,1.1244,1.3052,1.558,1.7076,1.7171,1.6339,1.5489,1.4919,1.4404,1.4076,1.38,1.3055,1.2467,1.2494,1.2501,1.2501,1.2501,1.2508,1.2508,1.2515,1.2528,1.2569,1.2603,1.2596,1.2617,1.2617,1.2617,1.2623,1.2623,1.2657,1.2684,1.2671,1.2637,1.2617,1.261,1.246,1.2637,1.2841,1.2766,1.284,1.2881,1.2915,1.2956,1.2829,1.299,1.3003,1.5869,1.6471,1.6871,1.7365,1.7961,1.9022,1.9413,1.9348,1.9435,1.9478,1.9372,1.869,1.8963,1.9844,1.9088,1.9229,1.9995,2.0458,2.0664,2.0894,2.1091,2.0928,2.0168,1.7913,1.5785,1.5082,1.4684,1.4546,1.457,1.4538,1.433,1.3414,1.3259,1.2488,1.1417,1.1262,1.0952,1.033,1.033,1.0175,1.0019,1.0019,1.0019,1.0019,1.0019,1.0019,1.0019,1.0019,0.9954,0.9905,0.9949,0.9965,0.9883,0.9954,1.0014,1.0014,0.9954,0.9954,0.9911,0.9873,1.0145,1.0884,1.0287,1.0364,1.0733,1.1058,1.1164,1.1534,1.2289,1.355,1.4695,1.6364,1.7256,1.7341,1.6608,1.6033,1.559,1.4661,1.3722,1.3722,1.2951,1.2649,1.2501,1.2677,1.2677,1.2683,1.2793,1.2793,1.2671,1.2691,1.2745,1.2773,1.2752,1.2752,1.2752,1.2759,1.2773,1.2793,1.282,1.2834,1.2834,1.2786,1.2739,1.2588,1.2601,1.2807,1.3013,1.2949,1.3332,1.3044,1.3226,1.3078,1.3436,1.381,1.3654,1.9351,1.9489,1.952,1.9542,1.9542,1.9682,1.9714,1.9596,1.9758,1.9714,1.9618,1.9768,1.9671,1.9844,1.9995,2.0145,2.0597,2.0921,2.1302,2.1429,2.1592,2.1125,2.0375,1.9896,1.9548,1.9531,1.7692,1.7093,1.6635,1.7074,1.5701,1.479,1.479,1.3568,1.2192,1.1882,1.1417,1.0641,1.0486,1.033,1.0019,1.0019,1.0019,1.0019,1.0019,1.0019,1.0019,1.0014,0.9976,0.9878,0.9965,0.9954,0.9921,0.9949,1.0019,1.0019,0.9943,1.007,1.0537,1.0497,1.1085,1.2574,1.1779,1.1574,1.2519,1.3093,1.3064,1.3626,1.4364,1.5501,1.532,1.6464,1.736,1.7426,1.755,1.7208,1.6124,1.4322,1.3913,1.3112,1.3465,1.3501,1.3035,1.2894,1.288,1.2887,1.3005,1.2937,1.2807,1.284,1.304,1.2888,1.2861,1.3006,1.2847,1.3179,1.32,1.4039,1.3756,1.3938,1.3785,1.3283,1.3241,1.2749,1.2762,1.3283,1.4135,1.5023,1.4923,1.4001,1.3697,1.403,1.4415,1.4818,1.4467,1.7567,1.7452,1.7786,1.7864,1.8016,1.9239,1.9822,1.9801,1.9822,1.9822,1.979,1.9822,1.9995,1.9995,2.0296,2.0597,2.106,2.1372,2.1695,2.1754,2.1905,2.1754,2.1604,2.1488,2.158,2.091,1.9239,1.7273,1.6483,1.6465,1.5906,1.3891,1.4361,1.3906,1.2535,1.1882,1.1454,1.0849,1.0687,1.037,1.0041,1.0025,1.0019,1.0019,1.0019,1.0019,1.0019,1.0019,1.0008,0.9998,1.0008,1.0003,0.9987,1.0003,1.0019,1.0319,1.044,1.1004,1.1734,1.1987,1.2648,1.3783,1.3956,1.394,1.4505,1.5027,1.4651,1.4985,1.5833,1.7037,1.7028,1.7625,1.7426,1.7757,1.829,1.8623,1.7578,1.6744,1.588,1.4895,1.4796,1.4859,1.4555,1.4266,1.4132,1.4327,1.4426,1.3692,1.2915,1.3262,1.3618,1.329,1.3102,1.3102,1.3102,1.3436,1.3938,1.5425,1.5794,1.6174,1.5707,1.4268,1.3767,1.4069,1.4216,1.4554,1.5594,1.6982,1.6366,1.5256,1.5123,1.4982,1.4661,1.4504,1.5396,1.8451,1.8471,1.8582,1.8623,1.8774,1.9542,1.9844,1.9844,1.9844,1.9995,2.0145,2.0145,2.0296,2.0458,2.0759,2.106,2.136,2.181,2.196,2.2109,2.2259,2.2271,2.2307,2.2392,2.2452,2.2198,2.0877,1.9162,1.7702,1.7395,1.6362,1.4751,1.4915,1.4296,1.2739,1.2279,1.1786,1.1312,1.099,1.0639,1.0112,1.0063,1.0025,1.0019,1.0019,1.0019,1.0019,1.0019,1.0019,1.0019,1.0019,1.0019,1.0019,1.0175,1.048,1.1244,1.1805,1.2692,1.3565,1.3832,1.4358,1.4859,1.4818,1.4374,1.4541,1.4757,1.569,1.6775,1.6587,1.7786,1.8572,1.9208,1.9036,1.7957,1.8359,1.9264,1.9695,1.8882,1.7922,1.6925,1.6868,1.693,1.6765,1.6328,1.5739,1.5655,1.5569,1.4624,1.3185,1.3717,1.4408,1.4892,1.4892,1.5223,1.5054,1.4716,1.5038,1.6368,1.7056,1.7441,1.798,1.6683,1.6383,1.64,1.6546,1.5139,1.81,1.9702,1.8201,1.6517,1.5514,1.4841,1.4174,1.4189,1.5396,1.9682,1.9844,1.9844,1.9844,1.9844,1.9844,1.9844,1.9844,1.9995,2.0145,2.0447,2.0597,2.0759,2.106,2.121,2.151,2.181,2.2109,2.2295,2.2367,2.2367,2.2367,2.2488,2.2597,2.273,2.2754,2.2093,2.1677,1.9966,1.946,1.7851,1.6503,1.5948,1.5178,1.3887,1.2901,1.2314,1.1678,1.135,1.0964,1.0708,1.028,1.0208,1.0353,1.0186,1.0019,1.0019,1.0019,1.0019,1.0019,1.0019,1.0019,1.0019,1.033,1.125,1.2769,1.3733,1.4068,1.4549,1.5278,1.5547,1.6393,1.5828,1.5531,1.5531,1.6563,1.6894,1.8864,1.8341,1.8029,1.926,2.1057,2.0776,1.9569,1.906,1.9667,2.1367,2.1324,2.0116,1.9478,1.9213,1.873,1.8087,1.9185,1.8775,1.5514,1.5424,1.4592,1.364,1.472,1.542,1.6416,1.7077,1.7919,1.7738,1.6717,1.6863,1.7512,1.7693,1.7557,1.876,1.9469,1.9134,1.8426,1.5357,1.4652,1.851,2.136,1.9905,1.8019,1.6032,1.4683,1.4153,1.4489,1.5695,1.9822,1.9844,1.9844,1.9844,1.9995,1.9995,1.9844,1.9995,2.0296,2.0447,2.0597,2.091,2.1071,2.1222,2.1522,2.181,2.2121,2.2307,2.2416,2.2585,2.2609,2.2705,2.2899,2.2971,2.2995,2.2865,2.1814,2.0834,2.0667,2.1457,2.0511,1.8207,1.7445,1.6915,1.5401,1.3814,1.2475,1.1845,1.1684,1.182,1.209,1.0872,1.113,1.156,1.1017,1.0347,1.0658,1.0647,1.048,1.033,1.0175,1.0175,1.0175,1.1411,1.2944,1.3406,1.293,1.1856,1.3853,1.5658,1.6858,1.8148,1.9067,2.0285,1.9369,1.8754,1.8895,1.9359,1.8562,1.8339,1.9732,2.1108,2.1682,2.1751,2.1344,2.2055,2.3128,2.2863,2.1795,2.184,2.1545,2.0082,1.9104,2.06,2.1588,1.791,1.4921,1.423,1.3903,1.4788,1.6172,1.7147,1.8155,1.901,1.9134,1.8291,1.8617,1.8942,1.8942,1.8454,1.9957,2.1114,2.0716,1.9321,1.6291,1.5,1.7983,1.9905,2.0354,1.9825,1.7983,1.5959,1.3945,1.4959,1.6328,2.0609,2.0609,2.0609,2.0609,2.0609,2.0609,2.0609,2.0609,2.0759,2.091,2.121,2.136,2.1522,2.1822,2.196,2.2205,2.2452,2.2476,2.2621,2.2826,2.2887,2.2947,2.3043,2.32,2.3273,2.3152,2.2776,2.2735,2.2337,2.096,1.9492,1.8974,1.8343,1.8049,1.7029,1.5286,1.4327,1.3499,1.2475,1.1619,1.1577,1.1171,1.1095,1.282,1.1905,1.2005,1.2596,1.2824,1.2797,1.279,1.2944,1.2937,1.3091,1.3861,1.4927,1.4935,1.4774,1.5387,1.7227,1.8461,1.8916,1.8916,1.9833,1.9822,1.9671,1.9844,1.9908,2.0005,2.0472,2.0572,2.0891,2.2093,2.2306,2.2543,2.2865,2.3249,2.3671,2.3708,2.3353,2.356,2.3584,2.1734,2.0217,2.059,2.1039,1.876,1.5894,1.4356,1.3867,1.3732,1.5599,1.7638,1.8664,1.9865,1.9642,1.9105,1.9917,2.0413,2.1394,2.1394,2.2073,2.2705,2.1834,2.2061,2.0952,1.9825,1.9192,1.9163,2.015,2.012,1.9917,1.8082,1.6425,1.6605,1.7801,2.1372,2.1372,2.121,2.1071,2.1071,2.1071,2.1071,2.1071,2.1222,2.136,2.1684,2.1881,2.2067,2.2392,2.2452,2.2609,2.2742,2.2754,2.2911,2.3068,2.3152,2.32,2.3333,2.3478,2.355,2.355,2.3524,2.3448,2.2762,2.1723,2.0408,1.9917,1.9695,1.9391,1.876,1.7439,1.6114,1.5771,1.4059,1.3207,1.2853,1.1938,1.2204,1.2462,1.2702,1.2924,1.4469,1.4392,1.4167,1.4935,1.5261,1.5122,1.5114,1.5579,1.6344,1.6653,1.6961,1.8355,1.969,2.0558,2.0469,2.0145,2.0211,2.058,1.9885,1.9994,2.0647,2.1176,2.1977,2.2567,2.2901,2.2985,2.3069,2.2996,2.3115,2.3502,2.3745,2.3707,2.378,2.3792,2.3632,2.3152,2.1778,2.0718,1.9957,1.8904,1.7043,1.4985,1.4504,1.4371,1.5878,1.8253,1.8933,2.013,2.0941,2.0737,2.1383,2.1383,2.2372,2.2866,2.2717,2.2545,2.1695,2.2474,2.3608,2.3051,2.1448,2.0779,2.012,2.0424,2.0727,2.0241,1.942,1.944,1.9277,2.181,2.2109,2.1372,2.1071,2.1071,2.1071,2.1071,2.1222,2.151,2.1672,2.1881,2.2361,2.2621,2.2669,2.2814,2.2935,2.3019,2.3007,2.3188,2.3345,2.3442,2.3538,2.3647,2.3719,2.378,2.378,2.384,2.384,2.368,2.3312,2.298,2.3187,2.1556,2.1222,2.0403,1.9267,1.7964,1.7465,1.6433,1.6106,1.5412,1.4504,1.3782,1.3105,1.2049,1.1487,1.3235,1.3973,1.4885,1.6145,1.6765,1.6921,1.706,1.7529,1.8144,1.8922,1.9399,2.0648,2.1551,2.117,2.0178,2.0351,2.1091,2.2071,2.1728,2.2306,2.2841,2.2531,2.3019,2.3152,2.3321,2.3442,2.3514,2.3587,2.3488,2.3524,2.3731,2.3756,2.3828,2.384,2.368,2.3336,2.3175,2.211,2.0964,1.9907,1.8588,1.6674,1.6683,1.6717,1.7512,1.8856,1.9018,2.0362,2.2533,2.2533,2.1545,2.1222,2.1717,2.1878,2.1878,2.1545,2.2028,2.2717,2.3788,2.3752,2.374,2.2579,2.1911,2.1728,2.1545,2.1394,2.1222,2.106,2.106,2.2109,2.2271,2.196,2.181,2.181,2.181,2.181,2.181,2.196,2.2217,2.2361,2.2766,2.2887,2.2935,2.2971,2.3152,2.3273,2.3297,2.3466,2.3611,2.3719,2.3756,2.384,2.384,2.384,2.384,2.384,2.384,2.384,2.384,2.384,2.352,2.2854,2.2866,2.2211,2.106,1.9755,1.8617,1.8118,1.7629,1.7284,1.676,1.6375,1.717,1.6368,1.6595,1.8013,1.791,1.8346,1.8809,1.929,1.93,1.9467,2.0085,2.0554,2.1034,2.1513,2.2136,2.2591,2.2082,2.1812,2.1965,2.2531,2.2947,2.3092,2.3068,2.3164,2.3225,2.3297,2.3406,2.3623,2.3695,2.3731,2.3816,2.384,2.384,2.384,2.384,2.384,2.384,2.384,2.368,2.368,2.3668,2.2372,2.1082,1.9735,1.8722,1.8722,1.9066,1.9705,2.02,2.0533,2.0038,2.1889,2.1728,2.1222,2.1383,2.1394,2.1878,2.22,2.2694,2.3348,2.368,2.384,2.3864,2.3876,2.3728,2.3395,2.2866,2.2854,2.3187,2.3027,2.2694,2.2533,2.2271,2.2271,2.2343,2.2331,2.2283,2.2343,2.238,2.2392,2.2476,2.2585,2.279,2.3043,2.3164,2.3176,2.3273,2.3381,2.3538,2.3587,2.3683,2.3768,2.3816,2.384,2.384,2.384,2.384,2.384,2.384,2.384,2.384,2.384,2.384,2.384,2.384,2.368,2.3359,2.2694,2.1233,2.0413,1.9917,1.9258,1.8933,1.8598,1.7937,1.8741,1.7962,1.8731,1.9664,1.9753,2.0337,2.1118,2.175,2.2042,2.2345,2.2804,2.296,2.3116,2.3116,2.3273,2.3249,2.3104,2.3104,2.2961,2.2985,2.3212,2.3249,2.3273,2.3442,2.3538,2.3575,2.3647,2.384,2.3816,2.3804,2.384,2.384,2.384,2.384,2.384,2.384,2.384,2.384,2.384,2.384,2.384,2.3359,2.2384,2.1878,2.12,2.105,2.1394,2.1922,2.2095,2.2279,2.1599,2.0941,2.1728,2.2372,2.2533,2.2694,2.3027,2.352,2.384,2.384,2.384,2.384,2.384,2.3852,2.3864,2.3864,2.368,2.368,2.368,2.368,2.3187,2.3348,2.2283,2.2295,2.2549,2.2512,2.2343,2.2536,2.2645,2.2681,2.2887,2.3007,2.3068,2.3321,2.3442,2.349,2.3623,2.3719,2.3756,2.3792,2.3816,2.3828,2.384,2.384,2.384,2.384,2.384,2.384,2.384,2.384,2.384,2.384,2.384,2.384,2.384,2.384,2.384,2.384,2.368,2.352,2.3187,2.2039,2.105,2.0554,1.9907,1.9076,1.8732,1.9684,2.0471,2.0793,2.1242,2.2225,2.2727,2.2887,2.3058,2.3389,2.356,2.3731,2.3744,2.3768,2.3768,2.3333,2.3273,2.3406,2.3442,2.3502,2.3719,2.378,2.3731,2.3744,2.378,2.3792,2.384,2.384,2.384,2.384,2.384,2.384,2.384,2.384,2.384,2.384,2.384,2.384,2.384,2.384,2.384,2.368,2.368,2.352,2.3038,2.305,2.3246,2.3258,2.3097,2.2912,2.2395,2.3038,2.352,2.368,2.368,2.368,2.384,2.384,2.384,2.384,2.384,2.384,2.384,2.3852,2.384,2.384,2.384,2.384,2.384,2.384,2.384,2.2778,2.279,2.2874,2.2862,2.279,2.2874,2.2911,2.2959,2.3176,2.3321,2.3369,2.3599,2.3707,2.3756,2.378,2.384,2.384,2.384,2.384,2.384,2.384,2.384,2.384,2.384,2.384,2.384,2.384,2.384,2.384,2.384,2.384,2.384,2.384,2.384,2.384,2.384,2.384,2.384,2.368,2.3348,2.2694,2.2522,2.22,2.1383,2.106,2.1233,2.1878,2.1728,2.2061,2.2878,2.3199,2.3371,2.352,2.384,2.384,2.384,2.384,2.384,2.3828,2.3647,2.3623,2.3683,2.3707,2.3731,2.384,2.384,2.384,2.384,2.384,2.384,2.384,2.384,2.384,2.384,2.384,2.384,2.384,2.384,2.384,2.384,2.384,2.384,2.384,2.384,2.384,2.384,2.384,2.384,2.352,2.352,2.3544,2.3544,2.3704,2.3692,2.384,2.384,2.384,2.368,2.368,2.384,2.384,2.384,2.384,2.384,2.384,2.384,2.384,2.384,2.384,2.384,2.384,2.384,2.384,2.384,2.384,2.3043,2.3056,2.3152,2.3188,2.3188,2.3188,2.3225,2.3333,2.3514,2.3587,2.3623,2.3768,2.384,2.384,2.384,2.384,2.384,2.384,2.384,2.384,2.384,2.384,2.384,2.384,2.384,2.384,2.384,2.384,2.384,2.384,2.384,2.384,2.384,2.384,2.384,2.384,2.384,2.384,2.384,2.368,2.368,2.368,2.368,2.352,2.3359,2.3359,2.3359,2.3199,2.305,2.3359,2.352,2.3532,2.368,2.384,2.384,2.384,2.384,2.384,2.3828,2.3828,2.3792,2.3816,2.384,2.384,2.384,2.384,2.384,2.384,2.384,2.384,2.384,2.384,2.384,2.384,2.384,2.384,2.384,2.384,2.384,2.384,2.384,2.384,2.384,2.384,2.384,2.384,2.384,2.384,2.384,2.384,2.384,2.384,2.384,2.384,2.384,2.384,2.384,2.384,2.384,2.384,2.384,2.384,2.384,2.384,2.384,2.384,2.384,2.384,2.384,2.384,2.384,2.384,2.384,2.384,2.384,2.308,2.3104,2.3357,2.3466,2.3466,2.3466,2.3599,2.3816,2.3828,2.3828,2.384,2.3828,2.384,2.384,2.384,2.384,2.384,2.384,2.384,2.384,2.384,2.384,2.384,2.384,2.384,2.384,2.384,2.384,2.384,2.384,2.384,2.384,2.384,2.384,2.384,2.384,2.384,2.384,2.384,2.384,2.384,2.384,2.384,2.384,2.368,2.368,2.368,2.368,2.368,2.368,2.384,2.384,2.384,2.384,2.384,2.384,2.384,2.384,2.384,2.384,2.384,2.384,2.384,2.384,2.384,2.384,2.384,2.384,2.384,2.384,2.384,2.384,2.384,2.384,2.384,2.384,2.384,2.384,2.384,2.384,2.384,2.384,2.384,2.384,2.384,2.384,2.384,2.384,2.384,2.384,2.384,2.384,2.384,2.384,2.384,2.384,2.384,2.384,2.384,2.384,2.384,2.384,2.384,2.384,2.384,2.384,2.384,2.384,2.384,2.384,2.384,2.384,2.384,2.384,2.384,2.3611,2.3623,2.3695,2.3731,2.3731,2.3731,2.378,2.384,2.384,2.384,2.384,2.384,2.384,2.384,2.384,2.384,2.384,2.384,2.384,2.384,2.384,2.384,2.384,2.384,2.384,2.384,2.384,2.384,2.384,2.384,2.384,2.384,2.384,2.384,2.384,2.384,2.384,2.384,2.384,2.384,2.384,2.384,2.384,2.384,2.384,2.384,2.384,2.384,2.384,2.384,2.384,2.384,2.384,2.384,2.384,2.384,2.384,2.384,2.384,2.384,2.384,2.384,2.384,2.384,2.384,2.384,2.384,2.384,2.384,2.384,2.384,2.384,2.384,2.384,2.384,2.384,2.384,2.384,2.384,2.384,2.384,2.384,2.384,2.384,2.384,2.384,2.384,2.384,2.384,2.384,2.384,2.384,2.384,2.384,2.384,2.384,2.384,2.384,2.384,2.384,2.384,2.384,2.384,2.384,2.384,2.384,2.384,2.384,2.384,2.384,2.384,2.384,2.384,2.3852,2.3852,2.384,2.384,2.384,2.384,2.384,2.384,2.384,2.384,2.384,2.384,2.384,2.384,2.384,2.384,2.384,2.384,2.384,2.384,2.384,2.384,2.384,2.384,2.384,2.384,2.384,2.384,2.384,2.384,2.384,2.384,2.384,2.384,2.384,2.384,2.384,2.384,2.384,2.384,2.384,2.384,2.384,2.384,2.384,2.384,2.384,2.384,2.384,2.384,2.384,2.384,2.384,2.384,2.384,2.384,2.384,2.384,2.384,2.384,2.384,2.384,2.384,2.384,2.384,2.384,2.384,2.384,2.384,2.384,2.384,2.384,2.384,2.384,2.384,2.384,2.384,2.384,2.384,2.384,2.384,2.384,2.384,2.384,2.384,2.384,2.384,2.384,2.384,2.384,2.384,2.384,2.384,2.384,2.384,2.384,2.384,2.384,2.384,2.384,2.384,2.384,2.384,2.384,2.384,2.384,2.384,2.3852,2.3876,2.3852,2.384,2.3876,2.3925,2.3776,2.3776,2.3728,2.3876,2.384,2.384,2.384,2.384,2.384,2.384,2.384,2.384,2.384,2.384,2.384,2.384,2.384,2.384,2.384,2.384,2.384,2.384,2.384,2.384,2.384,2.384,2.384,2.384,2.384,2.384,2.384,2.384,2.384,2.384,2.384,2.384,2.384,2.384,2.384,2.384,2.384,2.384,2.384,2.384,2.384,2.384,2.384,2.384,2.384,2.384,2.384,2.384,2.384,2.384,2.384,2.384,2.384,2.384,2.384,2.384,2.384,2.384,2.384,2.384,2.384,2.384,2.384,2.384,2.384,2.384,2.384,2.384,2.384,2.384,2.384,2.384,2.384,2.384,2.384,2.384,2.384,2.384,2.384,2.384,2.384,2.384,2.384,2.3852,2.3925,2.3888,2.3752,2.3752,2.3985,2.3985,2.3913,2.39,2.3852,2.3852,2.384,2.384,2.384,2.384,2.3864,2.384,2.384,2.384,2.384,2.384,2.3852,2.3888,2.3913,2.3937,2.3997,2.4069,2.3932,2.3908,2.3884,2.3884,2.4082,2.384,2.384,2.384,2.384,2.384,2.384,2.384,2.384,2.384,2.384,2.384,2.384,2.384,2.384,2.384,2.384,2.384,2.384,2.384,2.384,2.384,2.384,2.384,2.384,2.384,2.384,2.384,2.384,2.384,2.384,2.384,2.384,2.384,2.384,2.384,2.384,2.384,2.384,2.384,2.384,2.384,2.384,2.384,2.384,2.384,2.384,2.384,2.384,2.384,2.384,2.384,2.384,2.384,2.384,2.384,2.384,2.384,2.384,2.384,2.384,2.384,2.384,2.384,2.384,2.384,2.384,2.384,2.384,2.384,2.384,2.384,2.384,2.384,2.384,2.384,2.384,2.384,2.384,2.384,2.3864,2.3864,2.3876,2.3876,2.3925,2.3973,2.3872,2.377,2.3841,2.416,2.4196,2.3968,2.3908,2.3913,2.3876,2.39,2.3961,2.4021,2.3973,2.3985,2.3925,2.3876,2.3949,2.4021,2.3888,2.3852,2.3997,2.4118,2.4142,2.4202,2.4275,2.4335,2.4172,2.4079,2.4091,2.4279,2.384,2.384,2.384,2.384,2.384,2.384,2.384,2.384,2.384,2.384,2.384,2.384,2.384,2.384,2.384,2.384,2.384,2.384,2.384,2.384,2.384,2.384,2.384,2.384,2.384,2.384,2.384,2.384,2.384,2.384,2.384,2.384,2.384,2.384,2.384,2.384,2.384,2.384,2.384,2.384,2.384,2.384,2.384,2.384,2.384,2.384,2.384,2.384,2.384,2.384,2.384,2.384,2.384,2.384,2.384,2.384,2.384,2.384,2.384,2.384,2.384,2.384,2.384,2.384,2.384,2.384,2.384,2.384,2.384,2.384,2.384,2.384,2.384,2.384,2.384,2.384,2.384,2.384,2.3937,2.4069,2.4094,2.4154,2.419,2.4299,2.4335,2.4347,2.422,2.4232,2.4399,2.4555,2.4327,2.4172,2.4238,2.419,2.4275,2.4299,2.4299,2.4226,2.413,2.4028,2.3913,2.4064,2.4202,2.4142,2.4166,2.4275,2.4371,2.4407,2.442,2.448,2.4552,2.4447,2.4531,2.4449,2.4663,2.384,2.384,2.384,2.384,2.384,2.384,2.384,2.384,2.384,2.384,2.384,2.384,2.384,2.384,2.384,2.384,2.384,2.384,2.384,2.384,2.384,2.384,2.384,2.384,2.384,2.384,2.384,2.384,2.384,2.384,2.384,2.384,2.384,2.384,2.384,2.384,2.384,2.384,2.384,2.384,2.384,2.384,2.384,2.384,2.384,2.384,2.384,2.384,2.384,2.384,2.384,2.384,2.384,2.384,2.384,2.384,2.384,2.384,2.384,2.384,2.384,2.384,2.384,2.384,2.384,2.384,2.384,2.384,2.384,2.384,2.384,2.384,2.384,2.3864,2.3864,2.39,2.39,2.3913,2.4069,2.4251,2.4335,2.4407,2.4492,2.4601,2.4649,2.4661,2.4685,2.4709,2.4758,2.4902,2.489,2.4806,2.477,2.4733,2.4637,2.4576,2.4516,2.448,2.4407,2.4187,2.4234,2.4303,2.4444,2.4339,2.4375,2.4564,2.4637,2.4685,2.4697,2.4745,2.4866,2.4795,2.4831,2.4927,2.5023,2.384,2.384,2.384,2.384,2.384,2.384,2.384,2.384,2.384,2.384,2.384,2.384,2.384,2.384,2.384,2.384,2.384,2.384,2.384,2.384,2.384,2.384,2.384,2.384,2.384,2.384,2.384,2.384,2.384,2.384,2.384,2.384,2.384,2.384,2.384,2.384,2.384,2.384,2.384,2.384,2.384,2.384,2.384,2.384,2.384,2.384,2.384,2.384,2.384,2.384,2.384,2.384,2.384,2.384,2.384,2.384,2.384,2.384,2.384,2.384,2.384,2.384,2.384,2.384,2.384,2.384,2.384,2.384,2.384,2.384,2.384,2.384,2.3852,2.39,2.3913,2.4045,2.4118,2.4178,2.4287,2.4444,2.4576,2.4625,2.4673,2.4758,2.483,2.4866,2.4951,2.4987,2.512,2.5192,2.5252,2.5252,2.524,2.4951,2.4721,2.4733,2.4697,2.4673,2.4685,2.4603,2.4591,2.4471,2.4637,2.4615,2.477,2.4758,2.483,2.4963,2.5059,2.512,2.5252,2.5337,2.5179,2.5155,2.5349]}]]